[[{"header":{"parameterUnit":"m.s-1","parameterCategory":1,"la1":30.6,"la2":28.766,"lo1":-90.7593,"lo2":-88.6598,"dy":0.0162,"dx":0.0183,"nx":116,"ny":114,"refTime":"2024-05-10T12:00:00:Z","depth":0,"parameterNumber":2,"parameterNumberName":"U-component_of_WINDS"},"data":[0.0,0.0,0.0,0.0,0.0,0.0,0.0,0.0,0.0,0.0,0.0,0.0,0.0,0.0,0.0,0.0,0.0,0.0,0.0,0.0,0.0,0.0,0.0,0.0,0.0,0.0,0.0,0.0,0.0,0.0,0.0,0.0,0.0,0.0,0.0,0.0,0.0,0.0,0.0,0.0,0.0,0.0,0.0,0.0,0.0,0.0,0.0,0.0,0.0,0.0,0.0,0.0,0.0,0.0,0.0,0.0,0.0,0.0,0.0,0.0,0.0,0.0,0.0,0.0,0.0,0.0,0.0,0.0,0.0,0.0,0.0,0.0,0.0,0.0,0.0,0.0,0.0,0.0,0.0,0.0,0.0,0.0,0.0,0.0,0.0,0.0,0.0,0.0,0.0,0.0,0.0,0.0,0.0,0.0,0.0,0.0,0.0,0.0,0.0,0.0,0.0,0.0,0.0,0.0,0.0,0.0,0.0,0.0,0.0,0.0,0.0,0.0,0.0,0.0,0.0,0.0,0.0,0.0,0.0,0.0,0.0,0.0,0.0,0.0,0.0,0.0,0.0,0.0,0.0,0.0,0.0,0.0,0.0,0.0,0.0,0.0,0.0,0.0,0.0,0.0,0.0,0.0,0.0,0.0,0.0,0.0,0.0,0.0,0.0,0.0,0.0,0.0,0.0,0.0,0.0,0.0,0.0,0.0,0.0,0.0,0.0,0.0,0.0,0.0,0.0,0.0,0.0,0.0,0.0,0.0,0.0,0.0,0.0,0.0,0.0,0.0,0.0,0.0,0.0,0.0,0.0,0.0,0.0,0.0,0.0,0.0,0.0,0.0,0.0,0.0,0.0,0.0,0.0,0.0,0.0,0.0,0.0,0.0,0.0,0.0,0.0,0.0,0.0,0.0,0.0,0.0,0.0,0.0,0.0,0.0,0.0,0.0,0.0,0.0,0.0,0.0,0.0,0.0,0.0,0.0,0.0,0.0,0.0,0.0,0.0,0.0,0.0,0.0,0.0,0.0,0.0,0.0,0.0,0.0,0.0,0.0,0.0,0.0,0.0,0.0,0.0,0.0,0.0,0.0,0.0,0.0,0.0,0.0,0.0,0.0,0.0,0.0,0.0,0.0,0.0,0.0,0.0,0.0,0.0,0.0,0.0,0.0,0.0,0.0,0.0,0.0,0.0,0.0,0.0,0.0,0.0,0.0,0.0,0.0,0.0,0.0,0.0,0.0,0.0,0.0,0.0,0.0,0.0,0.0,0.0,0.0,0.0,0.0,0.0,0.0,0.0,0.0,0.0,0.0,0.0,0.0,0.0,0.0,0.0,0.0,0.0,0.0,0.0,0.0,0.0,0.0,0.0,0.0,0.0,0.0,0.0,0.0,0.0,0.0,0.0,0.0,0.0,0.0,0.0,0.0,0.0,0.0,0.0,0.0,0.0,0.0,0.0,0.0,0.0,0.0,0.0,0.0,0.0,0.0,0.0,0.0,0.0,0.0,0.0,0.0,0.0,0.0,0.0,0.0,0.0,0.0,0.0,0.0,0.0,0.0,0.0,0.0,0.0,0.0,0.0,0.0,0.0,0.0,0.0,0.0,0.0,0.0,0.0,0.0,0.0,0.0,0.0,0.0,0.0,0.0,0.0,0.0,0.0,0.0,0.0,0.0,0.0,0.0,0.0,0.0,0.0,0.0,0.0,0.0,0.0,0.0,0.0,0.0,0.0,0.0,0.0,0.0,0.0,0.0,0.0,0.0,0.0,0.0,0.0,0.0,0.0,0.0,0.0,0.0,0.0,0.0,0.0,0.0,0.0,0.0,0.0,0.0,0.0,0.0,0.0,0.0,0.0,0.0,0.0,0.0,0.0,0.0,0.0,0.0,0.0,0.0,0.0,0.0,0.0,0.0,0.0,0.0,0.0,0.0,0.0,0.0,0.0,0.0,0.0,0.0,0.0,0.0,0.0,0.0,0.0,0.0,0.0,0.0,0.0,0.0,0.0,0.0,0.0,0.0,0.0,0.0,0.0,0.0,0.0,0.0,0.0,0.0,0.0,0.0,0.0,0.0,0.0,0.0,0.0,0.0,0.0,0.0,0.0,0.0,0.0,0.0,0.0,0.0,0.0,0.0,0.0,0.0,0.0,0.0,0.0,0.0,0.0,0.0,0.0,0.0,0.0,0.0,0.0,0.0,0.0,0.0,0.0,0.0,0.0,0.0,0.0,0.0,0.0,0.0,0.0,0.0,0.0,0.0,0.0,0.0,0.0,0.0,0.0,0.0,0.0,0.0,0.0,0.0,0.0,0.0,0.0,0.0,0.0,0.0,0.0,0.0,0.0,0.0,0.0,0.0,0.0,0.0,0.0,0.0,0.0,0.0,0.0,0.0,0.0,0.0,0.0,0.0,0.0,0.0,0.0,0.0,0.0,0.0,0.0,0.0,0.0,0.0,0.0,0.0,0.0,0.0,0.0,0.0,0.0,0.0,0.0,0.0,0.0,0.0,0.0,0.0,0.0,0.0,0.0,0.0,0.0,0.0,0.0,0.0,0.0,0.0,0.0,0.0,0.0,0.0,0.0,0.0,0.0,0.0,0.0,0.0,0.0,0.0,0.0,0.0,0.0,0.0,0.0,0.0,0.0,0.0,0.0,0.0,0.0,0.0,0.0,0.0,0.0,0.0,0.0,0.0,0.0,0.0,0.0,0.0,0.0,0.0,0.0,0.0,0.0,0.0,0.0,0.0,0.0,0.0,0.0,0.0,0.0,0.0,0.0,0.0,0.0,0.0,0.0,0.0,0.0,0.0,0.0,0.0,0.0,0.0,0.0,0.0,0.0,0.0,0.0,0.0,0.0,0.0,0.0,0.0,0.0,0.0,0.0,0.0,0.0,0.0,0.0,0.0,0.0,0.0,0.0,0.0,0.0,0.0,0.0,0.0,0.0,0.0,0.0,0.0,0.0,0.0,0.0,0.0,0.0,0.0,0.0,0.0,0.0,0.0,0.0,0.0,0.0,0.0,0.0,0.0,0.0,0.0,0.0,0.0,0.0,0.0,0.0,0.0,0.0,0.0,0.0,0.0,0.0,0.0,0.0,0.0,0.0,0.0,0.0,0.0,0.0,0.0,0.0,0.0,0.0,0.0,0.0,0.0,0.0,0.0,0.0,0.0,0.0,0.0,0.0,0.0,0.0,0.0,0.0,0.0,0.0,0.0,0.0,0.0,0.0,0.0,0.0,0.0,0.0,0.0,0.0,0.0,0.0,0.0,0.0,0.0,0.0,0.0,0.0,0.0,0.0,0.0,0.0,0.0,0.0,0.0,0.0,0.0,0.0,0.0,0.0,0.0,0.0,0.0,0.0,0.0,0.0,0.0,0.0,0.0,0.0,0.0,0.0,0.0,0.0,0.0,0.0,0.0,0.0,0.0,0.0,0.0,0.0,0.0,0.0,0.0,0.0,0.0,0.0,0.0,0.0,0.0,0.0,0.0,0.0,0.0,0.0,0.0,0.0,0.0,0.0,0.0,0.0,0.0,0.0,0.0,0.0,0.0,0.0,0.0,0.0,0.0,0.0,0.0,0.0,0.0,0.0,0.0,0.0,0.0,0.0,0.0,0.0,0.0,0.0,0.0,0.0,0.0,0.0,0.0,0.0,0.0,0.0,0.0,0.0,0.0,0.0,0.0,0.0,0.0,0.0,0.0,0.0,0.0,0.0,0.0,0.0,0.0,0.0,0.0,0.0,0.0,0.0,0.0,0.0,0.0,0.0,0.0,0.0,0.0,0.0,0.0,0.0,0.0,0.0,0.0,0.0,0.0,0.0,0.0,0.0,0.0,0.0,0.0,0.0,0.0,0.0,0.0,0.0,0.0,0.0,0.0,0.0,0.0,0.0,0.0,0.0,0.0,0.0,0.0,0.0,0.0,0.0,0.0,0.0,0.0,0.0,0.0,0.0,0.0,0.0,0.0,0.0,0.0,0.0,0.0,0.0,0.0,0.0,0.0,0.0,0.0,0.0,0.0,0.0,0.0,0.0,0.0,0.0,0.0,0.0,0.0,0.0,0.0,0.0,0.0,0.0,0.0,0.0,0.0,0.0,0.0,0.0,0.0,0.0,0.0,0.0,0.0,0.0,0.0,0.0,0.0,0.0,0.0,0.0,0.0,0.0,0.0,0.0,0.0,0.0,0.0,0.0,0.0,0.0,0.0,0.0,0.0,0.0,0.0,0.0,0.0,0.0,0.0,0.0,0.0,0.0,0.0,0.0,0.0,0.0,0.0,0.0,0.0,0.0,0.0,0.0,0.0,0.0,0.0,0.0,0.0,0.0,0.0,0.0,0.0,0.0,0.0,0.0,0.0,0.0,0.0,0.0,0.0,0.0,0.0,0.0,0.0,0.0,0.0,0.0,0.0,0.0,0.0,0.0,0.0,0.0,0.0,0.0,0.0,0.0,0.0,0.0,0.0,0.0,0.0,0.0,0.0,0.0,0.0,0.0,0.0,0.0,0.0,0.0,0.0,0.0,0.0,0.0,0.0,0.0,0.0,0.0,0.0,0.0,0.0,0.0,0.0,0.0,0.0,0.0,0.0,0.0,0.0,0.0,0.0,0.0,0.0,0.0,0.0,0.0,0.0,0.0,0.0,0.0,0.0,0.0,0.0,0.0,0.0,0.0,0.0,0.0,0.0,0.0,0.0,0.0,0.0,0.0,0.0,0.0,0.0,0.0,0.0,0.0,0.0,0.0,0.0,0.0,0.0,0.0,0.0,0.0,0.0,0.0,0.0,0.0,0.0,0.0,0.0,0.0,0.0,0.0,0.0,0.0,0.0,0.0,0.0,0.0,0.0,0.0,0.0,0.0,0.0,0.0,0.0,0.0,0.0,0.0,0.0,0.0,0.0,0.0,0.0,0.0,0.0,0.0,0.0,0.0,0.0,0.0,0.0,0.0,0.0,0.0,0.0,0.0,0.0,0.0,0.0,0.0,0.0,0.0,0.0,0.0,0.0,0.0,0.0,0.0,0.0,0.0,0.0,0.0,0.0,0.0,0.0,0.0,0.0,0.0,0.0,0.0,0.0,0.0,0.0,0.0,0.0,0.0,0.0,0.0,0.0,0.0,0.0,0.0,0.0,0.0,0.0,0.0,0.0,0.0,0.0,0.0,0.0,0.0,0.0,0.0,0.0,0.0,0.0,0.0,0.0,0.0,0.0,0.0,0.0,0.0,0.0,0.0,0.0,0.0,0.0,0.0,0.0,0.0,0.0,0.0,0.0,0.0,0.0,0.0,0.0,0.0,0.0,0.0,0.0,0.0,0.0,0.0,0.0,0.0,0.0,0.0,0.0,0.0,0.0,0.0,0.0,0.0,0.0,0.0,0.0,0.0,0.0,0.0,0.0,0.0,0.0,0.0,0.0,0.0,0.0,0.0,0.0,0.0,0.0,0.0,0.0,0.0,0.0,0.0,0.0,0.0,0.0,0.0,0.0,0.0,0.0,0.0,0.0,0.0,0.0,0.0,0.0,0.0,0.0,0.0,0.0,0.0,0.0,0.0,0.0,0.0,0.0,0.0,0.0,0.0,0.0,0.0,0.0,0.0,0.0,0.0,0.0,0.0,0.0,0.0,0.0,0.0,0.0,0.0,0.0,0.0,0.0,0.0,0.0,0.0,0.0,0.0,0.0,0.0,0.0,0.0,0.0,0.0,0.0,0.0,0.0,0.0,0.0,0.0,0.0,0.0,0.0,0.0,0.0,0.0,0.0,0.0,0.0,0.0,0.0,0.0,0.0,0.0,0.0,0.0,0.0,0.0,0.0,0.0,0.0,0.0,0.0,0.0,0.0,0.0,0.0,0.0,0.0,0.0,0.0,0.0,0.0,0.0,0.0,0.0,0.0,0.0,0.0,0.0,0.0,0.0,0.0,0.0,0.0,0.0,0.0,0.0,0.0,0.0,0.0,0.0,0.0,0.0,0.0,0.0,0.0,0.0,0.0,0.0,0.0,0.0,0.0,0.0,0.0,0.0,0.0,0.0,0.0,0.0,0.0,0.0,0.0,0.0,0.0,0.0,0.0,0.0,0.0,0.0,0.0,0.0,0.0,0.0,0.0,0.0,0.0,0.0,0.0,-2.8077,-2.6824,0.0,0.0,0.0,0.0,0.0,0.0,0.0,0.0,0.0,0.0,0.0,0.0,0.0,0.0,0.0,0.0,0.0,0.0,0.0,0.0,0.0,0.0,0.0,-2.273,-2.3101,-2.3101,-2.3101,-2.3101,-2.3101,0.0,0.0,0.0,0.0,0.0,0.0,0.0,-2.599,-2.7851,-2.7293,-2.7814,-2.9268,-2.9508,-2.8931,-2.769,0.0,0.0,0.0,0.0,0.0,0.0,0.0,0.0,0.0,0.0,0.0,0.0,0.0,0.0,0.0,0.0,0.0,0.0,0.0,0.0,0.0,0.0,0.0,0.0,0.0,0.0,0.0,0.0,0.0,0.0,0.0,0.0,0.0,0.0,0.0,0.0,0.0,0.0,0.0,0.0,0.0,0.0,0.0,0.0,0.0,0.0,0.0,0.0,0.0,0.0,0.0,0.0,0.0,0.0,0.0,0.0,0.0,0.0,0.0,0.0,0.0,0.0,0.0,0.0,0.0,0.0,0.0,0.0,0.0,0.0,-3.0462,-2.922,0.0,0.0,0.0,0.0,0.0,0.0,0.0,0.0,0.0,0.0,0.0,0.0,0.0,0.0,0.0,0.0,0.0,0.0,0.0,0.0,0.0,-2.1751,-2.1894,-2.2594,-2.3076,-2.3198,-2.314,-2.312,-2.3198,-2.314,-2.3101,-2.3101,-2.3101,-2.3517,-2.4488,-2.4488,-2.5573,-2.7752,-2.7832,-2.8738,-3.0524,-3.168,-3.0999,-2.8795,-2.8787,0.0,0.0,0.0,0.0,0.0,0.0,0.0,0.0,0.0,0.0,0.0,0.0,0.0,0.0,0.0,0.0,0.0,0.0,0.0,0.0,0.0,0.0,0.0,0.0,0.0,0.0,0.0,0.0,0.0,0.0,0.0,0.0,0.0,0.0,0.0,0.0,0.0,0.0,0.0,0.0,0.0,0.0,0.0,0.0,0.0,0.0,0.0,0.0,0.0,0.0,0.0,0.0,0.0,0.0,0.0,0.0,0.0,0.0,0.0,0.0,0.0,0.0,0.0,-3.4566,-3.469,-3.4361,-3.4333,-3.4333,-3.4403,-3.3162,-3.2062,-3.1206,-3.0565,0.0,0.0,0.0,0.0,0.0,0.0,0.0,0.0,0.0,0.0,0.0,0.0,0.0,0.0,0.0,0.0,0.0,0.0,0.0,-2.1233,-2.1834,-2.2465,-2.308,-2.3672,-2.3359,-2.3257,-2.3672,-2.3315,-2.3101,-2.3101,-2.3101,-2.3517,-2.4488,-2.4488,-2.5231,-2.669,-2.9262,-3.102,-3.2032,-3.3647,-3.3934,-3.307,-3.0879,-3.0302,-3.097,0.0,0.0,0.0,0.0,0.0,0.0,0.0,0.0,0.0,0.0,0.0,0.0,0.0,0.0,0.0,0.0,0.0,0.0,0.0,0.0,0.0,0.0,0.0,0.0,0.0,0.0,0.0,0.0,0.0,0.0,0.0,0.0,0.0,0.0,0.0,0.0,0.0,0.0,0.0,0.0,0.0,-3.1512,-3.111,0.0,0.0,0.0,0.0,0.0,0.0,0.0,0.0,0.0,0.0,0.0,0.0,0.0,-3.2929,-3.3406,-3.5449,-3.5734,-3.4285,-3.7263,-3.7881,-3.6333,-3.5971,-3.6602,-3.7805,-3.5817,0.0,-3.1651,-3.0806,0.0,0.0,0.0,0.0,0.0,0.0,0.0,0.0,0.0,0.0,0.0,0.0,0.0,0.0,0.0,0.0,0.0,0.0,0.0,0.0,0.0,-2.2796,-2.3763,-2.4028,-2.4737,-2.4852,-2.4291,-2.4272,-2.3912,-2.314,-2.3101,-2.3418,-2.4095,-2.4115,-2.5125,-2.7167,-3.0411,-3.2516,-3.3577,-3.4917,-3.5652,-3.5761,-3.4294,-3.2899,-3.1645,-3.073,0.0,0.0,0.0,0.0,0.0,0.0,0.0,0.0,0.0,0.0,0.0,0.0,0.0,0.0,0.0,0.0,0.0,0.0,0.0,0.0,0.0,0.0,0.0,0.0,0.0,0.0,0.0,0.0,0.0,0.0,0.0,0.0,0.0,0.0,0.0,0.0,0.0,0.0,0.0,-3.1612,-3.2842,-3.1964,-3.2692,-3.2466,0.0,0.0,0.0,0.0,0.0,0.0,0.0,0.0,0.0,-3.3597,-3.4416,-3.5086,-3.57,-3.7293,-3.7696,-3.6928,-3.84,-3.8562,-3.7543,-3.7337,-3.7376,-3.7582,-3.6648,-3.5116,-3.3266,-3.2287,-3.1089,-2.9679,0.0,0.0,0.0,0.0,-2.7452,-2.7755,0.0,0.0,0.0,0.0,0.0,0.0,0.0,0.0,0.0,0.0,0.0,0.0,-2.1779,-2.3315,-2.456,-2.5043,-2.5956,-2.6153,-2.5312,-2.5024,-2.4476,-2.3471,-2.3218,-2.3296,-2.3769,-2.4336,-2.5785,-2.8188,-3.1337,-3.3443,-3.4601,-3.5803,-3.6626,-3.6989,-3.659,-3.5183,-3.3066,-3.2271,-3.1048,-2.9677,0.0,0.0,0.0,0.0,0.0,0.0,0.0,0.0,0.0,0.0,0.0,0.0,0.0,0.0,0.0,0.0,0.0,0.0,0.0,0.0,0.0,0.0,0.0,0.0,0.0,0.0,0.0,0.0,0.0,0.0,0.0,0.0,0.0,0.0,0.0,0.0,0.0,-3.3671,-3.4977,-3.3269,-3.5177,-3.5215,0.0,0.0,0.0,0.0,0.0,0.0,-3.4487,-3.4513,-3.4781,-3.5482,-3.6398,-3.717,-3.761,-3.8447,-3.8709,-3.8347,-3.8575,-3.8328,-3.7651,-3.7406,-3.7058,-3.659,-3.6174,-3.5468,-3.4393,-3.3421,-3.2189,-3.0833,-2.9374,-2.8565,-2.8266,-2.8023,-2.8009,-2.8209,0.0,0.0,0.0,0.0,0.0,0.0,0.0,0.0,0.0,0.0,0.0,-2.175,-2.3306,-2.4066,-2.5194,-2.6996,-2.6522,-2.6343,-2.6926,-2.5139,-2.4129,-2.4309,-2.353,-2.3296,-2.3769,-2.5801,-2.7695,-2.9525,-3.2085,-3.3834,-3.4708,-3.6436,-3.6953,-3.6553,-3.6531,-3.6679,-3.6723,-3.3717,-3.2683,-3.2827,-3.0278,0.0,0.0,0.0,0.0,0.0,0.0,0.0,0.0,0.0,0.0,0.0,0.0,0.0,0.0,0.0,0.0,0.0,0.0,0.0,0.0,0.0,0.0,0.0,0.0,0.0,0.0,0.0,0.0,0.0,0.0,0.0,0.0,0.0,0.0,0.0,0.0,0.0,0.0,-3.5708,-3.917,0.0,0.0,0.0,0.0,-3.4084,-3.516,-3.6179,-3.6861,-3.8644,-3.9531,-3.922,-3.8724,-3.8388,-3.841,-3.86,-3.8078,-3.6914,-3.7668,-3.7391,-3.6206,-3.5332,-3.5304,-3.5787,-3.4255,-3.3904,-3.4459,-3.3485,-3.2634,-3.1815,-3.0383,-3.009,-3.0304,-2.9022,-2.8639,-2.8647,0.0,0.0,0.0,-1.9292,-1.935,-1.9482,-1.9758,-2.0027,-2.0294,-2.0513,-2.1695,-2.2788,-2.3444,-2.5371,-2.6976,-2.7957,-2.8475,-2.844,-2.7789,-2.6499,-2.5653,-2.5392,-2.4431,-2.4687,-2.63,-2.7851,-2.9375,-3.082,-3.2296,-3.3761,-3.5128,-3.5785,-3.6435,-3.6987,-3.6987,-3.6912,-3.6601,-3.417,-3.2901,-3.2365,-3.0463,-2.931,0.0,0.0,0.0,0.0,0.0,0.0,0.0,0.0,0.0,0.0,0.0,0.0,0.0,0.0,0.0,0.0,0.0,0.0,0.0,0.0,0.0,0.0,0.0,0.0,0.0,0.0,0.0,0.0,0.0,0.0,0.0,0.0,0.0,0.0,0.0,0.0,0.0,-3.6268,-3.8977,0.0,-3.6148,-3.6493,-3.6947,-3.6997,-3.7084,-3.7495,-3.8424,-3.8725,-3.8913,-3.9065,-3.9094,-3.8979,-3.8684,-3.875,-3.8259,-3.7239,-3.7505,-3.7106,-3.6101,-3.5459,-3.5018,-3.4682,-3.3809,-3.3408,-3.331,-3.2973,-3.2496,-3.1873,-3.0485,-3.0058,-3.0106,-2.8993,-2.8697,-2.8773,0.0,-1.9219,0.0,-1.9292,-1.9292,-1.9439,-1.982,-2.0126,-2.0444,-2.0851,-2.2318,-2.3655,-2.4464,-2.6609,-2.8315,-2.9122,-2.969,-2.9591,-2.8589,-2.7246,-2.6337,-2.5937,-2.547,-2.6122,-2.796,-2.9436,-3.0801,-3.1953,-3.2656,-3.3582,-3.4715,-3.4715,-3.5191,-3.5971,-3.5971,-3.5802,-3.5363,-3.3917,-3.2974,-3.2386,-3.0756,-3.0033,-2.9658,0.0,0.0,0.0,0.0,0.0,0.0,0.0,0.0,0.0,0.0,0.0,0.0,0.0,0.0,0.0,0.0,0.0,0.0,0.0,0.0,0.0,0.0,0.0,0.0,0.0,0.0,0.0,0.0,0.0,0.0,0.0,0.0,0.0,0.0,-3.6741,-3.8387,-3.6952,-3.9674,-4.0519,-3.748,-3.8208,-3.8798,-3.8697,-3.8906,-3.9217,-3.9512,-3.9756,-3.9752,-3.9516,-3.9682,-3.9406,-3.8786,-3.8786,-3.8398,-3.7488,-3.7343,-3.6949,-3.6328,-3.5542,-3.4776,-3.4051,-3.3575,-3.3141,-3.2669,-3.2669,-3.2483,-3.2112,-3.1091,-3.0594,-3.0367,-2.9601,-2.9157,-2.8888,-1.8705,-1.9036,-1.9292,-1.9292,-1.9292,-1.9439,-1.9879,-2.0223,-2.0814,-2.1595,-2.2785,-2.4354,-2.6371,-2.771,-2.9085,-3.0644,-3.0057,-2.9554,-2.9446,-2.7339,-2.6072,-2.5956,-2.6633,-2.7558,-2.8584,-3.0509,-3.1973,-3.2832,-3.3223,-3.3437,-3.3437,-3.3437,-3.3418,-3.3418,-3.3418,-3.3418,-3.3398,-3.3008,-3.3011,-3.3148,-3.1253,-3.0758,-3.0721,0.0,0.0,0.0,0.0,0.0,0.0,0.0,0.0,0.0,0.0,0.0,0.0,0.0,0.0,0.0,0.0,0.0,0.0,0.0,0.0,0.0,0.0,0.0,0.0,0.0,0.0,0.0,0.0,0.0,0.0,0.0,0.0,0.0,-3.4298,-3.7663,-3.9543,-3.8064,-4.1711,-4.2566,-3.8157,-3.9693,-4.0378,-3.8984,-4.0651,-4.1259,-4.029,-4.2021,-4.2398,-4.0954,-4.0448,-3.9785,-3.8807,-3.8786,-3.8378,-3.7467,-3.7011,-3.6784,-3.6701,-3.5417,-3.4546,-3.4069,-3.3555,-3.312,-3.2669,-3.2669,-3.2669,-3.2628,-3.2173,-3.1774,-3.1319,-3.0864,-2.9995,-2.8971,-1.8705,-1.9036,-1.9292,-1.9292,-1.9292,-1.9589,-2.0495,-2.0531,-2.0949,-2.225,-2.3846,-2.5307,-2.6463,-2.8462,-3.0002,-3.0717,-3.0314,-2.9978,-2.9855,-2.7752,-2.6641,-2.6768,-2.7872,-2.9236,-3.0698,-3.1558,-3.2559,-3.373,-3.3516,-3.3574,-3.3887,-3.3574,-3.3418,-3.3418,-3.3418,-3.3418,-3.3437,-3.3633,-3.3618,-3.3236,-3.1861,-3.1422,-3.1499,0.0,0.0,0.0,0.0,0.0,0.0,0.0,0.0,0.0,0.0,0.0,0.0,0.0,0.0,0.0,0.0,0.0,0.0,0.0,0.0,0.0,0.0,0.0,0.0,0.0,0.0,0.0,0.0,0.0,0.0,0.0,-3.2942,-3.4715,-3.6091,-3.8121,-3.964,-4.0032,-4.139,-4.1859,-4.0647,-4.1389,-4.1456,-4.0365,-4.1163,-4.1331,-4.0717,-4.1226,-4.1289,-4.0954,-4.0427,-3.993,-3.9282,-3.8951,-3.8233,-3.6991,-3.6867,-3.6287,-3.5355,-3.465,-3.4069,-3.3534,-3.3099,-3.2851,-3.2669,-3.2669,-3.2669,-3.2628,-3.2173,-3.1774,-3.1319,-3.0864,-2.9869,-2.8594,-1.8229,-1.8797,-1.9277,-1.919,-1.9222,-1.9648,-2.0685,-2.0647,-2.1059,-2.2594,-2.4306,-2.5571,-2.5986,-2.8387,-2.9836,-2.9493,-2.9726,-2.9619,-2.9037,-2.7751,-2.7214,-2.7736,-2.9297,-3.0738,-3.1892,-3.2825,-3.3594,-3.4336,-3.4082,-3.4004,-3.4062,-3.3809,-3.3594,-3.3418,-3.3418,-3.3418,-3.3437,-3.3691,-3.3652,-3.332,-3.2853,-3.2624,-3.2359,-3.0632,-3.0338,-3.0632,-2.961,-2.9692,-3.0163,-2.9445,0.0,0.0,0.0,0.0,0.0,0.0,0.0,0.0,0.0,0.0,0.0,0.0,0.0,0.0,0.0,0.0,0.0,0.0,0.0,0.0,0.0,0.0,0.0,0.0,-3.4044,-3.5888,-3.7883,-3.85,-3.9404,-4.1276,-4.1056,-4.1053,-4.1835,-4.1606,-4.14,-4.1193,-4.1234,-4.1151,-4.0882,-4.0882,-4.0882,-4.0882,-4.0427,-3.9889,-3.9179,-3.8792,-3.7964,-3.6804,-3.6618,-3.6101,-3.5293,-3.4445,-3.3927,-3.3637,-3.2996,-3.2669,-3.2669,-3.2669,-3.2669,-3.2628,0.0,0.0,0.0,0.0,-2.9558,-2.8431,-1.7642,-1.843,-1.913,-1.9047,-1.9134,-1.9552,-2.0486,-2.0442,-2.0916,-2.2527,-2.4031,-2.4969,-2.5086,-2.7446,-2.8585,-2.7439,-2.8324,-2.8425,-2.7362,-2.7326,-2.7752,-2.8671,-3.0534,-3.1907,-3.2614,-3.3966,-3.4719,-3.4785,-3.4785,-3.459,-3.4219,-3.416,-3.3945,-3.3555,-3.3516,-3.3496,-3.3496,-3.3496,-3.3476,-3.3457,-3.3945,-3.3848,-3.3184,-3.0937,-3.1025,-3.2136,-3.0526,-3.0263,-3.0703,-3.049,0.0,0.0,0.0,0.0,0.0,0.0,0.0,0.0,0.0,0.0,0.0,0.0,0.0,0.0,0.0,0.0,0.0,0.0,0.0,0.0,0.0,0.0,0.0,0.0,-3.5686,-3.7171,-3.9598,-3.8938,-3.9117,-4.1924,-4.0878,-4.0549,-4.2175,-4.1284,-4.0935,-4.1545,-4.1234,-4.0986,-4.0882,-4.0882,0.0,0.0,0.0,-3.9695,-3.8869,-3.844,-3.7715,-3.6804,-3.639,-3.6101,-3.5914,-3.4652,-3.409,-3.3948,-3.3099,-3.2669,-3.2669,-3.2669,-3.2607,-3.254,-3.207,-3.1692,-3.1174,-2.9917,-2.9042,-2.845,-1.799,-1.8155,-1.8522,-1.913,-1.9019,-1.8934,-1.9283,-1.9379,-1.9939,-2.1483,-2.2045,-2.2792,-2.4207,-2.5177,-2.5698,-2.5672,-2.5863,-2.5805,-2.5285,-2.6325,-2.7523,-2.8867,-3.0482,-3.2112,-3.3796,-3.4459,-3.492,-3.5254,-3.5254,-3.5215,-3.5137,-3.4746,-3.4531,-3.4434,-3.4101,-3.3945,-3.3945,-3.3945,-3.375,-3.3496,-3.4258,-3.4121,-3.3398,-3.3262,-3.3211,-3.308,-3.2391,-3.267,-3.315,-3.174,-3.1664,-3.1902,-3.0204,-2.9399,0.0,0.0,0.0,0.0,0.0,0.0,0.0,0.0,0.0,0.0,0.0,0.0,0.0,0.0,0.0,0.0,0.0,0.0,0.0,-3.5375,-3.7093,-3.8739,-4.0567,-4.0066,-4.0097,-4.16,-4.152,-4.1534,-4.2263,-4.2673,-4.2588,-4.1648,-4.1908,-4.1669,-4.0924,-4.0882,-4.0882,-4.0882,-4.0096,-3.953,-3.9344,-3.8605,-3.7715,-3.6804,-3.6722,0.0,-3.5065,-3.4362,-3.3865,-3.3472,-3.2954,-3.2669,-3.2669,-3.2669,-3.2292,-3.1629,-3.1547,-3.1215,-3.0657,-2.9301,-2.8714,-2.8428,-1.7934,-1.834,-1.8817,-1.9253,-1.9116,-1.9003,-1.9094,-1.8943,-1.9178,-2.0012,-2.054,-2.1081,-2.1629,-2.2814,-2.3342,-2.2772,-2.3456,-2.4113,-2.4532,-2.5625,-2.6872,-2.8353,-2.9742,-3.1193,-3.2657,-3.3702,-3.4383,-3.4815,-3.5394,-3.5605,-3.5391,-3.5156,-3.4922,-3.4687,-3.4473,-3.4277,-3.4082,-3.4082,-3.3828,-3.3476,-3.4121,-3.4121,-3.3789,-3.4219,-3.4121,-3.375,-3.375,-3.375,-3.3613,-3.2754,-3.2471,-3.2295,-3.0977,-3.018,-2.9259,0.0,0.0,0.0,0.0,0.0,0.0,0.0,0.0,0.0,0.0,0.0,0.0,0.0,0.0,-3.0605,-3.1894,0.0,-3.5351,-3.7305,-3.8535,-3.9684,-4.0991,-4.0621,-4.0676,-4.1931,-4.1314,-4.1153,-4.2216,-4.2174,-4.1874,-4.1645,-4.183,-4.1636,-4.0924,-4.1089,-4.111,-4.0882,-4.0013,-3.9468,-3.9468,-3.8398,-3.7488,-3.6804,-3.6577,-3.5976,-3.5086,-3.4631,-3.4155,-3.3699,-3.3244,-3.2934,-3.2669,-3.2669,-3.2188,-3.1381,-3.1381,-3.0946,-3.0263,-2.9559,-2.8899,-2.8346,-1.7797,-1.8638,-1.9286,-1.924,-1.9291,-1.9231,-1.9128,-1.8718,-1.8574,-1.8859,-1.9288,-1.9512,-1.9273,-2.0656,-2.113,-2.0023,-2.1403,-2.2704,-2.3799,-2.5058,-2.6419,-2.7731,-2.9103,-3.048,-3.1782,-3.2787,-3.3767,-3.4719,-3.5394,-3.5646,-3.5508,-3.5508,-3.5312,-3.4961,-3.4863,-3.4648,-3.4316,-3.4238,-3.3945,-3.3594,-3.4023,-3.4101,-3.4004,-3.4512,-3.4492,-3.4219,-3.4492,-3.4023,-3.3301,-3.3301,-3.2734,-3.1934,-3.1328,-3.0586,-2.9609,-2.7891,-2.7266,0.0,0.0,0.0,0.0,0.0,0.0,0.0,0.0,-2.8008,-2.8711,-3.0781,-3.1973,-3.3184,-3.5,-3.6113,-3.7363,-3.916,-3.9844,-4.0391,-4.1074,-4.0879,-4.0973,-4.1902,-4.0853,-4.0654,-4.2116,-4.1404,-4.1029,-4.1536,-4.1549,-4.129,-4.0833,-4.1131,-4.1183,-4.0811,-3.9943,-3.9468,-3.9468,-3.8274,-3.7343,-3.6804,-3.6432,-3.5956,-3.5397,-3.4962,-3.4567,-3.409,-3.3492,-3.3058,-3.2669,-3.2669,-3.2188,-3.1381,-3.1381,-3.0822,-2.9973,-2.9787,-2.9096,-2.8266,-1.8067,-1.8712,-1.9221,-1.905,-1.9164,-1.914,-1.8718,-1.8216,-1.8176,-1.8891,-1.8053,-1.7905,-1.9285,-1.9037,-1.8783,-1.8964,-2.0118,-2.1138,-2.176,-2.4458,-2.6487,-2.7496,-2.9545,-3.1671,-3.3821,-3.2843,-3.3642,-3.6452,-3.5172,-3.5016,-3.5957,-3.5957,-3.5918,-3.5859,-3.5488,-3.5293,-3.5215,-3.4805,-3.4394,-3.4043,-3.4453,-3.418,-3.3594,-3.4394,-3.4668,-3.459,-3.4258,-3.3594,-3.2871,-3.2871,-3.2305,-3.1641,-3.1934,-3.1699,-3.0957,-2.9219,-2.8184,-2.7258,-2.5517,-2.5145,-2.5791,-2.7949,-2.7969,-2.8511,0.0,-3.2656,-3.2656,-3.4453,-3.5801,-3.6836,-3.7461,-3.8594,-3.9668,-4.0273,-4.0742,-4.1055,-4.1172,-4.1133,-4.1054,-4.0778,-4.0831,-4.1178,-4.179,-4.2019,-4.2008,-4.1686,-4.1358,-4.0989,-4.0484,-4.0431,-4.0443,-4.0382,-3.9803,-3.9468,-3.9468,-3.8585,-3.7674,-3.6804,-3.6763,-3.6266,-3.5397,-3.4962,-3.4567,-3.4031,-3.3161,-3.2768,-3.2669,-3.2669,-3.2188,-3.1381,-3.1381,-3.0822,-2.9891,-2.9063,-2.8661,-2.8454,-1.8263,-1.9006,-1.9582,-1.945,-1.9525,-1.9461,-1.8939,-1.8076,-1.7513,-1.7545,-1.6595,-1.6335,-1.7432,-1.7518,-1.7619,-1.7717,-1.916,-2.0326,-2.1008,-2.3608,-2.5524,-2.6459,-2.791,-2.9335,-3.0703,-3.0905,-3.214,-3.4631,-3.4682,-3.5309,-3.6406,-3.6406,-3.6269,-3.6016,-3.584,-3.5625,-3.5391,-3.5176,-3.4707,-3.4082,-3.4258,-3.3965,-3.3437,-3.3555,-3.3437,-3.3242,-3.3301,-3.2773,0.0,-3.1758,-3.1269,-3.084,-3.1289,-3.0781,-2.9824,-2.8848,-2.8125,-2.7611,-2.707,-2.6953,-2.7324,-2.8906,-2.9414,-3.0215,-3.2754,-3.3437,-3.4101,-3.6094,-3.7519,-3.8613,-3.9316,-4.0098,-4.0703,-4.0879,-4.1055,-4.1172,-4.1172,-4.0957,-4.0644,-4.0215,-4.0073,-4.0246,-4.0953,-4.1158,-4.1147,-4.0988,-4.1013,-4.0888,-4.0326,-4.0801,-4.0936,-4.0668,-3.9873,-3.9468,-3.9468,-3.8647,-3.7715,-3.6804,-3.6804,-3.6328,-3.5418,-3.5231,-3.4755,-3.4069,-3.312,-3.2669,-3.2649,-3.2267,-3.1661,-3.11,-3.0833,-3.0339,-2.9723,-2.9508,-2.8961,-2.8346,-1.8421,-1.9129,-1.9748,-1.9771,-1.9947,-1.9942,-1.9529,-1.8559,-1.767,-1.7133,-1.629,-1.5908,-1.6284,-1.6779,-1.7059,-1.7059,-1.8626,-1.9861,-2.0644,-2.3063,-2.4806,-2.5758,-2.6909,-2.7946,-2.8964,-2.941,-3.0807,-3.3112,-3.3412,-3.4539,-3.6189,-3.6189,-3.6244,-3.6367,-3.6367,-3.6133,-3.5742,-3.5742,-3.5156,-3.4238,-3.4238,-3.3848,-3.3203,-3.2793,-3.2129,-3.1563,-3.1934,-3.1387,-3.041,-3.0098,-2.9531,-2.9082,-2.9785,-2.9336,-2.8516,-2.8203,-2.7734,-2.7454,-2.7832,-2.8105,-2.8555,-2.9668,-3.0762,-3.1894,-3.3047,-3.4082,-3.5293,-3.7109,-3.8301,-3.9297,-4.0176,-4.0703,-4.0996,-4.0996,-4.1094,-4.1172,-4.1172,-4.0703,-4.0195,-3.9766,-3.9316,-3.9238,-3.9746,-3.9951,-4.0215,-4.0548,-4.0724,-4.064,-4.05,-4.0976,-4.109,-4.074,-3.9943,-3.9406,-3.9282,-3.844,-3.7529,-3.6618,-3.6618,-3.6183,-3.5418,-3.5169,-3.4693,-3.4069,-3.312,-3.2669,-3.2628,-3.1871,-3.1309,-3.084,-3.0282,-2.9835,-2.9501,-2.9659,-2.9137,-2.8337,-1.852,-1.9004,-1.9434,-1.9844,-2.0273,-2.0566,-2.0566,-1.9805,-1.9039,-1.8511,-1.7686,-1.7063,-1.6875,-1.7135,-1.7279,-1.7279,-1.8462,-1.9633,-2.0558,-2.3043,-2.4874,-2.5744,-2.7453,-2.9103,-3.0608,-2.9194,-3.0006,-3.3112,-3.1276,-3.1889,-3.4954,-3.4954,-3.5811,-3.7266,-3.7266,-3.7031,-3.6641,-3.6641,-3.5879,-3.4687,-3.4687,-3.3926,-3.2773,-3.2344,-3.1192,-2.9707,-3.0117,-2.9199,-2.7826,-2.7826,-2.6914,-2.6094,-2.7363,-2.7787,-2.7748,-2.7748,-2.709,-2.6523,-2.6934,-2.7656,-2.8711,-3.043,-3.2109,-3.3574,-3.4453,-3.5644,-3.6836,-3.7734,-3.8281,-3.8867,-3.9746,-4.0254,-4.0547,-4.0547,-4.0898,-4.1172,-4.1172,-4.0449,-3.9746,-3.9277,-3.8848,-3.8437,-3.8047,-3.873,-3.972,-4.1019,-4.0306,-4.023,-4.1076,-4.0582,-4.033,-4.031,-3.9803,-3.9261,-3.8807,-3.7964,-3.7053,-3.6121,-3.6121,-3.5894,-3.5397,-3.4507,-3.4152,-3.4069,-3.312,-3.2669,-3.2628,-3.1871,-3.1309,-3.084,-3.0086,-2.9534,-2.9132,-2.9132,-2.8879,-2.8495,-1.9043,-1.9648,-2.0214,-2.0332,-2.0723,-2.0918,-2.0644,-1.9863,-1.9319,-1.9434,-1.8564,0.0,0.0,0.0,0.0,0.0,-1.8855,-1.9941,-2.0085,-2.2468,-2.4202,-2.5002,-2.6779,-2.8161,-2.8851,-2.8527,-2.9518,-3.1918,-3.1033,-3.2067,-3.49,-3.4954,-3.5698,-3.6894,-3.7168,-3.707,-3.666,-3.6367,-3.5976,-3.5469,-3.4316,-3.3769,-3.3437,-3.1562,-3.0137,-2.9004,0.0,-2.7109,-2.6348,-2.6035,-2.5712,-2.543,-2.6152,-2.6172,-2.5986,-2.5986,-2.6613,-2.7324,-2.7754,-2.9121,-3.0703,-3.1875,-3.3223,-3.4434,-3.5019,-3.5937,-3.6758,-3.7031,-3.6973,-3.6973,-3.7266,-3.7676,-3.8144,-3.8711,-3.9648,-4.0527,-4.1094,-4.0684,-3.9941,-3.8906,-3.8398,-3.7871,-3.7168,-3.7851,-3.8667,-3.9401,-3.9129,-3.9208,-3.9812,-3.9895,-3.9809,-3.9505,-3.9009,-3.8389,-3.7658,-3.6831,-3.5936,-3.5041,-3.4616,-3.4369,-3.4205,-3.3827,-3.3617,-3.3555,-3.2664,-3.2158,-3.1907,-3.0837,-3.0213,-2.9848,-2.9266,-2.8953,-2.8887,-2.9026,-2.8854,-2.8442,0.0,-2.0233,-2.0664,-2.0781,-2.1055,0.0,0.0,0.0,0.0,0.0,0.0,0.0,0.0,0.0,0.0,0.0,0.0,-1.9356,-1.9426,-2.1291,-2.2784,-2.3676,-2.5125,-2.612,-2.6559,-2.6778,-2.7537,-2.8935,-2.8892,-3.0139,-3.2614,-3.2877,-3.3961,-3.5735,-3.6004,-3.6166,-3.6191,-3.5918,-3.5351,-3.4551,-3.3418,-3.2578,-3.1816,-3.0156,-2.8789,0.0,-2.6367,-2.5547,-2.5,-2.4707,-2.4512,-2.4453,-2.4902,-2.5059,-2.5184,-2.5449,-2.671,-2.8086,-2.8984,-3.0566,-3.2187,-3.3047,-3.3984,-3.4824,-3.5293,-3.5566,-3.5781,-3.5937,-3.5508,-3.5098,-3.5098,-3.5566,-3.6152,-3.668,-3.7871,-3.9101,-4.0098,-3.9863,-3.9453,-3.9082,-3.8516,-3.7891,-3.7187,-3.7598,-3.8119,-3.8537,-3.8675,-3.8871,-3.9154,-3.9349,-3.9292,-3.892,-3.8246,-3.7582,-3.6857,-3.5811,-3.4909,-3.4022,-3.3639,-3.3475,-3.3455,-3.3184,-3.2994,-3.281,-3.2014,-3.1493,-3.1101,-2.9937,-2.9439,-2.9357,-2.8621,-2.843,-2.8568,-2.8761,-2.8456,-2.795,0.0,0.0,-2.0742,0.0,0.0,0.0,0.0,0.0,0.0,0.0,0.0,0.0,0.0,0.0,0.0,0.0,0.0,0.0,-1.8802,-1.9691,-2.0806,-2.2023,-2.2772,-2.3432,-2.4013,-2.4107,-2.4283,-2.454,-2.5207,-2.6459,-2.8333,-2.9093,-3.0952,-3.3748,-3.3766,-3.4331,-3.5195,-3.5176,-3.3984,-3.215,-3.2031,-3.0547,-2.8359,-2.8262,-2.7187,-2.5635,-2.5215,-2.4492,-2.3789,-2.3789,-2.3555,-2.3315,-2.3789,-2.4512,-2.5419,-2.6289,-2.7461,-2.8828,-3.0527,-3.1934,-3.3125,-3.3906,-3.4414,-3.4844,-3.5254,-3.4668,-3.4141,-3.4492,-3.3848,-3.3203,-3.3164,-3.3887,-3.4531,-3.4609,-3.582,-3.7187,-3.8496,-3.834,-3.8535,-3.9746,-3.916,-3.8457,-3.7969,-3.7949,-3.8073,-3.8462,-3.8898,-3.9102,-3.902,-3.907,-3.8849,-3.8366,-3.7501,-3.675,-3.6248,-3.5006,-3.392,-3.3055,-3.3135,-3.3115,-3.3115,-3.2651,-3.217,-3.1727,-3.1264,-3.0822,-3.0379,-2.9206,-2.8979,-2.9203,-2.8107,-2.7871,-2.8223,-2.8223,-2.7715,-2.7012,0.0,0.0,0.0,0.0,0.0,0.0,0.0,0.0,0.0,0.0,0.0,0.0,0.0,0.0,0.0,0.0,0.0,0.0,-1.9222,-2.007,-2.0605,-2.0691,-2.2551,-2.3551,-2.334,-2.4399,-2.4687,-2.4203,-2.4944,-2.6152,-2.7765,-2.8795,-3.0293,-3.2099,-3.2488,-3.2579,-3.248,-3.2168,-3.1719,-3.1133,-3.0137,-2.9551,-2.9101,-2.7832,-2.668,-2.5577,-2.4863,-2.4238,-2.3789,-2.3789,-2.4355,-2.5109,-2.5586,-2.6309,-2.7278,-2.8418,-2.9687,-3.0937,-3.2012,-3.3496,-3.4707,-3.457,-3.4883,-3.5156,-3.4922,-3.4199,-3.3437,-3.293,-3.1601,-3.0351,-2.9726,-3.084,-3.2285,-3.3535,-3.5918,-3.8164,-3.9805,-4.0215,-4.0234,-3.9941,-3.9687,-3.9121,-3.8027,-3.8223,-3.8216,-3.7642,-3.7994,-3.819,-3.8216,-3.8216,-3.7724,-3.6661,-3.6091,-3.5284,-3.4182,-3.2883,-3.1978,-3.1505,-3.1681,-3.1779,-3.1759,-3.1552,-3.1405,-3.1244,-3.048,-2.9968,-2.9624,-2.8694,-2.8239,-2.8088,-2.7434,-2.7246,-2.7344,-2.7344,-2.7207,-2.6973,0.0,0.0,0.0,0.0,0.0,0.0,0.0,0.0,0.0,0.0,0.0,0.0,0.0,0.0,0.0,0.0,0.0,0.0,0.0,-2.0197,-2.0457,-2.0409,-2.1703,-2.2375,-2.2249,-2.3214,-2.3502,-2.3072,-2.3965,-2.4778,-2.5608,-2.6591,-2.7817,-2.9164,-2.9449,-2.9738,-3.0098,-2.9844,-2.9434,0.0,0.0,-2.75,-2.6953,-2.6172,-2.5469,-2.4824,-2.4316,-2.4238,-2.4434,-2.5019,-2.582,-2.6699,-2.7305,-2.8223,-2.9297,-3.0448,-3.1621,-3.2793,-3.3457,-3.4766,-3.584,-3.5391,-3.5176,-3.4922,-3.4277,-3.3184,-3.2012,-3.0957,-2.9668,-2.8535,-2.7851,-2.9141,-3.0684,-3.1816,-3.4531,-3.7109,-3.8867,-3.9805,-4.0351,-4.0449,-4.0293,-3.9805,-3.8887,-3.8828,-3.8496,-3.7637,-3.7793,-3.7773,-3.7402,-3.7187,-3.668,-3.5781,-3.4961,-3.3906,-3.2598,-3.1875,-3.1309,-3.0898,-3.1054,-3.1112,-3.1092,-3.0811,-3.0608,-3.0389,-2.9714,-2.9189,-2.8863,-2.8193,-2.7813,-2.7669,-2.7187,-2.7012,-2.7012,-2.7012,-2.6894,-2.6699,0.0,0.0,0.0,0.0,0.0,0.0,0.0,0.0,0.0,0.0,-2.1987,-2.1872,-2.1872,-2.1096,0.0,0.0,0.0,0.0,0.0,0.0,-2.0554,-2.0695,-2.0852,-2.0977,-2.1227,-2.1744,-2.1916,-2.1622,-2.269,-2.3166,-2.3078,-2.3793,-2.4787,-2.5969,-2.5969,-2.6627,-2.7773,-2.7773,-2.7109,-2.6055,-2.6113,-2.5195,-2.3848,0.0,-2.4238,-2.3887,-2.3945,-2.4394,-2.5215,-2.668,-2.7559,-2.8144,-2.9004,-3.0215,-3.1484,-3.2344,-3.3418,-3.4434,-3.4922,-3.5879,-3.6641,-3.6152,-3.5351,-3.4453,-3.3476,-3.1934,-3.0351,-2.9023,-2.8086,-2.7363,-2.6914,-2.8203,-2.9551,-3.0254,-3.2754,-3.5293,-3.7266,-3.8555,-3.9746,-4.0937,-4.0762,-4.0332,-3.9844,-3.9434,-3.8848,-3.7988,-3.7812,-3.7422,-3.6621,-3.623,-3.5723,-3.5078,-3.3887,-3.2676,-3.1445,-3.1426,-3.125,-3.0898,-3.0898,-3.0898,-3.0879,-3.0351,-2.9922,-2.9607,-2.9043,-2.8633,-2.8262,-2.7773,-2.763,-2.7591,-2.7031,-2.6855,-2.6855,-2.6855,-2.6621,-2.6309,0.0,0.0,0.0,0.0,0.0,0.0,0.0,0.0,0.0,0.0,-2.2872,-2.2862,0.0,0.0,0.0,0.0,0.0,0.0,0.0,0.0,0.0,-2.0759,-2.1547,-2.1771,-2.121,-2.2155,-2.2191,-2.1281,-2.2337,-2.2877,-2.2877,-2.3887,-2.4507,-2.4698,-2.4698,-2.4841,-2.5098,-2.5098,-2.4766,-2.4277,-2.4609,-2.4375,-2.3887,-2.4668,0.0,0.0,-2.4727,-2.4707,-2.4902,-2.7266,-2.8848,-2.9941,-3.0801,-3.2187,-3.3691,-3.457,-3.5234,-3.5859,-3.6641,-3.7012,-3.6992,-3.6211,-3.5351,-3.4297,-3.2734,-3.1055,-2.9434,-2.8144,-2.7207,-2.6484,-2.5986,-2.707,-2.8711,-3.0937,-3.291,-3.5273,-3.8437,-3.9394,-3.998,-4.0566,-4.0566,-4.0215,-3.9394,-3.9258,-3.8848,-3.7988,-3.7285,-3.666,-3.6152,-3.6055,-3.5176,-3.3301,-3.2695,-3.1934,-3.1016,-3.0996,-3.0957,-3.0898,-3.0898,-3.0898,-3.0859,-3.0059,-2.9704,-2.9587,-2.875,-2.8359,-2.8242,-2.7461,-2.7129,-2.7051,-2.622,-2.5908,-2.5908,-2.5908,-2.5869,-2.581,0.0,0.0,0.0,0.0,0.0,0.0,0.0,-2.2637,-2.3462,-2.4244,-2.4323,-2.412,-2.3535,-2.3477,-2.3555,0.0,0.0,0.0,0.0,0.0,0.0,-2.1988,-2.2438,-2.2576,-2.2217,-2.2943,-2.2943,-2.2172,0.0,-2.3172,-2.2964,-2.348,-2.3705,-2.3705,-2.3705,-2.3705,-2.3705,-2.3705,-2.3588,-2.3496,-2.3926,-2.3965,-2.3867,0.0,0.0,0.0,-2.4648,-2.4883,-2.5371,-2.7051,-2.8633,-3.0156,-3.1699,-3.3203,-3.457,-3.5469,-3.6172,-3.6777,-3.7187,-3.7461,-3.7422,-3.6562,-3.5527,-3.4141,-3.1992,-3.0332,-2.875,-2.7012,-2.6328,-2.5996,-2.5732,-2.6797,-2.8198,-2.9609,-3.166,-3.4043,-3.6836,-3.7988,-3.8965,-4.0059,-3.9785,-3.9336,-3.8926,-3.8476,-3.7851,-3.6992,-3.6562,-3.623,-3.6035,-3.5156,-3.3984,-3.2519,-3.2051,-3.1523,-3.0898,-3.0898,-3.0898,-3.0898,-3.0898,-3.0898,-3.0859,-2.998,-2.9626,-2.9531,-2.8672,-2.8301,-2.8262,-2.7851,-2.7422,-2.6973,-2.6562,-2.6083,-2.5693,-2.5693,-2.5693,-2.5654,0.0,0.0,0.0,0.0,0.0,0.0,-2.2441,-2.3242,-2.4232,-2.5382,-2.5468,-2.5098,-2.4323,-2.4167,-2.4153,0.0,0.0,0.0,0.0,0.0,0.0,0.0,0.0,0.0,-2.3101,0.0,0.0,-2.3237,-2.3711,0.0,0.0,0.0,0.0,0.0,-2.3101,-2.3101,-2.3101,-2.3101,-2.3101,0.0,0.0,-2.3789,-2.3848,0.0,0.0,0.0,0.0,-2.5031,-2.5742,-2.6699,-2.7851,-2.9258,-3.1309,-3.3105,-3.459,-3.5488,-3.6406,-3.7207,-3.7383,-3.7734,-3.7832,-3.6914,-3.5684,-3.4004,-3.1348,-2.9726,-2.8203,-2.6103,-2.5693,-2.5693,-2.5693,-2.6562,-2.748,-2.8184,-3.0078,-3.2363,-3.4883,-3.6269,-3.7676,-3.9414,-3.9082,-3.8633,-3.8457,-3.7734,-3.6953,-3.6094,-3.5762,-3.5605,-3.5605,-3.4121,-3.2949,-3.2187,-3.1738,-3.1328,-3.0898,-3.0898,-3.0898,-3.0898,-3.0898,-3.0898,-3.0859,-2.998,-2.9626,-2.9531,-2.8672,-2.8301,-2.8281,-2.8203,-2.7715,-2.7012,-2.6914,-2.6406,-2.5693,-2.5693,-2.5693,-2.5635,0.0,0.0,0.0,0.0,0.0,0.0,-2.2441,-2.3242,-2.4238,-2.5508,-2.538,-2.5243,-2.5527,-2.5433,-2.5337,0.0,0.0,0.0,0.0,0.0,0.0,0.0,0.0,0.0,0.0,0.0,0.0,-2.373,-2.416,0.0,0.0,0.0,0.0,0.0,0.0,-2.3101,-2.3101,-2.3101,0.0,0.0,0.0,0.0,0.0,0.0,0.0,0.0,0.0,-2.541,-2.5332,-2.6582,-2.6875,-2.6973,-2.873,-3.123,-3.3711,-3.457,-3.5723,-3.6894,-3.7656,-3.8184,-3.8223,-3.6992,-3.5684,-3.3926,-3.0918,-2.9297,-2.7851,-2.6044,-2.5693,-2.5693,-2.5693,-2.5791,-2.6426,-2.8027,-2.8809,-3.0508,-3.4238,-3.5566,-3.6777,-3.8496,-3.8965,-3.8828,-3.8066,-3.7559,-3.6953,-3.6094,-3.4922,-3.4258,-3.4258,-3.3359,-3.2637,-3.2187,-3.1738,-3.1328,-3.0898,-3.0898,-3.0898,-3.0898,-3.0898,-3.0898,-3.0859,-2.998,-2.9626,-2.9531,-2.8672,-2.8301,-2.8262,-2.7943,-2.7441,-2.6973,-2.6602,-2.6152,-2.5693,-2.5693,-2.5693,-2.5674,0.0,0.0,0.0,0.0,0.0,0.0,-2.2441,-2.3242,-2.4447,-2.6162,-2.6202,-2.6458,-2.7271,-2.6953,-2.626,-2.5326,-2.4996,0.0,0.0,0.0,0.0,0.0,0.0,0.0,0.0,0.0,-2.3906,-2.416,-2.4336,0.0,0.0,0.0,0.0,0.0,0.0,-2.3335,-2.3101,-2.3101,0.0,0.0,0.0,0.0,0.0,0.0,0.0,0.0,0.0,0.0,-2.5508,-2.5762,-2.6094,-2.6504,-2.7187,-2.8574,-3.0371,-3.2539,-3.4473,-3.6094,-3.6934,-3.7851,-3.834,-3.7305,-3.5684,-3.3672,-3.1191,-2.9219,-2.75,-2.5986,-2.5693,-2.5693,-2.5693,-2.5693,-2.6005,-2.6992,-2.75,-2.8769,-3.1621,-3.2539,-3.3867,-3.6367,-3.6562,-3.6562,-3.6758,-3.6406,-3.5781,-3.4922,-3.4121,-3.3574,-3.332,-3.2734,-3.2226,-3.1797,-3.1367,-3.1055,-3.0898,-3.0898,-3.0898,-3.0898,-3.0898,-3.0742,-3.0449,-2.9844,-2.9434,-2.9141,-2.8555,-2.8301,-2.8281,-2.8105,-2.7637,-2.6992,-2.6836,-2.6348,-2.5693,-2.5693,-2.5693,-2.5654,0.0,0.0,0.0,0.0,0.0,-2.207,-2.2617,-2.3418,-2.4643,-2.6448,-2.6665,-2.7102,-2.8129,-2.7558,-2.6684,-2.5752,-2.5341,0.0,0.0,0.0,0.0,0.0,0.0,0.0,0.0,0.0,-2.4375,-2.4758,-2.4941,-2.4941,0.0,0.0,-2.4434,-2.3789,0.0,0.0,0.0,0.0,0.0,0.0,0.0,0.0,0.0,0.0,0.0,0.0,0.0,0.0,0.0,0.0,0.0,-2.6191,-2.6191,-2.6699,-2.7885,-3.0586,-3.2851,-3.4687,-3.5781,-3.7031,-3.7832,-3.7109,-3.5293,-3.3164,-3.1152,-2.9023,-2.7148,-2.5927,-2.5693,-2.5693,-2.5693,-2.5693,-2.5791,-2.6152,-2.666,-2.7676,-2.9534,-3.0449,-3.1816,-3.4316,-3.4453,-3.4609,-3.5371,-3.5176,-3.4687,-3.3945,-3.3594,-3.3184,-3.2637,-3.2324,-3.1973,-3.1523,-3.1113,-3.0898,-3.0898,-3.0898,-3.082,-3.0684,-3.0684,-3.0449,-3.0,-2.957,-2.9199,-2.8906,-2.8476,-2.8223,-2.8105,-2.8105,-2.7598,-2.6836,-2.6836,-2.6387,-2.5693,-2.5693,-2.5693,-2.5635,0.0,0.0,0.0,0.0,0.0,-2.2168,-2.2964,-2.3822,-2.4883,-2.6211,-2.6387,-2.6719,-2.763,-2.6914,-2.6562,-2.6953,-2.582,0.0,0.0,0.0,0.0,0.0,0.0,0.0,-2.4414,-2.4844,-2.5273,-2.5674,-2.6152,-2.6152,-2.5674,-2.5674,-2.5039,-2.3789,0.0,0.0,0.0,0.0,0.0,0.0,0.0,0.0,0.0,0.0,0.0,0.0,0.0,0.0,0.0,0.0,0.0,0.0,0.0,-2.6055,-2.6816,-2.8965,-3.084,-3.2578,-3.4258,-3.5684,-3.6582,-3.6152,-3.4414,-3.2344,-3.0605,-2.8555,-2.6777,-2.5869,-2.5693,-2.5693,-2.5693,-2.5693,-2.5693,-2.5693,-2.6415,-2.7461,-2.875,-3.0059,-3.1367,-3.2676,-3.3184,-3.3613,-3.4043,-3.4082,-3.3906,-3.3457,-3.3418,-3.3066,-3.2226,-3.2229,-3.1973,-3.1523,-3.1113,-3.0898,-3.0898,-3.0898,-3.0664,-3.0195,-3.0195,-2.998,-2.957,-2.9121,-2.8926,-2.8906,-2.8476,-2.8066,-2.7728,-2.7728,-2.7168,-2.6387,-2.6387,-2.6133,-2.5693,-2.5693,-2.5693,-2.5693,0.0,0.0,0.0,0.0,0.0,0.0,-2.2676,-2.314,-2.4004,-2.5312,-2.5488,-2.5937,-2.709,-2.6973,-2.6875,-2.7012,-2.582,0.0,0.0,0.0,0.0,0.0,0.0,-2.457,-2.5245,-2.5156,-2.543,-2.6191,-2.6328,-2.6465,-2.6602,-2.6328,-2.5801,-2.5117,-2.4805,-2.4258,0.0,0.0,0.0,0.0,0.0,0.0,-2.5693,0.0,0.0,0.0,0.0,0.0,0.0,0.0,0.0,0.0,0.0,0.0,0.0,-2.7109,-2.9023,-3.0937,-3.1484,-3.2793,-3.3848,-3.3125,-3.1758,-3.0293,-2.916,-2.7695,-2.6426,-2.581,-2.5977,-2.6094,-2.5752,-2.5977,-2.6367,-2.6953,-2.7285,-2.7793,-2.8789,-2.9785,-3.0781,-3.1797,-3.3066,-3.3926,-3.4062,-3.3809,-3.3574,-3.3437,-3.3164,-3.2754,-3.2268,-3.1894,-3.1523,-3.1094,-3.0957,-3.0898,-3.0898,-3.0566,-3.0351,-3.0195,-2.9902,-2.9551,-2.9121,-2.8984,-2.8613,-2.8047,-2.793,-2.7617,-2.7226,-2.7226,-2.6894,-2.6387,-2.6387,-2.6113,-2.5693,-2.5693,-2.5693,-2.5693,0.0,0.0,0.0,0.0,0.0,0.0,-2.327,-2.391,-2.4819,-2.6002,-2.6166,-2.6737,-2.8268,-2.8145,-2.7995,-2.8093,-2.7467,0.0,0.0,0.0,0.0,0.0,-2.4805,-2.5,-2.5674,-2.5625,-2.5918,-2.6621,-2.6953,-2.7168,-2.7266,-2.7148,-2.6621,-2.5674,-2.5449,-2.4844,0.0,0.0,0.0,0.0,0.0,0.0,-2.5693,0.0,0.0,0.0,0.0,0.0,0.0,0.0,0.0,0.0,0.0,0.0,0.0,0.0,-2.7383,-2.8906,-2.9551,-3.0742,-3.168,-3.1152,-3.0039,-2.8906,-2.8223,-2.707,-2.6055,-2.5752,-2.5908,-2.6055,-2.5732,-2.5957,-2.6328,-2.6855,-2.7207,-2.7656,-2.834,-2.9453,-3.0527,-3.1406,-3.2734,-3.3535,-3.3379,-3.3398,-3.3359,-3.3203,-3.2949,-3.2539,-3.1953,-3.166,-3.125,-3.0644,-3.0625,-3.0547,-3.0391,-3.0098,-2.9883,-2.9707,-2.9453,-2.9101,-2.8672,-2.8672,-2.832,-2.7728,-2.7728,-2.7324,0.0,-2.6777,-2.6523,-2.6133,-2.6133,-2.5977,-2.5693,-2.5693,-2.5693,-2.5693,0.0,0.0,0.0,0.0,0.0,0.0,0.0,-2.5444,-2.6563,-2.7471,-2.7623,-2.8337,-3.0203,-2.9753,-2.9428,-2.9673,-2.9963,0.0,0.0,0.0,0.0,-2.5223,-2.5184,-2.5332,-2.5732,-2.6191,-2.6602,-2.707,-2.7851,-2.8066,-2.7767,-2.8086,-2.7383,-2.5771,-2.5752,-2.5293,0.0,0.0,0.0,0.0,-2.5566,-2.5693,0.0,0.0,0.0,0.0,0.0,0.0,0.0,0.0,0.0,0.0,0.0,0.0,0.0,0.0,0.0,0.0,0.0,-2.9297,-2.9922,-2.9883,-2.8984,-2.8008,-2.7617,-2.6602,0.0,-2.5693,-2.5713,-2.5732,-2.5732,-2.5732,-2.5752,-2.581,-2.6562,-2.7246,-2.7748,-2.9219,-3.0625,-3.1504,-3.2344,-3.2676,-3.2246,-3.293,-3.3223,-3.2832,-3.2734,-3.2363,-3.1562,-3.1465,-3.1035,-3.0176,-3.0117,-2.9941,-2.957,-2.9607,-2.9316,-2.8926,-2.8887,-2.8672,-2.8301,-2.8262,-2.8027,-2.7669,-2.765,-2.7109,-2.6348,-2.6348,-2.6094,-2.5693,-2.5693,-2.5693,-2.5693,-2.5693,-2.5674,-2.5635,0.0,0.0,0.0,0.0,0.0,0.0,0.0,0.0,0.0,0.0,-2.5022,-2.5524,-2.6335,-2.7111,-2.7612,0.0,0.0,0.0,0.0,0.0,0.0,-2.6123,-2.5762,-2.5781,-2.623,-2.6328,-2.6758,-2.7571,-2.7715,-2.793,-2.8144,-2.791,-2.7422,-2.6699,-2.6367,-2.5742,0.0,0.0,0.0,0.0,-2.5566,-2.5693,0.0,0.0,0.0,0.0,-2.5693,-2.5693,0.0,0.0,0.0,0.0,0.0,0.0,0.0,0.0,-2.5752,-2.5927,-2.6317,0.0,-2.7207,-2.6875,-2.6512,-2.6309,0.0,-2.5908,-2.5693,-2.5693,-2.5996,-2.623,-2.623,-2.623,-2.6445,-2.7109,-2.7656,-2.8144,-2.8574,-3.0117,-3.1523,-3.2402,-3.2949,-3.3105,-3.2695,-3.2832,-3.291,-3.2793,-3.2187,-3.1738,-3.1523,-3.0879,-3.0273,-2.9726,-2.9394,-2.9336,-2.9626,-2.9238,-2.9023,-2.8906,-2.8594,-2.8398,-2.8281,-2.7969,-2.7578,-2.7148,-2.6836,-2.6387,-2.5849,-2.5849,-2.5791,-2.5693,-2.5693,-2.5693,-2.5693,-2.5693,-2.5527,-2.5215,0.0,0.0,0.0,0.0,0.0,0.0,0.0,0.0,0.0,0.0,-2.5475,-2.5991,-2.6698,-2.7785,-2.8318,0.0,0.0,0.0,0.0,-2.8381,-2.7962,-2.6456,-2.6172,-2.6152,-2.6387,-2.6582,-2.6992,-2.7728,-2.8047,-2.8262,-2.8301,-2.8262,-2.7793,-2.6992,-2.6367,-2.582,0.0,0.0,0.0,0.0,-2.5596,0.0,0.0,0.0,0.0,0.0,-2.5693,-2.5693,0.0,-2.5977,-2.6035,-2.6035,0.0,0.0,0.0,0.0,-2.5693,-2.5693,-2.5693,-2.6055,-2.6328,-2.6094,-2.6035,-2.6035,-2.6035,-2.583,-2.5693,-2.5693,-2.5869,-2.6094,-2.6094,-2.625,-2.6543,-2.7012,-2.7773,-2.8711,-2.9941,-3.1094,-3.2129,-3.2988,-3.3281,-3.3262,-3.2832,-3.2793,-3.2637,-3.2246,-3.1777,-3.1426,-3.123,-3.0781,-3.0215,-2.9646,-2.9336,-2.9141,-2.8984,-2.875,-2.8633,-2.8633,-2.8203,-2.8008,-2.7988,-2.7559,-2.7129,-2.6719,-2.6484,-2.6133,-2.5693,-2.5693,-2.5693,-2.5693,-2.5693,-2.5693,-2.5674,-2.5508,-2.5273,-2.5086,0.0,0.0,0.0,0.0,0.0,0.0,0.0,0.0,0.0,0.0,0.0,0.0,0.0,0.0,0.0,0.0,0.0,0.0,0.0,-2.8822,-2.8391,-2.6671,-2.6465,-2.6445,-2.6582,-2.6797,-2.7187,-2.7806,-2.8535,-2.873,-2.8398,-2.8828,-2.8301,-2.6973,-2.6142,-2.5752,-2.5693,0.0,0.0,-2.5693,-2.5693,0.0,0.0,0.0,0.0,0.0,0.0,0.0,0.0,-2.6172,-2.6289,-2.6289,-2.6289,0.0,0.0,0.0,0.0,0.0,-2.5771,-2.6211,-2.6543,-2.6348,-2.6348,-2.6367,-2.6309,-2.5996,-2.5693,-2.5693,-2.5693,-2.5732,-2.5849,-2.623,-2.6523,-2.666,-2.7754,-2.9316,-3.1426,-3.2031,-3.25,-3.3144,-3.3281,-3.3144,-3.2656,-3.2598,-3.2305,-3.1562,-3.1465,-3.123,-3.082,-3.0723,-3.0312,-2.9492,-2.9414,-2.9023,-2.8301,-2.8301,-2.8301,-2.8281,-2.7871,-2.7728,-2.7708,-2.7148,-2.6719,-2.6387,-2.6309,-2.6074,-2.5693,-2.5693,-2.5693,-2.5693,-2.5693,-2.5693,-2.5635,-2.5234,-2.5067,-2.4902,0.0,0.0,0.0,0.0,0.0,0.0,0.0,0.0,0.0,0.0,0.0,0.0,0.0,0.0,0.0,0.0,0.0,0.0,0.0,-2.8382,-2.818,-2.7532,-2.6777,-2.6719,-2.7461,-2.6816,-2.7051,-2.8203,-2.8672,-2.8887,-2.8828,-2.9277,-2.8594,-2.6992,-2.6504,-2.6074,-2.5693,-2.5693,-2.5693,-2.5693,-2.5693,0.0,0.0,0.0,0.0,0.0,0.0,0.0,0.0,-2.5771,-2.5791,-2.5791,-2.5791,0.0,0.0,0.0,0.0,0.0,-2.6191,-2.6875,-2.7207,-2.6113,-2.6113,-2.6289,-2.5918,-2.5732,-2.5693,-2.5693,-2.5693,-2.5908,-2.668,-2.6875,-2.7148,-2.7891,-2.9062,-3.0527,-3.2344,-3.2656,-3.2617,-3.2383,-3.2676,-3.2578,-3.1797,-3.1719,-3.166,-3.1523,-3.1191,-3.0781,-3.0332,-2.9961,-2.9551,-2.9043,-2.8672,-2.8418,-2.8301,-2.8301,-2.8301,-2.8281,-2.7871,-2.7728,-2.7689,-2.6855,-2.6445,-2.6367,-2.5996,-2.5752,-2.5693,-2.5693,-2.5693,-2.5693,-2.5693,-2.5693,-2.5635,-2.5234,-2.4824,-2.4394,0.0,0.0,0.0,0.0,0.0,0.0,0.0,0.0,0.0,0.0,0.0,0.0,0.0,0.0,0.0,0.0,0.0,0.0,-2.793,-2.8164,-2.8203,-2.8008,-2.7402,-2.7266,-2.7708,-2.7337,-2.7695,-2.8984,-2.9414,-2.9746,-2.998,-2.9453,-2.8555,-2.7344,-2.668,-2.6269,-2.6074,-2.5791,-2.583,-2.6074,0.0,0.0,0.0,0.0,0.0,0.0,0.0,0.0,0.0,0.0,-2.6094,-2.6094,-2.6094,0.0,0.0,0.0,0.0,0.0,-2.5977,-2.6504,-2.6894,-2.6523,-2.6934,-2.7305,-2.6875,-2.6602,-2.6376,-2.6376,-2.6376,-2.6493,-2.6953,-2.7383,-2.8144,-2.9473,-3.0566,-3.1543,-3.2344,-3.2246,-3.2109,-3.2168,-3.2129,-3.1953,-3.1562,-3.1523,-3.1426,-3.1191,-3.0996,-3.0684,-3.0215,-3.0019,-2.9609,-2.8945,-2.873,-2.8516,-2.8301,-2.8066,-2.7949,-2.7949,-2.7285,-2.6973,-2.7004,-2.6328,-2.6035,-2.6035,-2.5771,-2.5693,-2.5693,-2.5693,-2.5693,-2.5693,-2.5693,-2.5586,-2.5293,-2.4629,-2.4102,-2.3627,0.0,0.0,0.0,0.0,0.0,0.0,0.0,0.0,0.0,0.0,0.0,0.0,0.0,0.0,0.0,0.0,0.0,0.0,-2.7708,-2.7969,-2.8184,-2.8281,-2.7891,-2.7806,-2.7949,-2.7871,-2.8437,-2.9726,-3.0254,-3.0684,-3.1016,-2.9785,-2.8711,-2.7826,-2.7031,-2.6621,-2.6504,-2.6074,-2.6133,-2.6484,0.0,0.0,0.0,0.0,0.0,0.0,0.0,0.0,0.0,0.0,0.0,0.0,0.0,0.0,0.0,-2.5791,-2.5693,-2.5713,-2.581,-2.6211,-2.6602,-2.6934,-2.7441,-2.7891,-2.8119,-2.7695,-2.7402,-2.7695,-2.7676,-2.7578,-2.748,-2.8164,-2.9277,-3.0918,-3.1816,-3.2324,-3.2324,-3.2031,-3.1875,-3.2012,-3.1719,-3.1484,-3.1387,-3.1367,-3.123,-3.0918,-3.0801,-3.0527,-3.0078,-2.9961,-2.9551,-2.8789,-2.8769,-2.8613,-2.8301,-2.7773,-2.7559,-2.7708,-2.6797,-2.6387,-2.6367,-2.5888,-2.5693,-2.5693,-2.5693,-2.5693,-2.5693,-2.5693,-2.5635,-2.5586,-2.5586,-2.5254,-2.4687,-2.4043,-2.3516,-2.3101,0.0,0.0,0.0,0.0,0.0,0.0,0.0,0.0,0.0,0.0,0.0,0.0,0.0,0.0,0.0,0.0,0.0,0.0,-2.7669,-2.7748,-2.7943,-2.8281,-2.7891,-2.8027,-2.8809,-2.8437,-2.8867,-3.0156,-3.1016,-3.1445,-3.1445,-3.0527,-2.9434,-2.8223,-2.7826,-2.7344,-2.6934,-2.6523,-2.6582,-2.6894,-2.6025,0.0,0.0,0.0,0.0,0.0,0.0,0.0,0.0,0.0,0.0,0.0,0.0,0.0,-2.5732,-2.5693,-2.5693,-2.5771,-2.623,-2.6641,-2.6973,-2.7012,-2.6777,-2.7031,-2.9039,-2.8789,-2.8535,-2.9726,-2.9648,-2.9258,-2.8848,-2.9492,-3.0508,-3.1855,-3.2461,-3.2754,-3.2754,-3.2734,-3.2422,-3.166,-3.1543,-3.1367,-3.0976,-3.0937,-3.0918,-3.0898,-3.0488,-3.0059,-2.9629,-2.9238,-2.8809,-2.8359,-2.834,-2.832,-2.8301,-2.748,-2.7266,-2.7708,-2.6797,-2.6387,-2.6367,-2.5888,-2.5693,-2.5693,-2.5693,-2.5693,-2.5693,-2.5693,-2.5488,-2.5117,-2.5117,-2.4609,-2.3887,-2.3809,-2.3516,-2.3101,0.0,0.0,0.0,0.0,0.0,0.0,0.0,0.0,0.0,0.0,0.0,0.0,0.0,0.0,0.0,0.0,0.0,-2.6113,-2.6445,-2.6973,-2.7461,-2.7943,-2.75,-2.7656,-2.8516,-2.8887,-2.9726,-3.1016,-3.1894,-3.2031,-3.1504,-3.0625,-2.9668,-2.8652,-2.7969,-2.7422,-2.7012,-2.6836,-2.6875,-2.6973,-2.6367,-2.6406,0.0,0.0,0.0,0.0,0.0,0.0,0.0,0.0,-2.5312,-2.5371,-2.5596,-2.5693,-2.5693,-2.5693,-2.5547,-2.541,-2.5859,-2.6289,-2.6699,-2.6953,-2.7109,-2.765,-2.9199,-2.9531,-2.9707,-3.0469,-3.1133,-3.1367,-3.0664,-3.0801,-3.1269,-3.2051,-3.2734,-3.3086,-3.2832,-3.2578,-3.2187,-3.1582,-3.1289,-3.1074,-3.0898,-3.0898,-3.0762,-3.0488,-3.0293,-2.9902,-2.9199,-2.9004,-2.873,-2.8301,-2.8301,-2.8164,-2.791,-2.7305,-2.6973,-2.6855,-2.6269,-2.5977,-2.5977,-2.5771,-2.5693,-2.5693,-2.5693,-2.5693,-2.5693,-2.5693,-2.5596,-2.5449,-2.5176,-2.4597,-2.3789,-2.3789,-2.3516,-2.3101,0.0,0.0,0.0,0.0,0.0,0.0,0.0,0.0,0.0,0.0,0.0,0.0,0.0,0.0,0.0,0.0,-2.5771,-2.5752,-2.5937,-2.6484,-2.7012,-2.7441,-2.7168,-2.7363,-2.8086,-2.8926,-3.0,-3.1328,-3.2305,-3.2285,-3.1309,-3.0723,-2.998,-2.9082,-2.8242,-2.7695,-2.7383,-2.6992,-2.6973,-2.7168,-2.6621,-2.6641,0.0,0.0,0.0,0.0,0.0,0.0,0.0,0.0,-2.5098,-2.4961,-2.5547,-2.5596,-2.5527,-2.5527,-2.541,-2.5312,-2.5488,-2.584,-2.6328,-2.6875,-2.7344,-2.8158,-2.9805,-3.043,-3.0957,-3.209,-3.2578,-3.2578,-3.1855,-3.1621,-3.166,-3.209,-3.2754,-3.3086,-3.2656,-3.2226,-3.1797,-3.1367,-3.1074,-3.0898,-3.0898,-3.0898,-3.0703,-3.0234,-3.0078,-2.9687,-2.8965,-2.8789,-2.8594,-2.8301,-2.8164,-2.7949,-2.7728,-2.7109,-2.668,-2.6387,-2.5801,-2.5605,-2.5693,-2.5693,-2.5693,-2.5693,-2.5693,-2.5693,-2.5693,-2.5693,-2.5518,-2.5226,-2.4844,-2.4219,-2.3594,-2.373,-2.3516,-2.3101,0.0,0.0,0.0,0.0,0.0,0.0,0.0,0.0,-2.5898,-2.6328,-2.6387,0.0,0.0,0.0,0.0,0.0,-2.5977,-2.5849,-2.6348,-2.6367,-2.6562,-2.6992,-2.6992,-2.7207,-2.7708,-2.8496,-2.957,-3.0898,-3.2148,-3.2129,-3.0879,-3.0879,-3.041,-2.9587,-2.8672,-2.8301,-2.8203,-2.6934,-2.6894,-2.763,-2.6738,-2.6641,-2.6973,0.0,0.0,0.0,0.0,0.0,0.0,0.0,-2.5089,-2.457,-2.5401,-2.543,-2.5125,-2.5106,-2.5371,-2.5625,-2.5195,-2.5391,-2.5888,-2.6797,-2.7344,-2.8359,-3.0937,-3.1523,-3.2266,-3.4863,-3.4004,-3.2676,-3.2266,-3.1816,-3.166,-3.209,-3.2519,-3.2637,-3.2226,-3.1797,-3.1367,-3.0937,-3.0879,-3.0879,-3.0879,-3.0879,-3.0684,-3.0215,-2.9805,-2.9375,-2.8945,-2.8516,-2.8301,-2.8281,-2.7943,-2.7708,-2.7708,-2.6816,-2.6387,-2.6367,-2.5536,-2.5293,-2.5674,-2.5674,-2.5674,-2.5674,-2.5693,-2.5693,-2.5693,-2.5693,-2.5167,-2.4375,-2.3965,-2.3535,-2.314,-2.3633,-2.3516,-2.3101,0.0,0.0,0.0,0.0,0.0,0.0,0.0,0.0,-2.5732,-2.5869,-2.6191,0.0,0.0,0.0,0.0,0.0,0.0,-2.4816,-2.498,-2.5,-2.5332,-2.6044,-2.582,-2.6133,-2.7187,-2.834,-2.957,-3.0898,-3.1269,-3.1094,-3.0391,-3.0098,-2.9648,-2.9101,-2.8848,-2.8242,-2.7383,-2.7324,-2.709,-2.6777,-2.6816,-2.6719,-2.6562,0.0,0.0,0.0,0.0,0.0,0.0,0.0,0.0,0.0,-2.5,-2.5391,-2.5469,-2.5156,-2.5156,-2.5234,-2.5145,-2.5391,-2.5888,-2.6797,-2.8008,-2.9453,-3.1133,-3.1758,-3.2617,-3.4922,-3.4004,-3.2949,-3.3418,-3.2422,-3.166,-3.209,-3.2012,-3.1855,-3.1719,-3.1601,-3.125,-3.0488,-3.041,-3.0293,-2.998,-2.9961,-2.9785,-2.9336,-2.918,-2.8926,-2.8496,-2.8359,-2.8164,-2.7904,-2.7787,-2.7434,-2.6777,-2.6211,-2.5781,-2.5497,-2.4883,-2.4844,-2.5273,-2.5273,-2.5273,-2.5293,-2.5605,-2.5693,-2.5674,-2.5391,-2.4766,-2.4023,-2.4512,-2.4043,-2.3179,-2.3965,-2.3769,-2.3101,0.0,0.0,0.0,0.0,0.0,0.0,0.0,0.0,-2.5693,-2.5693,-2.5977,-2.6191,0.0,0.0,0.0,0.0,-2.5195,-2.4668,-2.4668,-2.4512,-2.4727,-2.5449,-2.5215,-2.5684,-2.6992,-2.8105,-2.9062,-2.9863,-3.0371,-3.0293,-2.9687,-2.9785,-2.9492,-2.8926,-2.8926,-2.8301,-2.7266,-2.7187,-2.6953,-2.6641,-2.6738,-2.6719,-2.6621,0.0,0.0,0.0,0.0,0.0,0.0,0.0,0.0,0.0,-2.4851,-2.5019,-2.4941,-2.4844,-2.4922,-2.5106,-2.5106,-2.5644,-2.6434,-2.7519,-2.8945,-3.043,-3.1738,-3.2773,-3.3828,-3.5117,-3.4277,-3.3418,-3.375,-3.2832,-3.2051,-3.2148,-3.1953,-3.1719,-3.1543,-3.1367,-3.1074,-3.0527,-3.0312,-3.0098,-2.9844,-2.9668,-2.9394,-2.8945,-2.8926,-2.8652,-2.8066,-2.8047,-2.7851,-2.7422,-2.7246,-2.6914,-2.6387,-2.5908,-2.5508,-2.5106,-2.4629,-2.4473,-2.4617,-2.4949,-2.5106,-2.5125,-2.5352,-2.5469,-2.543,-2.4805,-2.4258,-2.3867,-2.4531,-2.4121,-2.3198,-2.4102,-2.3822,-2.3101,0.0,0.0,-2.5106,-2.5106,0.0,0.0,0.0,0.0,-2.5635,-2.5693,-2.5693,-2.5849,0.0,0.0,0.0,0.0,0.0,0.0,-2.4988,-2.457,-2.4551,-2.5047,-2.5204,-2.582,-2.7051,-2.7871,-2.8301,-2.8301,-2.9492,-2.9668,-2.8887,-2.9687,-2.9648,-2.8867,-2.8867,-2.8398,-2.7559,-2.6738,-2.6582,-2.6875,-2.6523,-2.6602,-2.6855,-2.6523,0.0,0.0,0.0,0.0,0.0,0.0,0.0,0.0,-2.4812,-2.4446,-2.3874,-2.4231,-2.4641,-2.4983,-2.4975,-2.5868,-2.7079,-2.8529,-2.9907,-3.1247,-3.2393,-3.3869,-3.5062,-3.5215,-3.4609,-3.3945,-3.3555,-3.3105,-3.2656,-3.2307,-3.2129,-3.1953,-3.1523,-3.1133,-3.0859,-3.0781,-3.0391,-3.0117,-3.0019,-2.9668,-2.9297,-2.8887,-2.8867,-2.8516,-2.7767,-2.7728,-2.7441,-2.6973,-2.6582,-2.6367,-2.6328,-2.581,-2.541,-2.5047,-2.4531,-2.4102,-2.3769,-2.4629,-2.5086,-2.5106,-2.5067,-2.5028,-2.4949,-2.4102,-2.3769,-2.3769,-2.4199,-2.3867,-2.3198,-2.4062,-2.3803,-2.3101,0.0,0.0,-2.5106,-2.5106,0.0,0.0,0.0,0.0,0.0,-2.5635,0.0,0.0,0.0,0.0,0.0,0.0,0.0,0.0,-2.4082,-2.3984,-2.4121,-2.4531,-2.5859,-2.6894,-2.7571,-2.8027,-2.8301,-2.8301,-2.8906,-2.8926,-2.8437,-2.8945,-2.8926,-2.8437,-2.8437,-2.7949,-2.7129,-2.6602,-2.625,-2.5986,-2.6289,-2.623,-2.5986,-2.6289,-2.6113,0.0,0.0,0.0,0.0,0.0,0.0,0.0,-2.4492,-2.4134,-2.3692,-2.3854,-2.3943,-2.3951,-2.4042,-2.449,-2.5518,-2.7865,-2.9814,-3.1262,-3.1585,-3.192,-3.2504,-3.3572,-3.3965,-3.4043,-3.3945,-3.3301,-3.2656,-3.2307,-3.1875,-3.1504,-3.1094,-3.0937,-3.0625,-2.9941,-2.9766,-2.9434,-2.8769,-2.8613,-2.8535,-2.8437,-2.8437,-2.8203,-2.7748,-2.7728,-2.7324,-2.6543,-2.6445,-2.623,-2.583,-2.505,-2.4648,-2.4551,-2.3725,-2.3315,-2.3257,-2.416,-2.4746,-2.5106,-2.4707,-2.4375,-2.4043,-2.3867,-2.3594,-2.3276,-2.375,-2.3594,-2.3159,-2.373,-2.3594,-2.3101,0.0,0.0,0.0,0.0,0.0,0.0,0.0,0.0,0.0,0.0,0.0,0.0,0.0,0.0,0.0,0.0,0.0,0.0,-2.3809,-2.3789,-2.416,-2.4972,-2.6309,-2.7129,-2.7344,-2.7969,-2.8203,-2.7988,-2.8418,-2.8516,-2.8301,-2.8945,-2.9004,-2.8594,-2.8594,-2.8125,-2.7285,-2.666,-2.625,-2.6055,-2.6074,-2.6055,-2.6055,-2.6074,-2.5937,-2.5693,-2.5693,0.0,0.0,0.0,0.0,0.0,0.0,0.0,-2.2714,-2.3013,-2.3186,-2.3242,-2.301,-2.4564,-2.6702,-2.8468,-2.9837,-3.0609,-2.9976,-3.0357,-3.1006,-3.1715,-3.2532,-3.3281,-3.3691,-3.3066,-3.2422,-3.2207,-3.1797,-3.1367,-3.0957,-3.0898,-3.0644,-2.9961,-2.9744,-2.9316,-2.8652,-2.8418,-2.8301,-2.8301,-2.8105,-2.7812,-2.7383,-2.7168,-2.666,-2.5781,-2.5762,-2.5644,-2.543,-2.4746,-2.4414,-2.4414,-2.375,-2.3457,-2.3457,-2.3906,-2.4355,-2.4727,-2.4297,-2.3984,-2.3769,-2.3574,-2.3296,-2.3096,-2.3102,-2.3095,-2.3096,-2.3076,-2.3095,-2.3101,0.0,0.0,0.0,0.0,0.0,0.0,0.0,0.0,0.0,0.0,0.0,0.0,0.0,0.0,0.0,0.0,0.0,0.0,0.0,-2.3809,-2.4453,-2.5635,-2.6484,-2.6934,-2.7012,-2.7715,-2.793,-2.7728,-2.793,-2.8223,-2.8535,-2.916,-2.9258,-2.8906,-2.8848,-2.834,-2.7552,-2.6719,-2.6348,-2.625,-2.583,-2.5898,-2.6113,-2.5762,-2.5518,-2.546,-2.546,-2.5499,-2.5625,-2.5625,0.0,0.0,0.0,0.0,-2.1951,-2.2208,-2.2474,-2.2557,-2.2042,-2.5018,-2.8342,-2.8883,-2.9422,-2.9537,-2.8425,-2.8968,-2.9817,-3.0082,-3.1218,-3.2383,-3.3086,-3.2637,-3.2148,-3.207,-3.1758,-3.1367,-3.0957,-3.0898,-3.0684,-3.0156,-2.9785,-2.9375,-2.8867,-2.8496,-2.8301,-2.8301,-2.791,-2.748,-2.7031,-2.6621,-2.5977,-2.5145,-2.5106,-2.5086,-2.5008,-2.4531,-2.4316,-2.4297,-2.3887,-2.3672,-2.3672,-2.3672,-2.3906,-2.4277,-2.3867,-2.3672,-2.3652,-2.3237,-2.3101,-2.3033,-2.2603,-2.2617,-2.2813,-2.2378,-2.2483,-2.2862,0.0,0.0,0.0,0.0,0.0,0.0,0.0,0.0,0.0,0.0,-2.6055,-2.5752,0.0,0.0,0.0,0.0,0.0,0.0,-2.3198,0.0,0.0,-2.5654,-2.6211,-2.6641,-2.7012,-2.7129,-2.7344,-2.7728,-2.7344,-2.7949,-2.9394,-2.9121,-2.8965,-2.8906,-2.8535,-2.791,-2.707,-2.6582,-2.6172,-2.5771,-2.5713,-2.5547,-2.5282,-2.5176,-2.4922,-2.459,-2.459,-2.4844,-2.5156,-2.5156,-2.5332,0.0,0.0,0.0,-2.276,-2.2419,-2.1767,-2.1263,-2.165,-2.4632,-2.7539,-2.6852,-2.7547,-2.822,-2.7706,-2.7744,-2.8175,-2.9416,-3.1028,-3.2207,-3.2324,-3.2246,-3.2051,-3.166,-3.1562,-3.1367,-3.0957,-3.0898,-3.0586,-2.9746,-2.9609,-2.9258,-2.8457,-2.832,-2.8301,-2.8301,-2.791,-2.748,-2.7031,-2.6621,-2.5977,-2.5145,-2.5106,-2.4883,-2.4512,-2.4082,-2.3867,-2.3867,-2.3393,-2.3179,-2.3179,-2.3179,-2.3457,-2.3848,-2.3374,-2.3179,-2.3179,-2.312,-2.3101,-2.3101,-2.3027,-2.2549,-2.1891,-2.1794,-2.182,-2.1872,0.0,0.0,0.0,0.0,0.0,0.0,0.0,0.0,0.0,0.0,0.0,-2.6016,0.0,0.0,0.0,-2.3848,-2.3574,-2.3437,-2.3496,-2.3848,-2.457,-2.5635,-2.5918,-2.623,-2.666,-2.666,-2.6758,-2.6953,-2.6504,-2.7422,-2.9626,-2.9375,-2.9551,-3.0,-2.957,-2.8769,-2.7676,-2.6777,-2.6133,-2.5693,-2.5693,-2.5469,-2.5145,-2.5352,-2.5019,-2.4453,-2.4687,-2.4746,-2.4746,-2.5028,-2.5039,-2.4961,-2.4766,0.0,0.0,0.0,-2.1826,-2.2146,-2.4115,-2.5488,-2.6537,-2.7178,-2.7771,-2.786,-2.6449,-2.6694,-2.7366,-2.8051,-2.9342,-3.0724,-3.1949,-3.1777,-3.1465,-3.1504,-3.1094,-3.0723,-3.0527,-3.0508,-3.0176,-2.9316,-2.9414,-2.9238,-2.8379,-2.8301,-2.8301,-2.8301,-2.7676,-2.7226,-2.7031,-2.6152,-2.5352,-2.4727,-2.4473,-2.4258,-2.4062,-2.3633,-2.3418,-2.3418,-2.3179,-2.3101,-2.3101,-2.3101,-2.3198,-2.3418,-2.3179,-2.3101,-2.3101,-2.3101,-2.3101,-2.3057,-2.2511,-2.205,-2.165,-2.1051,-2.0872,-2.0907,0.0,0.0,0.0,0.0,0.0,0.0,0.0,0.0,0.0,0.0,0.0,0.0,0.0,0.0,0.0,0.0,-2.3354,-2.3237,-2.3594,-2.373,-2.4277,-2.5304,-2.546,-2.5781,-2.6211,-2.623,-2.6269,-2.6387,-2.6055,-2.7207,-2.9783,-2.9844,-3.043,-3.1348,-3.0918,-2.9824,-2.8223,-2.7285,-2.6562,-2.5986,-2.5703,-2.5293,-2.4922,-2.5156,-2.4719,-2.4141,-2.4453,-2.4434,-2.4297,-2.4629,-2.459,-2.4414,-2.4414,-2.3599,0.0,0.0,0.0,-2.2668,-2.5118,-2.5453,-2.5503,-2.7345,-2.7671,-2.7128,-2.5611,-2.6077,-2.6747,-2.6446,-2.7646,-2.9235,-3.0792,-3.0995,-3.0957,-3.1152,-3.0625,-3.0195,-3.0195,-3.0098,-2.9805,-2.916,-2.9277,-2.9101,-2.8359,-2.8301,-2.8242,-2.8144,-2.7441,-2.6973,-2.6855,-2.582,-2.498,-2.4434,-2.4121,-2.3848,-2.3633,-2.3257,-2.3101,-2.3101,-2.3101,-2.3101,-2.3101,-2.3101,-2.3101,-2.3101,-2.3101,-2.3101,-2.3101,-2.3101,-2.3101,-2.3038,-2.2334,-2.1739,-2.123,-2.0466,-2.0059,-1.9866,0.0,0.0,0.0,0.0,0.0,0.0,0.0,0.0,0.0,0.0,0.0,0.0,-2.5693,-2.4894,-2.4238,-2.3828,-2.3354,-2.3101,-2.312,-2.3555,-2.4004,-2.4473,-2.4883,0.0,-2.5713,-2.5732,-2.5977,-2.6387,-2.6367,-2.7656,-3.0176,-3.0605,-3.1484,-3.2676,-3.2266,-3.0664,-2.8281,-2.8223,-2.7715,-2.6836,-2.5605,-2.4844,-2.4414,-2.4043,-2.3594,-2.3159,-2.3198,-2.3496,-2.3828,-2.3848,-2.4102,-2.4414,-2.4414,-2.4075,-2.3545,0.0,0.0,0.0,-2.241,-2.332,-2.4529,-2.6095,-2.6024,-2.5594,-2.5666,-2.6082,-2.6101,-2.4984,-2.6651,-2.826,-2.8083,-2.9584,-3.0762,-3.0332,-3.0234,-3.0195,-3.0195,-2.9863,-2.959,-2.9607,-2.9199,-2.8769,-2.834,-2.8301,-2.8125,-2.7787,-2.7285,-2.6836,-2.6445,-2.5957,-2.5265,-2.4453,-2.4394,-2.3939,-2.314,-2.3101,-2.3101,-2.3101,-2.3101,-2.3101,-2.3101,-2.3101,-2.3101,-2.3101,-2.3101,-2.3101,-2.3101,-2.3101,-2.3101,-2.3101,-2.3057,-2.1917,-2.0286,-2.024,-1.965,-1.8888,0.0,0.0,0.0,0.0,0.0,0.0,0.0,0.0,0.0,0.0,0.0,0.0,0.0,-2.4894,-2.4355,-2.4199,-2.3809,-2.3672,-2.3945,-2.4102,-2.4394,-2.4805,-2.5028,-2.5273,-2.5674,-2.5449,-2.5527,-2.5977,-2.5391,-2.6445,-2.8984,-2.9414,-3.0156,-3.1152,-3.1562,-3.0762,-2.9043,-2.793,-2.7148,-2.6523,-2.5488,-2.4805,-2.4394,-2.4258,-2.375,-2.314,-2.3457,-2.3652,-2.3828,-2.4102,-2.4297,-2.4414,-2.4414,-2.4121,-2.3686,-2.2993,-2.2713,-2.2751,-2.3484,-2.3763,-2.4212,-2.5434,-2.6087,-2.6278,-2.5665,-2.5806,-2.5946,-2.5537,-2.5553,-2.6028,-2.7518,-2.9013,-2.998,-2.9824,-2.9551,-2.9473,-2.9746,-2.9434,-2.9141,-2.9141,-2.9004,-2.875,-2.834,-2.8301,-2.8125,-2.7748,-2.7266,-2.6836,-2.6406,-2.5703,-2.5039,-2.4434,-2.416,-2.373,-2.3101,-2.3101,-2.3101,-2.3101,-2.3101,-2.3101,-2.3101,-2.3101,-2.3101,-2.3101,-2.3101,-2.3101,-2.3101,-2.3101,-2.3101,-2.3057,-2.2467,-2.1364,-2.015,-1.9513,-1.8703,-1.7854,0.0,0.0,0.0,-2.998,0.0,-2.7669,-2.748,-2.6719,-2.6064,-2.5977,0.0,0.0,0.0,0.0,-2.4746,-2.4453,-2.4297,-2.4277,-2.4414,-2.4414,-2.4609,-2.5106,-2.5215,-2.543,-2.5674,-2.5586,-2.5586,-2.5693,-2.5293,-2.6113,-2.8086,-2.8652,-2.9375,-3.0215,-3.0508,-3.0254,-2.9512,-2.8496,-2.7676,-2.6934,-2.5762,-2.5215,-2.5059,-2.4922,-2.4465,-2.3997,-2.4336,-2.4258,-2.4023,-2.416,-2.4102,-2.3939,-2.3939,-2.3789,-2.3516,-2.3179,-2.3101,-2.3218,-2.3783,-2.3615,-2.3583,-2.4963,-2.5434,-2.5566,-2.5501,-2.5593,-2.5565,-2.5486,-2.5239,-2.5537,-2.7062,-2.8347,-2.918,-2.9336,-2.9101,-2.9062,-2.9512,-2.9199,-2.8965,-2.9121,-2.9004,-2.875,-2.834,-2.8301,-2.8066,-2.748,-2.7187,-2.6777,-2.6191,-2.5469,-2.4805,-2.4219,-2.3789,-2.3437,-2.3101,-2.3101,-2.3101,-2.3101,-2.3101,-2.3101,-2.3101,-2.3101,-2.3101,-2.3101,-2.3101,-2.3101,-2.3101,-2.3101,-2.3101,-2.3013,-2.205,-2.1096,-2.0104,-1.9147,-1.8149,-1.7308,-3.0117,-2.9863,-2.959,-2.9665,-2.8589,-2.7559,-2.7148,-2.7051,-2.6894,-2.6484,0.0,0.0,0.0,0.0,0.0,-2.457,-2.4883,-2.4941,-2.4512,-2.4473,-2.4668,-2.5145,-2.5527,-2.5713,-2.5732,-2.6172,-2.6191,-2.5713,-2.6172,-2.6797,-2.7708,-2.8476,-2.9316,-3.0078,-2.9277,-2.9141,-2.9607,-2.9922,-2.9375,-2.8125,-2.6356,-2.5996,-2.6328,-2.583,-2.5674,-2.5693,-2.5674,-2.5176,-2.4414,-2.3984,-2.3555,-2.3159,-2.312,-2.3101,-2.3101,-2.3101,-2.3101,-2.3101,0.0,0.0,0.0,-2.4523,-2.389,-2.3352,-2.5224,-2.5318,-2.4966,-2.4648,-2.5836,-2.6792,-2.6518,-2.7457,-2.8364,-2.8828,-2.8906,-2.9062,-2.9492,-2.918,-2.9082,-2.9548,-2.918,-2.875,-2.834,-2.8301,-2.793,-2.709,-2.7012,-2.6641,-2.5732,-2.5293,-2.4715,-2.3828,-2.3315,-2.3101,-2.3101,-2.3101,-2.3101,-2.3101,-2.3101,-2.3101,-2.3101,-2.3101,-2.3101,-2.3101,-2.3101,-2.3101,-2.3101,-2.3101,-2.3101,-2.3013,-2.205,-2.1096,-2.0104,-1.9147,-1.8149,-1.7279,-3.0176,-3.0098,-3.0137,-3.0469,-2.9199,-2.8281,-2.8789,-2.8086,-2.7441,0.0,0.0,0.0,-2.709,-2.6797,-2.6562,-2.6309,-2.6406,-2.6289,-2.5879,-2.584,-2.5898,-2.6016,-2.6152,-2.6348,-2.666,-2.6484,-2.6328,-2.6211,-2.6016,-2.6211,-2.6758,-2.7285,-2.7832,-2.8379,-2.875,-2.8652,-2.8217,-2.7656,-2.7598,-2.7695,-2.5957,-2.5703,-2.6269,-2.5195,-2.5128,-2.5635,-2.5371,-2.5508,-2.5781,-2.5352,-2.507,-2.4816,-2.3906,-2.3354,-2.3101,-2.3101,-2.3101,-2.3101,-2.3101,0.0,0.0,0.0,0.0,0.0,-2.4012,-2.4149,-2.4321,-2.4571,-2.4527,-2.4791,-2.5845,-2.6604,-2.7333,-2.833,-2.8457,-2.8613,-2.9043,-2.9004,-2.8965,-2.9082,-2.8984,-2.875,-2.834,-2.8301,-2.793,-2.709,-2.7012,-2.6641,-2.5732,-2.5019,-2.4355,-2.3809,-2.3315,-2.3101,-2.3101,-2.3101,-2.3101,-2.3101,-2.3101,-2.3101,-2.3101,-2.3101,-2.3101,-2.3101,-2.3101,-2.3101,-2.3101,-2.3101,-2.3101,-2.3013,-2.205,-2.1096,-2.0104,-1.9147,-1.8149,-1.7308,-3.0156,-3.0195,-3.0293,-3.0547,-2.9609,-2.8926,-2.9258,-2.8828,-2.8398,0.0,0.0,0.0,-2.7891,-2.8125,-2.8066,-2.7344,-2.7285,-2.7031,-2.6426,-2.6387,-2.6309,-2.6133,-2.6465,-2.668,-2.6758,-2.6855,-2.6738,-2.6387,-2.6133,-2.6055,-2.6133,-2.6562,-2.6894,-2.7148,-2.7637,-2.7695,-2.7324,-2.6289,-2.6445,-2.7285,-2.6094,-2.6133,-2.6816,-2.5859,-2.5937,-2.6484,-2.6035,-2.6094,-2.6289,-2.5664,-2.5332,-2.5019,-2.4082,-2.3613,-2.3335,-2.314,-2.3101,-2.3101,-2.3101,-2.2925,-2.2795,-2.304,0.0,0.0,-2.4013,-2.4012,-2.4039,-2.4688,-2.449,-2.4587,-2.5863,-2.6116,-2.6603,-2.7843,-2.8027,-2.8242,-2.8828,-2.8926,-2.8926,-2.8926,-2.9082,-2.8965,-2.8359,-2.8457,-2.8125,-2.709,-2.7012,-2.6484,-2.5206,-2.4707,-2.4141,-2.3535,-2.3218,-2.3101,-2.3101,-2.3101,-2.3101,-2.3101,-2.3101,-2.3101,-2.3101,-2.3101,-2.3101,-2.3101,-2.3101,-2.3101,-2.3101,-2.3101,-2.3101,-2.3013,-2.205,-2.1096,-2.0104,-1.9147,-1.8149,-1.7337,0.0,-3.0234,-3.0273,-3.0273,-2.9922,-2.9551,-2.9258,-2.9453,-2.9512,0.0,-2.9434,-2.9531,-2.9238,-2.9844,-2.9668,-2.8217,-2.7982,-2.75,-2.6582,-2.6484,-2.6269,-2.5771,-2.6582,-2.6836,-2.6465,-2.7297,-2.7246,-2.6387,-2.6387,-2.6172,-2.5693,-2.6133,-2.6289,-2.625,-2.625,-2.6426,-2.666,-2.5547,-2.5742,-2.6777,-2.6387,-2.6777,-2.7591,-2.7051,-2.7168,-2.7539,-2.7109,-2.6738,-2.6328,-2.5488,-2.4922,-2.4492,-2.4062,-2.3867,-2.3711,-2.3276,-2.314,-2.3101,-2.3101,-2.3101,-2.3276,-2.4036,-2.3418,0.0,-2.4512,-2.4258,-2.3945,-2.4812,-2.5008,-2.5234,-2.6035,-2.5977,-2.6152,-2.7207,-2.7552,-2.7891,-2.873,-2.8848,-2.8848,-2.8848,-2.9199,-2.9101,-2.8301,-2.8594,-2.832,-2.7031,-2.6894,-2.6152,-2.4512,-2.4414,-2.4023,-2.312,-2.3101,-2.3101,-2.3101,-2.3101,-2.3101,-2.3101,-2.3101,-2.3101,-2.3101,-2.3101,-2.3101,-2.3101,-2.3101,-2.3101,-2.3101,-2.3101,-2.3101,-2.3013,-2.2183,-2.123,-2.024,-1.9285,-1.8365,-1.7569,-3.0176,-3.0488,-3.0762,-3.0762,-3.0371,-3.0293,-3.0918,-3.0469,-3.0176,-3.0469,-3.0254,-3.0312,-3.0937,-3.0859,-3.0625,-3.0293,-2.9609,-2.8746,-2.75,-2.709,-2.6699,-2.6289,-2.6738,-2.6973,-2.6894,-2.7402,-2.7246,-2.6387,-2.6387,-2.6172,-2.5693,-2.5771,-2.5664,-2.538,-2.538,-2.5176,-2.4941,-2.5019,-2.5262,-2.543,-2.5399,-2.6055,-2.7051,-2.6289,-2.6465,-2.709,-2.666,-2.668,-2.6816,-2.6309,-2.584,-2.541,-2.4961,-2.4355,-2.3769,-2.3691,-2.3418,-2.3101,-2.3101,-2.3101,-2.314,-2.3296,-2.3159,0.0,-2.3393,-2.3335,-2.3418,-2.3926,-2.4316,-2.459,-2.4766,-2.5605,-2.6113,-2.5693,-2.6465,-2.7441,-2.8301,-2.8418,-2.8418,-2.8418,-2.8496,-2.834,-2.7832,-2.8164,-2.7891,-2.6602,-2.6191,-2.5479,-2.4473,-2.4414,-2.4023,-2.312,-2.3101,-2.3101,-2.3101,-2.3101,-2.3101,-2.3101,-2.3101,-2.3101,-2.3101,-2.3101,-2.3101,-2.3101,-2.3101,-2.3101,-2.3101,-2.3101,-2.3101,-2.3101,-2.2906,-2.2227,-2.1275,-2.0286,-1.951,-1.8846,-3.0488,-3.0723,-3.0957,-3.1172,-3.084,-3.084,-3.1719,-3.1289,-3.1094,-3.1758,-3.2012,-3.1973,-3.1562,-3.1523,-3.1269,-3.0605,-2.9746,-2.8887,-2.8027,-2.7363,-2.6836,-2.6406,-2.6582,-2.6797,-2.7012,-2.7226,-2.7129,-2.6699,-2.6484,-2.6172,-2.5693,-2.5693,-2.5508,-2.5106,-2.5106,-2.4824,-2.4434,-2.4648,-2.4863,-2.5145,-2.5312,-2.5918,-2.6641,-2.5977,-2.6133,-2.6641,-2.6211,-2.6348,-2.666,-2.6465,-2.625,-2.5937,-2.5273,-2.4812,-2.4336,-2.3926,-2.3633,-2.3418,-2.3159,-2.3101,-2.3101,-2.3101,-2.3101,0.0,0.0,-2.3101,-2.3159,-2.3418,-2.3457,-2.3535,-2.3686,-2.4316,-2.4844,-2.5086,-2.5625,-2.6426,-2.75,-2.7656,-2.7656,-2.7656,-2.7851,-2.7812,-2.7383,-2.791,-2.7851,-2.6777,-2.6094,-2.5304,-2.4473,-2.4219,-2.3809,-2.312,-2.3101,-2.3101,-2.3101,-2.3101,-2.3101,-2.3101,-2.3101,-2.3101,-2.3101,-2.3101,-2.3101,-2.3101,-2.3101,-2.3101,-2.3101,-2.3101,-2.3101,-2.3101,-2.3101,-2.2511,-2.1561,-2.0557,-1.9836,-1.9178,-3.0781,-3.0898,-3.0996,-3.1328,-3.1191,-3.125,-3.1934,-3.1738,-3.1797,-3.2578,-3.334,-3.332,-3.2031,-3.2051,-3.1797,-3.0898,-2.9726,-2.8926,-2.8691,-2.7715,-2.6914,-2.6406,-2.6465,-2.6602,-2.6758,-2.6934,-2.6934,-2.6777,-2.6504,-2.6113,-2.5605,-2.5654,-2.5449,-2.4988,-2.5086,-2.4863,-2.4531,-2.4531,-2.4785,-2.5234,-2.5586,-2.5957,-2.623,-2.583,-2.5957,-2.6211,-2.5859,-2.6074,-2.6484,-2.6309,-2.6367,-2.6348,-2.5469,-2.5184,-2.4988,-2.4238,-2.3984,-2.3828,-2.3432,-2.3276,-2.3218,-2.3218,-2.3159,-2.3101,0.0,0.0,0.0,-2.3101,-2.2828,-2.2672,-2.2925,-2.3101,-2.3555,-2.4434,-2.4891,-2.5371,-2.6269,-2.6543,-2.6738,-2.6992,-2.7109,-2.709,-2.6914,-2.7441,-2.7519,-2.6816,-2.6055,-2.5215,-2.4336,-2.3965,-2.3594,-2.3101,-2.3101,-2.3101,-2.3101,-2.3101,-2.3101,-2.3101,-2.3101,-2.3101,-2.3101,-2.3101,-2.3101,-2.3101,-2.3101,-2.3101,-2.3101,-2.3101,-2.3101,-2.3101,-2.3101,-2.2511,-2.1579,-2.0644,-1.989,-1.9288,-3.0723,-3.0898,-3.0898,-3.0957,-3.123,-3.1484,-3.1582,-3.1543,-3.168,-3.2168,-3.2656,-3.3008,-3.3184,-3.2578,-3.2402,-3.3008,-3.0879,-2.9648,-2.9943,-2.8496,-2.7278,-2.6426,-2.6738,-2.6602,-2.5849,-2.6621,-2.6641,-2.583,-2.623,-2.5957,-2.5204,-2.5547,-2.5245,-2.4512,-2.4902,-2.5086,-2.5047,-2.5047,-2.5254,-2.5615,-2.5674,-2.5713,-2.5752,-2.5713,-2.5713,-2.5752,-2.5713,-2.62,-2.6836,-2.6025,-2.6309,-2.6797,-2.5937,-2.5391,-2.5106,-2.4988,-2.4648,-2.4336,-2.4277,-2.4004,-2.3711,-2.3711,-2.3418,-2.3101,-2.3101,0.0,-2.3101,-2.3101,0.0,-2.2925,-2.2637,0.0,0.0,-2.291,-2.4082,-2.4891,-2.4238,-2.4805,-2.5723,-2.6875,-2.6035,-2.5712,-2.6387,-2.6191,-2.5927,-2.5849,-2.543,-2.4766,-2.3906,-2.3809,-2.3594,-2.3101,-2.3101,-2.3101,-2.3101,-2.3101,-2.3101,-2.3101,-2.3101,-2.3101,-2.3101,-2.3101,-2.3101,-2.3101,-2.3101,-2.3101,-2.3101,-2.3101,-2.3101,-2.3101,-2.3101,-2.2511,-2.1597,-2.0893,-2.027,-1.965,-3.0,-3.0312,-3.0566,-3.084,-3.1035,-3.1328,-3.1816,-3.2519,-3.2969,-3.291,-3.3476,-3.3965,-3.4141,-3.3398,-3.3047,-3.3398,-3.1758,-3.0566,-3.0234,-2.8848,-2.7754,-2.7148,-2.7051,-2.6855,-2.6434,-2.6582,-2.6484,-2.6113,-2.6055,-2.5684,-2.5125,-2.5254,-2.5019,-2.4414,-2.4609,-2.4687,-2.4727,-2.5234,-2.541,-2.5391,-2.5918,-2.5957,-2.5693,-2.5693,-2.5693,-2.5732,-2.6016,-2.6504,-2.6953,-2.6602,-2.6719,-2.6914,-2.6309,-2.5801,-2.541,-2.5184,-2.4941,-2.4746,-2.4492,-2.4277,-2.4102,-2.3848,-2.3652,-2.3457,-2.3159,-2.3101,-2.3101,-2.3101,0.0,0.0,0.0,0.0,0.0,0.0,-2.3477,-2.4004,-2.4141,-2.3828,-2.4062,-2.5352,-2.5019,-2.4941,-2.5566,-2.5703,-2.5479,-2.4953,-2.5273,-2.4863,-2.3496,-2.3652,-2.3594,-2.3101,-2.3101,-2.3101,-2.3101,-2.3101,-2.3101,-2.3101,-2.3101,-2.3101,-2.3101,-2.3101,-2.3101,-2.3101,-2.3101,-2.3101,-2.3101,-2.3101,-2.3101,-2.3057,-2.2511,-2.205,-2.1597,-2.0945,-2.0336,-1.9697,-2.9336,-2.9824,-3.0293,-3.0644,-3.0898,-3.1309,-3.2051,-3.2949,-3.3555,-3.3594,-3.4141,-3.4707,-3.5195,-3.4473,-3.4101,-3.4453,-3.3105,-3.1894,-3.1133,-2.9668,-2.8516,-2.7871,-2.7422,-2.709,-2.6855,-2.6543,-2.6328,-2.6211,-2.5898,-2.5566,-2.5254,-2.5254,-2.5078,-2.4785,-2.5019,-2.5059,-2.5,-2.5713,-2.584,-2.5517,-2.5996,-2.6016,-2.5693,-2.5693,-2.5693,-2.5732,-2.6094,-2.6562,-2.6973,-2.6738,-2.6816,-2.6914,-2.6387,-2.5996,-2.5596,-2.5195,-2.5156,-2.5156,-2.4707,-2.459,-2.4492,-2.4062,-2.3867,-2.3672,-2.3198,-2.3198,-2.3276,-2.3276,-2.3354,0.0,0.0,0.0,-2.3413,-2.3296,0.0,-2.3588,-2.4004,-2.3379,-2.3242,-2.4297,-2.4531,-2.4727,-2.5086,-2.5371,-2.5195,-2.4316,-2.4727,-2.4434,-2.3066,-2.3281,-2.334,-2.3101,-2.3101,-2.3101,-2.3101,-2.3101,-2.3101,-2.3101,-2.3101,-2.3101,-2.3101,-2.3101,-2.3101,-2.3101,-2.3101,-2.3101,-2.3101,-2.3101,-2.2969,-2.2643,-2.1961,-2.1382,-2.0852,-2.0556,-2.0006,-1.9336,-2.8945,-2.9609,-3.0195,-3.0215,-3.0918,-3.1641,-3.215,-3.2207,-3.2676,-3.3887,-3.4082,-3.4726,-3.6426,-3.584,-3.582,-3.707,-3.5215,-3.3789,-3.334,-3.1328,-2.957,-2.832,-2.7871,-2.7266,-2.6426,-2.6387,-2.6191,-2.5713,-2.5693,-2.5674,-2.5674,-2.5674,-2.5654,-2.5693,-2.6562,-2.6699,-2.6348,-2.6797,-2.6738,-2.6309,-2.5869,-2.5693,-2.5693,-2.5693,-2.5693,-2.5693,-2.5713,-2.6259,-2.6894,-2.6005,-2.6278,-2.6875,-2.5966,-2.5693,-2.5596,-2.5195,-2.5371,-2.5577,-2.5176,-2.5086,-2.4988,-2.4512,-2.4102,-2.3672,-2.3198,-2.3457,-2.3769,-2.3769,-2.4102,-2.4375,-2.4355,-2.4355,-2.4238,-2.3828,-2.4102,0.0,0.0,-2.3516,-2.3906,-2.4355,-2.4785,-2.5106,-2.5106,-2.5125,-2.4773,-2.3867,-2.3457,-2.309,-2.2559,-2.2539,-2.2691,-2.3081,-2.3101,-2.3101,-2.3101,-2.3101,-2.3101,-2.3101,-2.3101,-2.3101,-2.3101,-2.3101,-2.3101,-2.3101,-2.3101,-2.3101,-2.3101,-2.3101,-2.2555,-2.1739,-2.1695,-2.0557,-1.8968,-1.9622,-1.921,-1.8443,-2.9394,-3.0059,-3.0566,-3.0254,-3.0703,-3.1348,-3.2111,-3.2229,-3.3047,-3.5469,-3.5547,-3.623,-3.8555,-3.8027,-3.7676,-3.8105,-3.6699,-3.5234,-3.3945,-3.2637,-3.1348,-3.0059,-2.9883,-2.9258,-2.8086,-2.8066,-2.7578,-2.6582,-2.6309,-2.6172,-2.6152,-2.5566,-2.5449,-2.5693,-2.5986,-2.6044,-2.5996,-2.6719,-2.6602,-2.5937,-2.5752,-2.6025,-2.6523,-2.5908,-2.5869,-2.6211,-2.6484,-2.6953,-2.7441,-2.7441,-2.7246,-2.6914,-2.6348,-2.5762,-2.5273,-2.5165,-2.498,-2.4961,-2.5391,-2.5293,-2.5086,-2.4883,-2.4746,-2.4453,-2.373,-2.3906,-2.4121,-2.3848,-2.4121,-2.4414,-2.4414,-2.4414,-2.4375,-2.4238,-2.4102,-2.3906,0.0,-2.3437,-2.3418,-2.351,-2.3965,-2.4219,-2.4219,-2.4473,-2.4043,-2.2637,-2.3437,-2.3437,-2.2168,-2.2891,-2.3301,-2.3101,-2.3101,-2.3101,-2.3101,-2.3101,-2.3101,-2.3101,-2.3101,-2.3101,-2.3101,-2.3101,-2.3101,-2.3101,-2.3101,-2.3101,-2.3101,-2.3101,-2.2555,-2.165,-2.0962,-1.9923,-1.8875,-1.9542,-1.9177,-1.8394,-3.0117,-3.0508,-3.0742,-3.0273,-3.0703,-3.1348,-3.2111,-3.2812,-3.4121,-3.6367,-3.6953,-3.7969,-4.0117,-3.9707,-3.9336,-3.9492,-3.8476,-3.6953,-3.4902,-3.4258,-3.3164,-3.1426,-3.1348,-3.0723,-2.9394,-2.9219,-2.8516,-2.7246,-2.6973,-2.6836,-2.6816,-2.5957,-2.5762,-2.6142,-2.6142,-2.5966,-2.5752,-2.6641,-2.6523,-2.5693,-2.5693,-2.6025,-2.6504,-2.5888,-2.6094,-2.6602,-2.6582,-2.6934,-2.7461,-2.7578,-2.7441,-2.7148,-2.6562,-2.5996,-2.5449,-2.498,-2.4746,-2.4707,-2.498,-2.4941,-2.4805,-2.4648,-2.4773,-2.4648,-2.3945,-2.4238,-2.457,-2.4297,-2.459,-2.4844,-2.4668,-2.4785,-2.4727,-2.4277,-2.4102,-2.3906,0.0,-2.3184,-2.2984,-2.3296,-2.375,-2.3965,-2.3809,-2.4043,-2.3613,-2.2207,-2.2852,-2.2949,-2.2148,-2.2754,-2.3125,-2.3101,-2.3101,-2.3101,-2.3101,-2.3101,-2.3101,-2.3101,-2.3101,-2.3101,-2.3101,-2.3101,-2.3101,-2.3101,-2.3101,-2.3101,-2.3101,-2.3013,-2.2422,-2.1472,-2.0376,-1.9458,-1.8723,-1.9107,-1.9033,-1.8701,-3.1016,-3.0937,-3.082,-3.0371,-3.0957,-3.166,-3.2148,-3.3984,-3.5684,-3.666,-3.8242,-3.9766,-4.1113,-4.0898,-4.0801,-4.1191,-4.0449,-3.8887,-3.6387,-3.6152,-3.5,-3.25,-3.2344,-3.1719,-3.0391,-2.9922,-2.9082,-2.7845,-2.7787,-2.7748,-2.7728,-2.6797,-2.6602,-2.6992,-2.7012,-2.6543,-2.5752,-2.668,-2.6562,-2.5752,-2.5732,-2.5752,-2.5771,-2.5713,-2.622,-2.6914,-2.6025,-2.6259,-2.6953,-2.6562,-2.6953,-2.7513,-2.6621,-2.6328,-2.6055,-2.4785,-2.4687,-2.4851,-2.4023,-2.4102,-2.4297,-2.3906,-2.4121,-2.4316,-2.3906,-2.4473,-2.5106,-2.5106,-2.543,-2.5557,-2.5176,-2.5449,-2.5284,-2.4062,-2.416,-2.4082,-2.3218,-2.275,-2.2852,-2.3691,-2.4141,-2.4238,-2.3828,-2.3789,-2.3437,-2.2578,-2.1736,-2.1639,-2.248,-2.2148,-2.2305,-2.3081,-2.3101,-2.3101,-2.3101,-2.3101,-2.3101,-2.3101,-2.3101,-2.3101,-2.3101,-2.3101,-2.3101,-2.3101,-2.3101,-2.3101,-2.3057,-2.2882,-2.2201,-2.1159,-2.0002,-1.9097,-1.8474,-1.8366,-1.873,-1.9272,-3.1504,-3.1621,-3.1797,-3.168,-3.1328,-3.1523,-3.2891,-3.3848,-3.541,-3.8184,-3.9512,-4.0801,-4.2422,-4.248,-4.2344,-4.2129,-4.1328,-4.0293,-3.8984,-3.7988,-3.6855,-3.5566,-3.4902,-3.3945,-3.2617,-3.1875,-3.0859,-2.9551,-2.8594,-2.8125,-2.8105,-2.6934,-2.6445,-2.6562,-2.6875,-2.6543,-2.5771,-2.6992,-2.7187,-2.666,-2.6348,-2.6602,-2.707,-2.6064,-2.622,-2.6953,-2.6406,-2.6562,-2.6992,-2.6894,-2.6797,-2.6621,-2.6074,-2.5449,-2.4863,-2.4512,-2.4043,-2.373,-2.4141,-2.4102,-2.4004,-2.4199,-2.4336,-2.4394,-2.4277,-2.4668,-2.5106,-2.5106,-2.543,-2.5654,-2.5586,-2.5615,-2.5527,-2.4844,-2.4297,-2.3769,-2.3179,-2.3003,-2.3184,-2.373,-2.3887,-2.3906,-2.3809,-2.3789,-2.3437,-2.2578,-2.2555,-2.2574,-2.2519,-2.2715,-2.2867,-2.3081,-2.3101,-2.3101,-2.3101,-2.3101,-2.3101,-2.3101,-2.3101,-2.3101,-2.3101,-2.3101,-2.3101,-2.3101,-2.2925,-2.2882,-2.2838,-2.2618,-2.1935,-2.1015,-2.0197,-1.9174,-1.8139,-1.834,-1.8782,-1.9272,-3.2441,-3.2695,-3.2949,-3.2754,-3.2949,-3.3398,-3.416,-3.4648,-3.582,-3.832,-3.9902,-4.1094,-4.1875,-4.2637,-4.2969,-4.2734,-4.2109,-4.1211,-3.998,-3.9551,-3.8633,-3.7012,-3.6484,-3.5527,-3.4004,-3.2969,-3.1797,-3.0508,-2.9394,-2.875,-2.8535,-2.7266,-2.666,-2.666,-2.6719,-2.6484,-2.6074,-2.6992,-2.7246,-2.6992,-2.6758,-2.6836,0.0,-2.6309,-2.6211,-2.6426,-2.6191,-2.6367,-2.6738,-2.6738,-2.6699,-2.6582,-2.6152,-2.5684,-2.5156,-2.459,-2.4036,-2.3666,-2.3783,-2.3691,-2.3555,-2.3789,-2.4004,-2.4141,-2.4141,-2.4629,-2.5106,-2.5106,-2.543,-2.5635,-2.5488,-2.5605,-2.5479,-2.4883,-2.4062,-2.3496,-2.3437,-2.3062,-2.3164,-2.3965,-2.3906,-2.3789,-2.3789,-2.3633,-2.3242,-2.2559,-2.2734,-2.2808,-2.275,-2.2964,-2.3179,-2.3418,-2.3418,-2.3418,-2.3418,-2.3418,-2.3276,-2.3101,-2.3013,-2.2969,-2.2969,-2.2838,-2.2882,-2.2969,-2.2706,-2.2706,-2.2769,-2.2586,-2.2213,-2.1635,-2.0576,-1.9463,-1.8484,-1.8283,-1.849,-1.8907,-3.3437,-3.3867,-3.4101,-3.3594,-3.5,-3.6152,-3.5996,-3.6348,-3.7031,-3.8203,-4.0195,-4.1367,-4.0976,-4.2266,-4.3164,-4.3164,-4.2754,-4.1855,-4.0332,-4.082,-4.0117,-3.7734,-3.7519,-3.668,-3.5,-3.3652,-3.2344,-3.1055,-3.0059,-2.9297,-2.873,-2.7559,-2.6953,-2.6836,-2.6523,-2.6445,-2.6582,-2.6953,-2.7129,-2.7187,-2.7129,-2.6875,-2.6543,-2.6426,-2.6152,-2.5771,-2.5713,-2.5977,-2.6309,-2.6309,-2.6543,-2.6777,-2.6426,-2.6269,-2.5996,-2.4844,-2.4414,-2.418,-2.3374,-2.314,-2.3101,-2.3101,-2.3418,-2.3711,-2.3769,-2.4414,-2.5047,-2.5106,-2.543,-2.5577,-2.5234,-2.543,-2.5343,-2.4629,-2.3848,-2.3501,-2.3828,-2.3198,-2.312,-2.4251,-2.4056,0.0,-2.3744,-2.3457,-2.3066,-2.2617,-2.2598,-2.2711,-2.3081,-2.3101,-2.3296,-2.3769,-2.3789,-2.3764,-2.3822,-2.3828,-2.3549,-2.3091,-2.2901,-2.2794,-2.275,-2.253,-2.253,-2.2706,-2.2485,-2.2523,-2.2777,-2.2689,-2.2621,-2.2446,-2.103,-1.9969,-1.9102,-1.848,-1.8279,-1.837,-3.3555,-3.4355,-3.4902,-3.4101,-3.5684,-3.7539,-3.8906,-3.9473,-3.9941,-4.0527,-4.2148,-4.3223,-4.3164,-4.3418,-4.3594,-4.3594,-4.3203,-4.2676,-4.2031,-4.1465,-4.0664,-3.9492,-3.875,-3.7715,-3.6367,-3.4707,-3.3223,-3.1934,-3.0409,-2.9039,-2.7924,-2.7285,-2.6641,-2.5927,-2.6269,-2.6777,-2.7493,-2.7571,-2.7754,-2.8027,-2.7695,-2.7552,-2.7415,-2.666,-2.6348,-2.623,-2.581,-2.5732,-2.581,-2.581,-2.5849,-2.5908,-2.583,-2.5605,-2.5302,-2.5067,-2.4453,-2.3867,-2.3711,-2.3418,-2.3101,-2.3101,-2.3159,-2.3296,-2.3711,-2.418,-2.4629,-2.5047,-2.543,-2.5674,-2.5596,-2.5371,-2.5184,-2.498,-2.4531,-2.4219,-2.4297,-2.3997,-2.384,-2.4117,-2.4033,-2.384,-2.3493,-2.3641,-2.3496,-2.3023,-2.2984,-2.3023,-2.3081,-2.2925,-2.3119,-2.3769,-2.3609,-2.3628,-2.3975,-2.3874,-2.3525,-2.3024,-2.2878,-2.2662,-2.2485,-2.2441,-2.2441,-2.2441,-2.222,-2.2382,-2.2681,-2.2483,-2.2236,-2.199,-2.1737,-2.0628,-1.9206,-1.9332,-1.8684,-1.7793,-3.5176,-3.5625,-3.6133,-3.6367,-3.7832,-3.9473,-4.0976,-4.2148,-4.2461,-4.1328,-4.2266,-4.2793,-4.2129,-4.3262,-4.3965,-4.373,-4.3516,-4.3223,-4.2793,-4.2168,-4.1445,-4.0605,-3.9492,-3.8301,-3.7031,-3.5078,-3.3555,-3.25,-3.0527,-2.9141,-2.8301,-2.7422,-2.668,-2.6094,-2.6523,-2.707,-2.7728,-2.7891,-2.8105,-2.8281,-2.8066,-2.7904,-2.7669,-2.7207,-2.6914,-2.666,-2.623,-2.6074,-2.6035,-2.5771,-2.5693,-2.5693,-2.5693,-2.5586,-2.5371,-2.5184,-2.4832,-2.4401,-2.3906,-2.3633,-2.3418,-2.3159,-2.3101,-2.3198,-2.3691,-2.4121,-2.4531,-2.498,-2.543,-2.5693,-2.5693,-2.5566,-2.5332,-2.5145,-2.4883,-2.4746,-2.4746,-2.4318,-2.4121,-2.4399,-2.4085,-2.3687,-2.3286,-2.3474,-2.3479,-2.312,-2.3207,-2.3158,-2.2989,-2.2961,-2.3178,-2.3736,-2.3599,-2.3648,-2.3858,0.0,-2.3389,-2.2681,-2.2536,-2.2353,-2.222,-2.2087,-2.2244,-2.2539,-2.2314,-2.251,-2.2991,-2.2962,-2.2973,-2.3054,-2.2443,-2.1695,-2.0775,-1.9813,-1.9034,-1.8408,-3.7187,-3.7285,-3.7695,-3.8789,-4.0215,-4.1543,-4.2539,-4.418,-4.4512,-4.2285,-4.2578,-4.2558,-4.1465,-4.3164,-4.4219,-4.375,-4.3711,-4.3535,-4.3105,-4.2676,-4.2051,-4.1211,-4.0,-3.8789,-3.7598,-3.5449,-3.3848,-3.2793,-3.082,-2.9434,-2.8633,-2.7715,-2.7012,-2.6543,-2.6953,-2.7344,-2.7748,-2.8125,-2.8301,-2.8301,-2.8301,-2.8086,-2.7845,-2.7748,-2.7461,-2.709,-2.668,-2.6523,-2.6465,-2.6133,-2.583,-2.5693,-2.5693,-2.5693,-2.5615,-2.5312,-2.5184,-2.4969,-2.4238,-2.3926,-2.3711,-2.3315,-2.3159,-2.3179,-2.3574,-2.3984,-2.4414,-2.4844,-2.5352,-2.5693,-2.5693,-2.5693,-2.5577,-2.5226,-2.5215,-2.5215,-2.5052,-2.4572,-2.423,-2.4383,-2.4003,-2.3531,-2.2945,-2.3145,-2.3275,-2.308,-2.3229,-2.3185,-2.2813,-2.2974,-2.3256,-2.3719,-2.3626,-2.372,-2.3843,0.0,-2.321,-2.2483,-2.2225,-2.2099,-2.2128,-2.1905,-2.217,-2.2741,-2.2511,-2.2796,-2.3343,-2.3558,-2.3859,-2.4102,-2.3188,-2.2736,-2.2266,-2.0518,-1.9591,-1.9124,-3.8887,-3.9316,-3.9746,-4.0254,-4.2031,-4.3437,-4.3574,-4.5058,-4.582,-4.4805,-4.4726,-4.459,-4.4082,-4.4258,-4.4219,-4.375,-4.3711,-4.3535,-4.3105,-4.2676,-4.2051,-4.1211,-4.0312,-3.9394,-3.8476,-3.6367,-3.4453,-3.2793,-3.1426,-2.9746,-2.7845,-2.8047,-2.7734,-2.6973,-2.7422,-2.7689,-2.7748,-2.8125,-2.8301,-2.8301,-2.8301,-2.8262,-2.8184,-2.7865,-2.7689,-2.7539,-2.7109,-2.6953,-2.6953,-2.6914,-2.6337,-2.5693,-2.5693,-2.5693,-2.5674,-2.5635,-2.5391,-2.5106,-2.5008,-2.4375,-2.3769,-2.373,-2.3437,-2.3101,-2.314,-2.3535,-2.3965,-2.4394,-2.5089,-2.5693,-2.5693,-2.5693,-2.5625,-2.5324,-2.547,-2.547,-2.4982,-2.4846,-2.4447,-2.3523,-2.3719,-2.3429,-2.2318,-2.2768,-2.3093,-2.3036,-2.3088,-2.3052,-2.2794,-2.2929,-2.3237,-2.3719,-2.3439,-2.37,-2.4417,-2.3598,-2.3045,-2.2832,-2.2324,-2.2158,-2.2263,-2.2263,-2.2502,-2.2905,-2.284,-2.3078,-2.3529,-2.3932,-2.4165,-2.4202,-2.4102,-2.3388,-2.2467,-2.2266,-2.0928,-1.9176,-4.1055,-4.0879,-4.1133,-4.2598,-4.3125,-4.3769,-4.5058,-4.5859,-4.6172,-4.584,-4.5566,-4.5156,-4.4473,-4.4394,-4.4219,-4.375,-4.3711,-4.3633,-4.3457,-4.2812,-4.2285,-4.1933,-4.0625,-3.9609,-3.8965,-3.6855,-3.5039,-3.3555,-3.2012,-3.043,-2.8863,-2.8457,-2.7832,-2.7051,-2.7734,-2.8047,-2.8066,-2.8496,-2.8828,-2.9043,-2.8769,-2.8672,-2.8652,-2.8476,-2.8262,-2.7988,-2.7559,-2.7402,-2.7363,-2.7109,-2.6621,-2.6133,-2.6133,-2.5957,-2.5752,-2.6055,-2.582,-2.5469,-2.5469,-2.5019,-2.4492,-2.4238,-2.4043,-2.3861,-2.3861,-2.4238,-2.4656,-2.4766,-2.5293,-2.5693,-2.5693,-2.5596,-2.543,-2.5333,-2.5235,-2.5137,-2.4941,-2.4775,-2.4328,-2.3392,-2.3325,-2.2907,-2.1976,-2.2255,-2.2576,-2.2801,-2.2851,-2.2915,-2.3107,-2.2785,-2.2908,-2.3558,-2.3259,-2.336,-2.3864,-2.3306,-2.2852,-2.2529,-2.2097,-2.2023,-2.2272,-2.2272,-2.2638,-2.3279,-2.3565,-2.3767,-2.3914,-2.4128,-2.4202,-2.4202,-2.4202,-2.3904,-2.3473,-2.3029,-2.1737,-2.0168,-4.2871,-4.2422,-4.2558,-4.4609,-4.4433,-4.4531,-4.6074,-4.6308,-4.625,-4.6133,-4.5742,-4.5254,-4.4648,-4.4473,-4.4219,-4.375,-4.3711,-4.3711,-4.3711,-4.291,-4.2422,-4.2422,-4.0801,-3.9746,-3.9414,-3.7305,-3.5566,-3.4258,-3.2676,-3.1152,-2.9746,-2.9004,-2.834,-2.7793,-2.8398,-2.8672,-2.8691,-2.8984,-2.9297,-2.9607,-2.9238,-2.9023,-2.8926,-2.8926,-2.8652,-2.8262,-2.7949,-2.7904,-2.7865,-2.75,-2.7109,-2.6738,-2.6621,-2.6269,-2.5996,-2.6289,-2.6074,-2.5693,-2.5693,-2.5508,-2.5156,-2.4727,-2.4609,-2.457,-2.4453,-2.4648,-2.4902,-2.4944,-2.5285,-2.5547,-2.5479,-2.5333,-2.5137,-2.5088,-2.499,-2.4843,-2.4695,-2.4578,-2.4219,-2.3465,-2.322,-2.2767,-2.1943,-2.2049,-2.2295,-2.2574,-2.2565,-2.2741,-2.3084,-2.2908,-2.2952,-2.3316,0.0,0.0,-2.3712,-2.3169,-2.2821,-2.2638,-2.2236,-2.2254,-2.2638,-2.2813,-2.318,-2.3749,-2.4152,-2.4312,-2.422,-2.433,-2.4312,-2.4202,-2.4202,-2.4202,-2.4157,-2.373,-2.2501,-2.1012,-4.4121,-4.3984,-4.4219,-4.5976,-4.6269,-4.6269,-4.6289,-4.6308,-4.6152,-4.5742,-4.5312,-4.5039,-4.5019,-4.4648,-4.4219,-4.375,-4.3711,-4.3711,-4.3711,-4.291,-4.2422,-4.2422,-4.0801,-3.9902,-3.9883,-3.7773,-3.6016,-3.4687,-3.3398,-3.1894,-3.0176,-2.9746,-2.9607,-2.9607,-2.9551,-2.9551,-2.9551,-2.9607,-2.957,-2.9626,-2.957,-2.9297,-2.8926,-2.8926,-2.8652,-2.8301,-2.8281,-2.8281,-2.8281,-2.8281,-2.7988,-2.7578,-2.7148,-2.6719,-2.6387,-2.6387,-2.6074,-2.5693,-2.5693,-2.5693,-2.5625,-2.5176,-2.5106,-2.4941,-2.4512,-2.4414,-2.4458,-2.4669,-2.4996,-2.5235,-2.499,-2.4892,-2.4843,-2.4529,-2.4745,-2.4745,-2.4251,-2.4399,-2.4233,-2.3584,-2.348,-2.3169,-2.2346,-2.2318,-2.2318,-2.2272,-2.2272,-2.241,-2.2702,-2.3419,-2.3603,-2.2931,-2.3279,0.0,-2.4183,-2.3345,-2.3096,-2.348,-2.3078,-2.3096,-2.3499,-2.395,-2.4183,-2.422,-2.4643,-2.4587,-2.4238,-2.4661,-2.4587,-2.4202,-2.4202,-2.4202,-2.4257,-2.4629,-2.3289,-2.1328,-4.5508,-4.5586,-4.5644,-4.6211,-4.6308,-4.6211,-4.5918,-4.5879,-4.5625,-4.4902,-4.4687,-4.4375,-4.3769,-4.3828,-4.3867,-4.3711,-4.3711,-4.3574,-4.3301,-4.2734,-4.2305,-4.2012,-4.0644,-3.9902,-3.9902,-3.834,-3.6894,-3.5605,-3.459,-3.291,-3.0664,-3.0527,-3.0156,-2.9646,-2.9863,-3.0,-3.0,-3.0,-3.0176,-3.0449,-3.0117,-2.9746,-2.9355,-2.9355,-2.8926,-2.8301,-2.8301,-2.8301,-2.8301,-2.8301,-2.8203,-2.8066,-2.793,-2.7402,-2.6875,-2.7168,-2.6953,-2.6602,-2.6602,-2.6406,-2.6074,-2.5644,-2.5527,-2.5362,-2.4744,-2.46,-2.4669,-2.4802,-2.5091,-2.5235,-2.4941,-2.4726,-2.4578,-2.4529,-2.4449,-2.435,-2.4202,-2.4251,-2.4104,-2.3535,-2.3499,-2.3279,-2.2748,-2.2455,-2.251,-2.3059,-2.2858,-2.2758,-2.2852,-2.3091,-2.3264,0.0,-2.3425,0.0,-2.4202,-2.362,-2.337,-2.3499,-2.3096,-2.3114,-2.3517,-2.3969,-2.4367,-2.4643,-2.4721,-2.4867,-2.5047,-2.5176,-2.5157,-2.5029,-2.5029,-2.5029,-2.5084,-2.5488,-2.3947,-2.1777,-4.5957,-4.6074,-4.6113,-4.6269,-4.6172,-4.5976,-4.5723,-4.541,-4.5,-4.4473,-4.4258,-4.3926,-4.3379,-4.3555,-4.3633,-4.3476,-4.3476,-4.3281,-4.2871,-4.2422,-4.1933,-4.1348,-4.041,-3.9824,-3.9648,-3.8359,-3.7305,-3.6504,-3.5137,-3.332,-3.1133,-3.1133,-3.0742,-3.0078,-3.0351,-3.0449,-3.0449,-3.0449,-3.0625,-3.0859,-3.0566,-3.0195,-2.9805,-2.9805,-2.9277,-2.8535,-2.8535,-2.8437,-2.8301,-2.8301,-2.8301,-2.8301,-2.8174,-2.7868,-2.7577,-2.7519,-2.7189,-2.6858,-2.6858,-2.6679,-2.6415,-2.5935,-2.5946,-2.5857,-2.5083,-2.4852,-2.4783,-2.4737,-2.4892,-2.4941,-2.4695,-2.4628,-2.4622,-2.4622,-2.449,-2.444,-2.444,-2.4312,-2.411,-2.3804,-2.3767,-2.362,-2.3169,-2.2895,-2.2821,-2.3023,-2.295,-2.284,-2.2675,-2.3114,-2.3407,-2.3499,-2.3694,-2.3895,-2.4202,-2.3895,-2.3767,-2.3767,-2.3675,-2.3767,-2.4024,-2.4427,-2.4808,-2.5014,-2.5212,-2.5341,-2.5433,-2.558,-2.5561,-2.5414,-2.5414,-2.5414,-2.547,-2.5874,-2.431,-2.2196,-4.5683,-4.5703,-4.584,-4.623,-4.5976,-4.5683,-4.5605,-4.4941,-4.4394,-4.4277,-4.3926,-4.3691,-4.3633,-4.3633,-4.3496,-4.3066,-4.3066,-4.2871,-4.2363,-4.1973,-4.1367,-4.0527,-4.0078,-3.9648,-3.9219,-3.8008,-3.7344,-3.7246,-3.5156,-3.3262,-3.1641,-3.1621,-3.1387,-3.0976,-3.0957,-3.0937,-3.0937,-3.0898,-3.0898,-3.0898,-3.0898,-3.0605,-3.0195,-3.0195,-2.9687,-2.8965,-2.8965,-2.8711,-2.8379,-2.8379,-2.8379,-2.8325,-2.8057,-2.8199,-2.8279,-2.7453,-2.6954,-2.6718,-2.6609,-2.6721,-2.6679,-2.6116,-2.6244,-2.6301,-2.5503,-2.5096,-2.4831,-2.4585,-2.4554,-2.4523,-2.4306,-2.4587,-2.4812,-2.4794,-2.4776,-2.4776,-2.4739,-2.4459,-2.4202,-2.4202,-2.4202,-2.4055,-2.3572,-2.3517,-2.3187,-2.2502,-2.2748,-2.2785,-2.2465,0.0,-2.3969,-2.3499,-2.395,-2.4202,-2.4202,-2.4202,-2.422,-2.4257,-2.4679,-2.4831,-2.4831,-2.5197,-2.5433,-2.5488,-2.5855,-2.5819,-2.5543,-2.5911,-2.5837,-2.5454,-2.5454,-2.5454,-2.5543,-2.5911,-2.4501,-2.2513,-4.5683,-4.5937,-4.6191,-4.6289,-4.623,-4.582,-4.4844,-4.4805,-4.4394,-4.3066,-4.3359,-4.3457,-4.2793,-4.3027,-4.3047,-4.2617,-4.2891,-4.2617,-4.1543,-4.1387,-4.0937,-4.0078,-3.9609,-3.9316,-3.9199,-3.8594,-3.7793,-3.6816,-3.5293,-3.4004,-3.2969,-3.2637,-3.2266,-3.1855,-3.1523,-3.1367,-3.1348,-3.1035,-3.0898,-3.0898,-3.0898,-3.0605,-3.0195,-3.0195,-2.9863,-2.9414,-2.9414,-2.9355,-2.9277,-2.9277,-2.9111,-2.8889,-2.8834,-2.8495,-2.8007,-2.7476,-2.7476,-2.7514,-2.694,-2.6793,-2.6702,-2.6172,-2.5767,-2.5464,-2.5665,-2.5339,-2.4995,-2.478,-2.5122,-2.5303,-2.4735,-2.501,-2.5142,-2.4831,-2.4776,-2.4666,-2.4404,-2.4257,-2.4202,-2.4202,-2.4202,-2.4165,-2.4073,-2.373,-2.3584,-2.3761,-2.3529,-2.3444,-2.3761,-2.4055,-2.3969,-2.3499,-2.395,-2.4202,-2.4202,-2.4202,-2.4367,-2.4629,-2.5084,-2.5286,-2.5234,-2.5378,-2.5598,-2.5874,-2.5966,-2.6149,-2.6316,-2.6408,-2.6389,-2.6298,-2.6298,-2.6298,-2.6316,-2.6408,-2.4916,-2.2863,-4.5957,-4.6152,-4.6308,-4.6308,-4.6152,-4.5723,-4.4824,-4.4375,-4.3867,-4.3105,-4.3086,-4.3086,-4.3027,-4.3223,-4.3105,-4.248,-4.2461,-4.2109,-4.123,-4.0976,-4.0488,-3.9609,-3.9336,-3.9101,-3.8926,-3.8496,-3.7754,-3.668,-3.5957,-3.5059,-3.3984,-3.3379,-3.2851,-3.2441,-3.2012,-3.1816,-3.1777,-3.1367,-3.1172,-3.1152,-3.0976,-3.0742,-3.0508,-3.0508,-3.0197,-2.9694,-2.9694,-2.9577,-2.9346,-2.9346,-2.9234,-2.9066,-2.8954,-2.8634,-2.8239,-2.7734,-2.7547,-2.7431,-2.6999,-2.6779,-2.6633,-2.6327,-2.574,-2.5344,-2.574,-2.5507,-2.5237,-2.5102,-2.5371,-2.5515,-2.5139,-2.5381,-2.5561,-2.5106,-2.5051,-2.4904,-2.4551,-2.433,-2.4202,-2.4202,-2.4202,-2.4202,-2.4202,-2.395,-2.384,-2.3877,-2.384,-2.384,-2.3877,-2.411,-2.411,-2.3822,-2.4091,-2.4293,-2.4477,-2.4661,-2.4882,-2.5051,-2.5506,-2.569,-2.5708,-2.5839,-2.6041,-2.6243,-2.6243,-2.6371,-2.6591,-2.6591,-2.6591,-2.6591,-2.6591,-2.6591,-2.6591,-2.6591,-2.5055,-2.2974,-4.6211,-4.625,-4.6308,-4.6308,-4.5957,-4.5508,-4.5,-4.3926,-4.3281,-4.3574,-4.2969,-4.2832,-4.3613,-4.3652,-4.3281,-4.25,-4.2051,-4.1601,-4.1113,-4.0664,-4.0059,-3.9238,-3.9141,-3.8945,-3.8574,-3.8086,-3.748,-3.6758,-3.6582,-3.5859,-3.4687,-3.3887,-3.3301,-3.2871,-3.2461,-3.2266,-3.2226,-3.1797,-3.1621,-3.1582,-3.1152,-3.0996,-3.0976,-3.0859,-3.0413,-2.9853,-2.9796,-2.9604,-2.9297,-2.9221,-2.924,-2.9184,-2.8937,-2.8764,-2.8644,-2.8081,-2.7549,-2.7102,-2.7047,-2.6828,-2.6554,-2.6472,-2.5959,-2.5577,-2.586,-2.5718,-2.5506,-2.5506,-2.5561,-2.5527,-2.5525,-2.5837,-2.5984,-2.558,-2.547,-2.5286,-2.4831,-2.4477,-2.4202,-2.4202,-2.4202,-2.4202,-2.4202,-2.4202,-2.4005,-2.3657,-2.395,-2.4055,-2.3657,-2.3969,-2.4202,-2.4202,-2.4257,-2.4496,-2.4867,-2.5323,-2.5506,-2.5525,-2.5911,-2.6113,-2.6113,-2.6426,-2.6591,-2.6591,-2.6591,-2.6591,-2.6591,-2.6591,-2.6591,-2.6591,-2.6591,-2.6591,-2.6591,-2.6591,-2.5183,-2.3255,-4.5781,-4.6055,-4.6308,-4.6308,-4.5957,-4.541,-4.4609,-4.3984,-4.3496,-4.3223,-4.3066,-4.3164,-4.3652,-4.3379,-4.2969,-4.2461,-4.2051,-4.1465,-4.0684,-4.0234,-3.9766,-3.9219,-3.8867,-3.8633,-3.8574,-3.7793,-3.7324,-3.7207,-3.6113,-3.5293,-3.4687,-3.4199,-3.375,-3.3301,-3.2891,-3.2695,-3.2676,-3.2246,-3.207,-3.2031,-3.1601,-3.1426,-3.1327,-3.0703,-3.0412,-3.0296,-3.0003,-3.0076,-3.0246,-2.9905,-2.9861,-2.9849,-2.9493,-2.896,-2.8428,-2.8315,-2.8005,-2.7621,-2.7289,-2.6903,-2.6573,-2.6554,-2.6223,-2.6021,-2.637,-2.6168,-2.5929,-2.5929,-2.6205,-2.6298,-2.5984,-2.626,-2.6353,-2.5984,-2.5635,-2.5286,-2.4831,-2.4477,-2.4202,-2.4202,-2.4202,-2.4202,-2.4202,-2.4202,-2.4183,-2.411,-2.4165,-2.4183,-2.411,-2.4165,-2.4202,-2.4202,-2.4551,-2.4867,-2.5271,-2.5727,-2.5929,-2.5929,-2.6279,-2.6481,-2.6499,-2.6554,-2.6591,-2.6591,-2.6591,-2.6591,-2.6591,-2.6591,-2.6591,-2.6591,-2.6591,-2.6591,-2.6591,-2.6591,-2.5734,-2.439,-4.5625,-4.584,-4.6035,-4.6269,-4.5957,-4.5391,-4.4531,-4.3808,-4.3301,-4.3105,-4.2676,-4.2637,-4.3301,-4.2988,-4.2558,-4.2129,-4.1914,-4.1543,-4.0918,-4.0254,-3.9805,-3.959,-3.8926,-3.8574,-3.8574,-3.8184,-3.7871,-3.7637,-3.6816,-3.6191,-3.5742,-3.4844,-3.4297,-3.4082,-3.3418,-3.3,-3.2836,-3.238,-3.2046,-3.1866,-3.1386,-3.1191,-3.1093,-3.0586,-3.0409,-3.0422,-3.0143,-3.0287,-3.0607,-3.0419,-3.0373,-3.0382,-3.0176,-2.9661,-2.903,-2.903,-2.8425,-2.7785,-2.7601,-2.7196,-2.6903,-2.6903,-2.6591,-2.6353,-2.6554,-2.6444,-2.6298,-2.6298,-2.6444,-2.6536,-2.6388,-2.6463,-2.6444,-2.6076,-2.5672,-2.5286,-2.4831,-2.4477,-2.4293,-2.4514,-2.4551,-2.4551,-2.4551,-2.4551,-2.4551,-2.4551,-2.4551,-2.4643,-2.4845,-2.4863,-2.4863,-2.4863,-2.5047,-2.5341,-2.5745,-2.6149,-2.6298,-2.6352,-2.6499,-2.6591,-2.6591,-2.6591,-2.6591,-2.6591,-2.6591,-2.6591,-2.6591,-2.6591,-2.6591,-2.6591,-2.6591,-2.6591,-2.6591,-2.6591,-2.5861,-2.4612,-4.541,-4.5449,-4.5488,-4.5801,-4.5586,-4.5098,-4.4219,-4.3437,-4.293,-4.293,-4.2344,-4.2187,-4.2851,-4.2715,-4.2363,-4.1836,-4.1797,-4.1621,-4.1211,-4.0371,-3.9902,-3.9902,-3.9043,-3.8574,-3.8574,-3.8476,-3.8203,-3.7773,-3.7363,-3.6894,-3.6348,-3.5332,-3.4805,-3.4668,-3.3906,-3.3384,-3.3027,-3.2525,-3.2157,-3.1757,-3.1246,-3.1132,-3.1172,-3.0527,-3.0346,-3.0468,-3.0032,-3.0074,-3.0451,-3.0376,-3.0408,-3.0538,-3.0445,-3.0137,-2.9727,-2.9727,-2.9067,-2.83,-2.7932,-2.7545,-2.7306,-2.7306,-2.7013,-2.6719,-2.6719,-2.6646,-2.6591,-2.6591,-2.6591,-2.6591,-2.6591,-2.6591,-2.6481,-2.6205,-2.5819,-2.5451,-2.5106,-2.4753,-2.4606,-2.4886,-2.4922,-2.4922,-2.4922,-2.4922,-2.4922,-2.4922,-2.4922,-2.5051,-2.5414,-2.5414,-2.547,-2.5561,-2.5561,-2.5745,-2.6149,-2.6426,-2.6591,-2.6591,-2.6591,-2.6591,-2.6591,-2.6591,-2.6591,-2.6591,-2.6591,-2.6591,-2.6591,-2.6591,-2.6591,-2.6591,-2.6591,-2.6591,-2.6591,-2.6591,-2.6026,-2.5055,-4.4902,-4.4766,-4.4512,-4.4531,-4.4512,-4.4199,-4.3301,-4.2773,-4.248,-4.248,-4.2422,-4.2402,-4.2461,-4.2812,-4.2695,-4.1875,-4.1797,-4.1621,-4.1211,-4.0371,-3.9902,-3.9902,-3.9043,-3.8574,-3.8574,-3.8184,-3.7773,-3.7344,-3.6914,-3.6289,-3.5488,-3.5391,-3.5117,-3.4687,-3.4219,-3.383,-3.3553,-3.3027,-3.2604,-3.2219,-3.1757,-3.1767,-3.1932,-3.0462,-3.0187,-3.0449,-2.9457,-2.9347,-2.9623,-2.9255,-2.9641,-3.0192,-2.9806,-2.9935,-3.0149,-3.0149,-3.0094,-2.969,-2.8168,-2.7803,-2.7785,-2.7785,-2.7416,-2.7141,-2.7141,-2.6848,-2.6591,-2.6591,-2.6591,-2.6591,-2.6591,-2.6591,-2.6573,-2.6554,-2.6241,-2.5966,-2.5929,-2.558,-2.5341,-2.5378,-2.5378,-2.5378,-2.5378,-2.5378,-2.5378,-2.5378,-2.5378,-2.5396,-2.5414,-2.5414,-2.5598,-2.5966,-2.5966,-2.6168,-2.6536,-2.6573,-2.6591,-2.6591,-2.6591,-2.6591,-2.6591,-2.6591,-2.6591,-2.6591,-2.6591,-2.6591,-2.6591,-2.6591,-2.6591,-2.6591,-2.6591,-2.6591,-2.6591,-2.6591,-2.6537,-2.63,-4.3691,-4.3691,-4.3652,-4.3926,-4.375,-4.3476,-4.3125,-4.248,-4.2129,-4.2402,-4.2207,-4.2031,-4.2031,-4.2187,-4.2051,-4.1465,-4.1406,-4.1348,-4.1191,-4.0879,-4.0215,-3.9121,-3.875,-3.8574,-3.8574,-3.8418,-3.8125,-3.7676,-3.7266,-3.6758,-3.6172,-3.5644,-3.5293,-3.5098,-3.4394,-3.3889,-3.3572,-3.2835,-3.2325,-3.1965,-3.1712,-3.1661,-3.1725,-3.0727,-3.0736,-3.1224,-3.0137,-2.9984,-3.0296,-3.0149,-3.0149,-3.0167,-3.002,-2.9892,-2.9819,-2.9819,-2.9819,-2.9727,-2.9379,-2.9085,-2.8943,-2.8943,-2.8407,-2.793,-2.793,-2.7618,-2.7306,-2.7306,-2.7306,-2.7289,-2.6995,-2.6958,-2.6866,-2.6628,-2.6278,-2.6021,-2.6021,-2.5672,-2.5506,-2.5764,-2.5782,-2.5782,-2.5782,-2.5782,-2.5782,-2.5782,-2.5782,-2.5911,-2.6114,-2.6133,-2.6188,-2.6353,-2.6353,-2.6426,-2.6591,-2.6591,-2.6591,-2.6591,-2.6591,-2.6591,-2.6591,-2.6591,-2.6591,-2.6591,-2.6591,-2.6591,-2.6591,-2.6591,-2.6591,-2.6591,-2.6591,-2.6591,-2.6591,-2.6591,-2.6591,-2.6427,-4.3144,-4.2949,-4.2812,-4.3223,-4.3066,-4.2793,-4.2519,-4.2207,-4.2051,-4.2207,-4.209,-4.1953,-4.1816,-4.1797,-4.1621,-4.1211,-4.1172,-4.1172,-4.1172,-4.1035,-4.0371,-3.9043,-3.8848,-3.8711,-3.8574,-3.8574,-3.8359,-3.793,-3.7637,-3.7207,-3.666,-3.6074,-3.5723,-3.5566,-3.4673,-3.4088,-3.3589,-3.2734,-3.2106,-3.1671,-3.1679,-3.175,-3.1773,-3.118,-3.1304,-3.1696,-3.0729,-3.0552,-3.0772,-3.0644,-3.0681,-3.0699,-3.0314,-3.0094,-2.9984,-3.0094,-3.0149,-3.0204,-3.0497,-3.0369,-3.0075,-2.9837,-2.9269,-2.8737,-2.8608,-2.826,-2.793,-2.7858,-2.7822,-2.7748,-2.7416,-2.727,-2.7086,-2.6811,-2.6426,-2.6205,-2.6205,-2.5984,-2.5858,-2.6186,-2.6205,-2.6205,-2.6205,-2.6205,-2.6205,-2.6205,-2.6205,-2.6279,-2.6573,-2.6591,-2.6591,-2.6591,-2.6591,-2.6591,-2.6591,-2.6591,-2.6591,-2.6591,-2.6591,-2.6591,-2.6591,-2.6591,-2.6591,-2.6591,-2.6591,-2.6591,-2.6591,-2.6591,-2.6591,-2.6591,-2.6591,-2.6591,-2.6591,-2.6591,-2.6591,-2.6482,-4.3437,-4.2656,-4.1933,-4.2344,-4.2422,-4.2129,-4.1308,-4.1894,-4.2266,-4.1855,-4.2168,-4.2266,-4.1836,-4.1797,-4.1621,-4.1211,-4.1172,-4.1172,-4.1172,-4.0762,-4.0332,-3.9922,-3.9453,-3.9004,-3.8594,-3.8574,-3.8359,-3.793,-3.793,-3.75,-3.668,-3.668,-3.6445,-3.5996,-3.5162,-3.4404,-3.3634,-3.2824,-3.2059,-3.1332,-3.1709,-3.2003,-3.2253,-3.1941,-3.1797,-3.1715,-3.1043,-3.0791,-3.0736,-3.0351,-3.1011,-3.1799,-3.0589,-3.0479,-3.0864,-3.1249,-3.1377,-3.1377,-3.1377,-3.1377,-3.1194,-3.0406,-2.9892,-2.947,-2.9085,-2.8682,-2.8278,-2.7914,-2.784,-2.784,-2.7822,-2.7509,-2.7178,-2.7178,-2.6848,-2.6591,-2.6591,-2.6591,-2.6591,-2.6591,-2.6591,-2.6591,-2.6591,-2.6591,-2.6591,-2.6591,-2.6591,-2.6591,-2.6591,-2.6591,-2.6591,-2.6591,-2.6591,-2.6591,-2.6591,-2.6591,-2.6591,-2.6591,-2.6591,-2.6591,-2.6591,-2.6591,-2.6591,-2.6591,-2.6591,-2.6591,-2.6591,-2.6591,-2.6591,-2.6591,-2.6591,-2.6591,-2.6591,-2.6591,-2.6591,-2.6591,-4.1855,-4.1621,-4.1406,-4.1523,-4.1543,-4.1562,-4.1601,-4.1582,-4.1601,-4.1777,-4.1914,-4.1836,-4.1406,-4.1621,-4.1621,-4.1211,-4.1172,-4.1172,-4.1172,-4.1055,-4.0781,-4.0351,-3.9609,-3.9004,-3.8594,-3.8574,-3.8516,-3.8379,-3.8066,-3.7793,-3.7539,-3.6953,-3.6601,-3.6445,-3.5568,-3.4911,-3.4423,-3.3653,-3.2899,-3.2171,-3.2539,-3.2561,-3.234,-3.1954,-3.2137,-3.2547,-3.1561,-3.1396,-3.1616,-3.1506,-3.1506,-3.1414,-3.0497,-3.0662,-3.1121,-3.0681,-3.0937,-3.1322,-3.1047,-3.1176,-3.1322,-3.1084,-3.0717,-3.0314,-2.9929,-2.9525,-2.9104,-2.87,-2.8627,-2.8535,-2.826,-2.8113,-2.7838,-2.727,-2.7362,-2.7215,-2.6664,-2.683,-2.6903,-2.6628,-2.6591,-2.6591,-2.6591,-2.6591,-2.6591,-2.6591,-2.6591,-2.6591,-2.6591,-2.6591,-2.6591,-2.6591,-2.6591,-2.6591,-2.6591,-2.6591,-2.6719,-2.6995,-2.6719,-2.6738,-2.6995,-2.6719,-2.6591,-2.6591,-2.6591,-2.6591,-2.6591,-2.6591,-2.6591,-2.6537,-2.5679,-2.5844,-2.6482,-2.5624,-2.5844,-2.6482,-4.1601,-4.1406,-4.123,-4.1387,-4.1289,-4.125,-4.1523,-4.1484,-4.1504,-4.1758,-4.1797,-4.1699,-4.1445,-4.1504,-4.1445,-4.1191,-4.1172,-4.1172,-4.1172,-4.1172,-4.0976,-4.0547,-4.0019,-3.9453,-3.8828,-3.8652,-3.8652,-3.8828,-3.8398,-3.8184,-3.8164,-3.748,-3.6992,-3.6641,-3.5996,-3.5365,-3.4816,-3.4031,-3.334,-3.2814,-3.2973,-3.299,-3.2857,-3.2441,-3.2592,-3.2944,-3.1967,-3.1799,-3.1983,-3.1818,-3.1579,-3.1341,-3.1194,-3.1359,-3.1561,-3.1249,-3.1488,-3.1781,-3.1377,-3.1451,-3.1579,-3.1414,-3.1194,-3.0919,-3.0516,-3.0241,-2.9892,-2.9324,-2.9214,-2.9085,-2.87,-2.8498,-2.8223,-2.7746,-2.7785,-2.7656,-2.7123,-2.7251,-2.727,-2.6866,-2.683,-2.6756,-2.6609,-2.6591,-2.6591,-2.6591,-2.6591,-2.6591,-2.6591,-2.6591,-2.6591,-2.6591,-2.6591,-2.6664,-2.6811,-2.6664,-2.6701,-2.694,-2.6866,-2.694,-2.716,-2.694,-2.683,-2.6811,-2.6664,-2.6591,-2.6591,-2.6591,-2.6591,-2.6482,-2.5293,-2.5514,-2.6464,-2.5238,-2.5569,-2.6427,-4.2168,-4.1699,-4.1289,-4.168,-4.1426,-4.1172,-4.1172,-4.1504,-4.1738,-4.1738,-4.1738,-4.1738,-4.1738,-4.1406,-4.1172,-4.1172,-4.1172,-4.1172,-4.1172,-4.1172,-4.0996,-4.0605,-4.0547,-4.0137,-3.9336,-3.8906,-3.8887,-3.9258,-3.8828,-3.8633,-3.8613,-3.8144,-3.7519,-3.6777,-3.6352,-3.5731,-3.4931,-3.4237,-3.3655,-3.3225,-3.3096,-3.3284,-3.3615,-3.3208,-3.3114,-3.3086,-3.2467,-3.2203,-3.2093,-3.1634,-3.1488,-3.1616,-3.2313,-3.2349,-3.2166,-3.2459,-3.2588,-3.2551,-3.2074,-3.1983,-3.1891,-3.1433,-3.1341,-3.1267,-3.0882,-3.0791,-3.0571,-2.9782,-2.9635,-2.9507,-2.9104,-2.8737,-2.848,-2.8407,-2.8095,-2.7914,-2.784,-2.7858,-2.7673,-2.727,-2.7233,-2.7068,-2.6683,-2.6646,-2.6646,-2.6646,-2.6683,-2.6683,-2.6646,-2.6683,-2.6701,-2.6701,-2.6701,-2.6866,-2.7233,-2.6866,-2.6701,-2.6701,-2.6995,-2.7141,-2.7178,-2.7141,-2.7123,-2.7105,-2.6738,-2.6591,-2.6591,-2.6591,-2.6537,-2.63,-2.511,-2.5293,-2.6136,-2.5055,-2.5404,-2.6245,-4.1406,-4.1308,-4.1211,-4.1289,-4.123,-4.1172,-4.1172,-4.125,-4.1308,-4.1308,-4.1308,-4.1308,-4.1308,-4.123,-4.1172,-4.1172,-4.1172,-4.1172,-4.1172,-4.1172,-4.1133,-4.1035,-4.0703,-4.043,-4.0234,-3.9824,-3.9648,-3.9746,-3.9297,-3.9062,-3.9043,-3.8281,-3.7832,-3.7617,-3.6883,-3.6286,-3.5797,-3.499,-3.427,-3.3625,-3.3599,-3.3393,-3.3273,-3.3468,-3.3748,-3.3997,-3.39,-3.3688,-3.3303,-3.257,-3.2331,-3.2313,-3.2184,-3.2514,-3.2845,-3.2294,-3.2588,-3.2863,-3.1799,-3.1763,-3.1836,-3.1102,-3.1157,-3.1267,-3.0882,-3.0791,-3.0644,-3.0167,-3.0057,-2.9947,-2.9525,-2.9379,-2.9104,-2.8498,-2.8572,-2.8498,-2.7914,-2.804,-2.8113,-2.7748,-2.7693,-2.7546,-2.7086,-2.705,-2.705,-2.705,-2.7343,-2.738,-2.7068,-2.7343,-2.7564,-2.7564,-2.7564,-2.7601,-2.7693,-2.7601,-2.7564,-2.7508,-2.6976,-2.6885,-2.716,-2.6848,-2.6719,-2.6719,-2.6628,-2.6591,-2.6591,-2.6591,-2.6026,-2.5055,-2.3888,-2.3536,-2.376,-2.348,-2.4167,-2.5,-4.1172,-4.1172,-4.1172,-4.1172,-4.1172,-4.1172,-4.1172,-4.1172,-4.1172,-4.1172,-4.1172,-4.1172,-4.1172,-4.1172,-4.1172,-4.1172,-4.1172,-4.1172,-4.1172,-4.1172,-4.1094,-4.0841,-4.088,-4.0743,-4.0511,-4.0529,-4.0312,-3.9902,-3.9238,-3.9004,-3.9199,-3.8535,-3.8125,-3.791,-3.7461,-3.6981,-3.6363,-3.5578,-3.5023,-3.459,-3.3972,-3.378,-3.3979,-3.3743,-3.3818,-3.4041,-3.39,-3.345,-3.2918,-3.268,-3.2588,-3.2551,-3.2349,-3.2845,-3.3413,-3.2991,-3.3175,-3.3321,-3.2478,-3.2423,-3.2386,-3.1579,-3.1524,-3.1524,-3.0919,-3.0937,-3.0901,-3.0314,-3.0351,-3.0351,-2.9947,-2.9709,-2.9434,-2.9012,-2.8975,-2.8828,-2.8407,-2.8535,-2.8517,-2.8113,-2.8058,-2.7911,-2.7546,-2.7509,-2.7509,-2.7509,-2.7711,-2.773,-2.7528,-2.7711,-2.7822,-2.7822,-2.7822,-2.7914,-2.8058,-2.7932,-2.7932,-2.8058,-2.7655,-2.7563,-2.7746,-2.7545,-2.7453,-2.7435,-2.7233,-2.7141,-2.7141,-2.694,-2.6185,-2.4962,-2.3545,-2.2974,-2.2974,-2.2974,-2.3424,-2.376,-4.1172,-4.1172,-4.1172,-4.1172,-4.1172,-4.1172,-4.1172,-4.1172,-4.1172,-4.1172,-4.1172,-4.1172,-4.1172,-4.1172,-4.1172,-4.1172,-4.1172,-4.1172,-4.1172,-4.1172,-4.0997,-4.0666,-4.0997,-4.1016,-4.0588,-4.0938,-4.0742,-4.0117,-3.9297,-3.9043,-3.9316,-3.8887,-3.8457,-3.8027,-3.7969,-3.7539,-3.6875,-3.6029,-3.5603,-3.5401,-3.4383,-3.4288,-3.4841,-3.4301,-3.4115,-3.4065,-3.3914,-3.3243,-3.2423,-3.2478,-3.2533,-3.2588,-3.2514,-3.3046,-3.3707,-3.3707,-3.3762,-3.3725,-3.334,-3.323,-3.3046,-3.2294,-3.2111,-3.1909,-3.1157,-3.1194,-3.1194,-3.0534,-3.0662,-3.0772,-3.0369,-3.002,-2.9727,-2.9599,-2.9305,-2.9067,-2.8993,-2.8975,-2.8865,-2.8535,-2.8443,-2.8278,-2.8003,-2.7911,-2.7875,-2.7875,-2.7987,-2.8005,-2.7932,-2.7987,-2.8024,-2.8024,-2.8024,-2.8208,-2.8498,-2.815,-2.815,-2.8498,-2.8498,-2.8425,-2.8278,-2.8278,-2.8278,-2.826,-2.7911,-2.7822,-2.7803,-2.7416,-2.643,-2.4952,-2.3699,-2.2859,-2.241,-2.2636,-2.2805,-2.2805,-4.1172,-4.1172,-4.1172,-4.1172,-4.1172,-4.1172,-4.1172,-4.1172,-4.1172,-4.1172,-4.1172,-4.1172,-4.1172,-4.1172,-4.1172,-4.1172,-4.1172,-4.1172,-4.1172,-4.1172,-4.1172,-4.1094,-4.1172,-4.1172,-4.1094,-4.0801,-4.0742,-4.0996,-4.0508,-4.0098,-3.9785,-3.9336,-3.8887,-3.8476,-3.8086,-3.7851,-3.7663,-3.6584,-3.5939,-3.5565,-3.5034,-3.4694,-3.46,-3.5513,-3.5664,-3.5411,-3.6053,-3.5351,-3.3872,-3.2533,-3.2313,-3.2533,-3.2203,-3.2643,-3.3303,-3.3303,-3.3541,-3.3725,-3.334,-3.323,-3.3101,-3.2643,-3.2514,-3.2404,-3.1946,-3.1598,-3.1341,-3.1231,-3.1267,-3.1176,-3.0791,-3.0662,-3.0387,-2.969,-2.9525,-2.9379,-2.903,-2.8975,-2.8957,-2.8902,-2.8608,-2.8517,-2.8792,-2.8517,-2.8315,-2.8315,-2.8627,-2.8663,-2.8333,-2.8627,-2.881,-2.881,-2.881,-2.8847,-2.8902,-2.8847,-2.8847,-2.8902,-2.8902,-2.8535,-2.7914,-2.7914,-2.7914,-2.7914,-2.784,-2.7822,-2.7822,-2.7767,-2.6189,-2.386,-2.3885,-2.2225,-1.9996,-2.106,-2.207,-2.2805,-4.1172,-4.1172,-4.1172,-4.1172,-4.1172,-4.1172,-4.1172,-4.1172,-4.1172,-4.1172,-4.1172,-4.1172,-4.1172,-4.1172,-4.1172,-4.1172,-4.1172,-4.1172,-4.1172,-4.1172,-4.1094,-4.0841,-4.1094,-4.1094,-4.0841,-4.0822,-4.0976,-4.1172,-4.0508,-3.9941,-3.9492,-3.9297,-3.8984,-3.8574,-3.8379,-3.8,-3.7532,-3.6608,-3.5987,-3.5534,-3.467,-3.4513,-3.4788,-3.5569,-3.5645,-3.532,-3.5631,-3.5207,-3.4293,-3.3578,-3.3468,-3.3578,-3.3395,-3.3596,-3.389,-3.389,-3.3853,-3.378,-3.3596,-3.356,-3.345,-3.3046,-3.2955,-3.2845,-3.2423,-3.2184,-3.2001,-3.1781,-3.1726,-3.1671,-3.1506,-3.1102,-3.0662,-3.0314,-3.0075,-2.9782,-2.936,-2.9305,-2.9232,-2.9012,-2.8828,-2.8792,-2.8975,-2.8828,-2.8718,-2.8718,-2.8883,-2.8902,-2.8737,-2.8883,-2.8975,-2.8975,-2.8975,-2.8975,-2.8975,-2.8975,-2.8975,-2.8975,-2.8975,-2.8792,-2.8443,-2.8443,-2.8443,-2.8443,-2.8443,-2.8443,-2.8425,-2.8205,-2.658,-2.4114,-2.3859,-2.2382,-2.0385,-2.027,-2.1061,-2.2042]},{"header":{"parameterUnit":"m.s-1","parameterCategory":1,"la1":30.6,"la2":28.766,"lo1":-90.7593,"lo2":-88.6598,"dy":0.0162,"dx":0.0183,"nx":116,"ny":114,"refTime":"2024-05-10T12:00:00:Z","depth":0,"parameterNumber":3,"parameterNumberName":"V-component_of_WINDS"},"data":[0.0,0.0,0.0,0.0,0.0,0.0,0.0,0.0,0.0,0.0,0.0,0.0,0.0,0.0,0.0,0.0,0.0,0.0,0.0,0.0,0.0,0.0,0.0,0.0,0.0,0.0,0.0,0.0,0.0,0.0,0.0,0.0,0.0,0.0,0.0,0.0,0.0,0.0,0.0,0.0,0.0,0.0,0.0,0.0,0.0,0.0,0.0,0.0,0.0,0.0,0.0,0.0,0.0,0.0,0.0,0.0,0.0,0.0,0.0,0.0,0.0,0.0,0.0,0.0,0.0,0.0,0.0,0.0,0.0,0.0,0.0,0.0,0.0,0.0,0.0,0.0,0.0,0.0,0.0,0.0,0.0,0.0,0.0,0.0,0.0,0.0,0.0,0.0,0.0,0.0,0.0,0.0,0.0,0.0,0.0,0.0,0.0,0.0,0.0,0.0,0.0,0.0,0.0,0.0,0.0,0.0,0.0,0.0,0.0,0.0,0.0,0.0,0.0,0.0,0.0,0.0,0.0,0.0,0.0,0.0,0.0,0.0,0.0,0.0,0.0,0.0,0.0,0.0,0.0,0.0,0.0,0.0,0.0,0.0,0.0,0.0,0.0,0.0,0.0,0.0,0.0,0.0,0.0,0.0,0.0,0.0,0.0,0.0,0.0,0.0,0.0,0.0,0.0,0.0,0.0,0.0,0.0,0.0,0.0,0.0,0.0,0.0,0.0,0.0,0.0,0.0,0.0,0.0,0.0,0.0,0.0,0.0,0.0,0.0,0.0,0.0,0.0,0.0,0.0,0.0,0.0,0.0,0.0,0.0,0.0,0.0,0.0,0.0,0.0,0.0,0.0,0.0,0.0,0.0,0.0,0.0,0.0,0.0,0.0,0.0,0.0,0.0,0.0,0.0,0.0,0.0,0.0,0.0,0.0,0.0,0.0,0.0,0.0,0.0,0.0,0.0,0.0,0.0,0.0,0.0,0.0,0.0,0.0,0.0,0.0,0.0,0.0,0.0,0.0,0.0,0.0,0.0,0.0,0.0,0.0,0.0,0.0,0.0,0.0,0.0,0.0,0.0,0.0,0.0,0.0,0.0,0.0,0.0,0.0,0.0,0.0,0.0,0.0,0.0,0.0,0.0,0.0,0.0,0.0,0.0,0.0,0.0,0.0,0.0,0.0,0.0,0.0,0.0,0.0,0.0,0.0,0.0,0.0,0.0,0.0,0.0,0.0,0.0,0.0,0.0,0.0,0.0,0.0,0.0,0.0,0.0,0.0,0.0,0.0,0.0,0.0,0.0,0.0,0.0,0.0,0.0,0.0,0.0,0.0,0.0,0.0,0.0,0.0,0.0,0.0,0.0,0.0,0.0,0.0,0.0,0.0,0.0,0.0,0.0,0.0,0.0,0.0,0.0,0.0,0.0,0.0,0.0,0.0,0.0,0.0,0.0,0.0,0.0,0.0,0.0,0.0,0.0,0.0,0.0,0.0,0.0,0.0,0.0,0.0,0.0,0.0,0.0,0.0,0.0,0.0,0.0,0.0,0.0,0.0,0.0,0.0,0.0,0.0,0.0,0.0,0.0,0.0,0.0,0.0,0.0,0.0,0.0,0.0,0.0,0.0,0.0,0.0,0.0,0.0,0.0,0.0,0.0,0.0,0.0,0.0,0.0,0.0,0.0,0.0,0.0,0.0,0.0,0.0,0.0,0.0,0.0,0.0,0.0,0.0,0.0,0.0,0.0,0.0,0.0,0.0,0.0,0.0,0.0,0.0,0.0,0.0,0.0,0.0,0.0,0.0,0.0,0.0,0.0,0.0,0.0,0.0,0.0,0.0,0.0,0.0,0.0,0.0,0.0,0.0,0.0,0.0,0.0,0.0,0.0,0.0,0.0,0.0,0.0,0.0,0.0,0.0,0.0,0.0,0.0,0.0,0.0,0.0,0.0,0.0,0.0,0.0,0.0,0.0,0.0,0.0,0.0,0.0,0.0,0.0,0.0,0.0,0.0,0.0,0.0,0.0,0.0,0.0,0.0,0.0,0.0,0.0,0.0,0.0,0.0,0.0,0.0,0.0,0.0,0.0,0.0,0.0,0.0,0.0,0.0,0.0,0.0,0.0,0.0,0.0,0.0,0.0,0.0,0.0,0.0,0.0,0.0,0.0,0.0,0.0,0.0,0.0,0.0,0.0,0.0,0.0,0.0,0.0,0.0,0.0,0.0,0.0,0.0,0.0,0.0,0.0,0.0,0.0,0.0,0.0,0.0,0.0,0.0,0.0,0.0,0.0,0.0,0.0,0.0,0.0,0.0,0.0,0.0,0.0,0.0,0.0,0.0,0.0,0.0,0.0,0.0,0.0,0.0,0.0,0.0,0.0,0.0,0.0,0.0,0.0,0.0,0.0,0.0,0.0,0.0,0.0,0.0,0.0,0.0,0.0,0.0,0.0,0.0,0.0,0.0,0.0,0.0,0.0,0.0,0.0,0.0,0.0,0.0,0.0,0.0,0.0,0.0,0.0,0.0,0.0,0.0,0.0,0.0,0.0,0.0,0.0,0.0,0.0,0.0,0.0,0.0,0.0,0.0,0.0,0.0,0.0,0.0,0.0,0.0,0.0,0.0,0.0,0.0,0.0,0.0,0.0,0.0,0.0,0.0,0.0,0.0,0.0,0.0,0.0,0.0,0.0,0.0,0.0,0.0,0.0,0.0,0.0,0.0,0.0,0.0,0.0,0.0,0.0,0.0,0.0,0.0,0.0,0.0,0.0,0.0,0.0,0.0,0.0,0.0,0.0,0.0,0.0,0.0,0.0,0.0,0.0,0.0,0.0,0.0,0.0,0.0,0.0,0.0,0.0,0.0,0.0,0.0,0.0,0.0,0.0,0.0,0.0,0.0,0.0,0.0,0.0,0.0,0.0,0.0,0.0,0.0,0.0,0.0,0.0,0.0,0.0,0.0,0.0,0.0,0.0,0.0,0.0,0.0,0.0,0.0,0.0,0.0,0.0,0.0,0.0,0.0,0.0,0.0,0.0,0.0,0.0,0.0,0.0,0.0,0.0,0.0,0.0,0.0,0.0,0.0,0.0,0.0,0.0,0.0,0.0,0.0,0.0,0.0,0.0,0.0,0.0,0.0,0.0,0.0,0.0,0.0,0.0,0.0,0.0,0.0,0.0,0.0,0.0,0.0,0.0,0.0,0.0,0.0,0.0,0.0,0.0,0.0,0.0,0.0,0.0,0.0,0.0,0.0,0.0,0.0,0.0,0.0,0.0,0.0,0.0,0.0,0.0,0.0,0.0,0.0,0.0,0.0,0.0,0.0,0.0,0.0,0.0,0.0,0.0,0.0,0.0,0.0,0.0,0.0,0.0,0.0,0.0,0.0,0.0,0.0,0.0,0.0,0.0,0.0,0.0,0.0,0.0,0.0,0.0,0.0,0.0,0.0,0.0,0.0,0.0,0.0,0.0,0.0,0.0,0.0,0.0,0.0,0.0,0.0,0.0,0.0,0.0,0.0,0.0,0.0,0.0,0.0,0.0,0.0,0.0,0.0,0.0,0.0,0.0,0.0,0.0,0.0,0.0,0.0,0.0,0.0,0.0,0.0,0.0,0.0,0.0,0.0,0.0,0.0,0.0,0.0,0.0,0.0,0.0,0.0,0.0,0.0,0.0,0.0,0.0,0.0,0.0,0.0,0.0,0.0,0.0,0.0,0.0,0.0,0.0,0.0,0.0,0.0,0.0,0.0,0.0,0.0,0.0,0.0,0.0,0.0,0.0,0.0,0.0,0.0,0.0,0.0,0.0,0.0,0.0,0.0,0.0,0.0,0.0,0.0,0.0,0.0,0.0,0.0,0.0,0.0,0.0,0.0,0.0,0.0,0.0,0.0,0.0,0.0,0.0,0.0,0.0,0.0,0.0,0.0,0.0,0.0,0.0,0.0,0.0,0.0,0.0,0.0,0.0,0.0,0.0,0.0,0.0,0.0,0.0,0.0,0.0,0.0,0.0,0.0,0.0,0.0,0.0,0.0,0.0,0.0,0.0,0.0,0.0,0.0,0.0,0.0,0.0,0.0,0.0,0.0,0.0,0.0,0.0,0.0,0.0,0.0,0.0,0.0,0.0,0.0,0.0,0.0,0.0,0.0,0.0,0.0,0.0,0.0,0.0,0.0,0.0,0.0,0.0,0.0,0.0,0.0,0.0,0.0,0.0,0.0,0.0,0.0,0.0,0.0,0.0,0.0,0.0,0.0,0.0,0.0,0.0,0.0,0.0,0.0,0.0,0.0,0.0,0.0,0.0,0.0,0.0,0.0,0.0,0.0,0.0,0.0,0.0,0.0,0.0,0.0,0.0,0.0,0.0,0.0,0.0,0.0,0.0,0.0,0.0,0.0,0.0,0.0,0.0,0.0,0.0,0.0,0.0,0.0,0.0,0.0,0.0,0.0,0.0,0.0,0.0,0.0,0.0,0.0,0.0,0.0,0.0,0.0,0.0,0.0,0.0,0.0,0.0,0.0,0.0,0.0,0.0,0.0,0.0,0.0,0.0,0.0,0.0,0.0,0.0,0.0,0.0,0.0,0.0,0.0,0.0,0.0,0.0,0.0,0.0,0.0,0.0,0.0,0.0,0.0,0.0,0.0,0.0,0.0,0.0,0.0,0.0,0.0,0.0,0.0,0.0,0.0,0.0,0.0,0.0,0.0,0.0,0.0,0.0,0.0,0.0,0.0,0.0,0.0,0.0,0.0,0.0,0.0,0.0,0.0,0.0,0.0,0.0,0.0,0.0,0.0,0.0,0.0,0.0,0.0,0.0,0.0,0.0,0.0,0.0,0.0,0.0,0.0,0.0,0.0,0.0,0.0,0.0,0.0,0.0,0.0,0.0,0.0,0.0,0.0,0.0,0.0,0.0,0.0,0.0,0.0,0.0,0.0,0.0,0.0,0.0,0.0,0.0,0.0,0.0,0.0,0.0,0.0,0.0,0.0,0.0,0.0,0.0,0.0,0.0,0.0,0.0,0.0,0.0,0.0,0.0,0.0,0.0,0.0,0.0,0.0,0.0,0.0,0.0,0.0,0.0,0.0,0.0,0.0,0.0,0.0,0.0,0.0,0.0,0.0,0.0,0.0,0.0,0.0,0.0,0.0,0.0,0.0,0.0,0.0,0.0,0.0,0.0,0.0,0.0,0.0,0.0,0.0,0.0,0.0,0.0,0.0,0.0,0.0,0.0,0.0,0.0,0.0,0.0,0.0,0.0,0.0,0.0,0.0,0.0,0.0,0.0,0.0,0.0,0.0,0.0,0.0,0.0,0.0,0.0,0.0,0.0,0.0,0.0,0.0,0.0,0.0,0.0,0.0,0.0,0.0,0.0,0.0,0.0,0.0,0.0,0.0,0.0,0.0,0.0,0.0,0.0,0.0,0.0,0.0,0.0,0.0,0.0,0.0,0.0,0.0,0.0,0.0,0.0,0.0,0.0,0.0,0.0,0.0,0.0,0.0,0.0,0.0,0.0,0.0,0.0,0.0,0.0,0.0,0.0,0.0,0.0,0.0,0.0,0.0,0.0,0.0,0.0,0.0,0.0,0.0,0.0,0.0,0.0,0.0,0.0,0.0,0.0,0.0,0.0,0.0,0.0,0.0,0.0,0.0,0.0,0.0,0.0,0.0,0.0,0.0,0.0,0.0,0.0,0.0,0.0,0.0,0.0,0.0,0.0,0.0,0.0,0.0,0.0,0.0,0.0,0.0,0.0,0.0,0.0,0.0,0.0,0.0,0.0,0.0,0.0,0.0,0.0,0.0,0.0,0.0,0.0,0.0,0.0,0.0,0.0,0.0,0.0,0.0,0.0,0.0,0.0,0.0,0.0,0.0,0.0,0.0,0.0,0.0,0.0,0.0,0.0,0.0,0.0,0.0,0.0,0.0,0.0,0.0,0.0,0.0,0.0,0.0,0.0,0.0,0.0,0.0,0.0,0.0,0.0,0.0,0.0,0.0,0.0,0.0,0.0,0.0,0.0,0.0,0.0,0.0,0.0,0.0,0.0,0.0,0.0,0.0,0.0,0.0,0.0,0.0,0.0,0.0,0.0,0.0,0.0,0.0,0.0,0.0,0.0,0.0,3.4212,3.2612,0.0,0.0,0.0,0.0,0.0,0.0,0.0,0.0,0.0,0.0,0.0,0.0,0.0,0.0,0.0,0.0,0.0,0.0,0.0,0.0,0.0,0.0,0.0,3.9469,4.0113,4.0113,4.0113,4.0113,4.0113,0.0,0.0,0.0,0.0,0.0,0.0,0.0,3.7118,3.6875,3.6219,3.6412,3.7461,3.7769,3.703,3.5521,0.0,0.0,0.0,0.0,0.0,0.0,0.0,0.0,0.0,0.0,0.0,0.0,0.0,0.0,0.0,0.0,0.0,0.0,0.0,0.0,0.0,0.0,0.0,0.0,0.0,0.0,0.0,0.0,0.0,0.0,0.0,0.0,0.0,0.0,0.0,0.0,0.0,0.0,0.0,0.0,0.0,0.0,0.0,0.0,0.0,0.0,0.0,0.0,0.0,0.0,0.0,0.0,0.0,0.0,0.0,0.0,0.0,0.0,0.0,0.0,0.0,0.0,0.0,0.0,0.0,0.0,0.0,0.0,0.0,0.0,3.6953,3.5446,0.0,0.0,0.0,0.0,0.0,0.0,0.0,0.0,0.0,0.0,0.0,0.0,0.0,0.0,0.0,0.0,0.0,0.0,0.0,0.0,0.0,3.796,3.7922,3.9233,4.0172,4.0282,4.018,4.0146,4.0282,4.018,4.0113,4.0113,4.0113,3.9825,3.9189,3.9189,3.9005,3.855,3.8395,3.8748,3.9601,4.0732,3.9677,3.6939,3.6846,0.0,0.0,0.0,0.0,0.0,0.0,0.0,0.0,0.0,0.0,0.0,0.0,0.0,0.0,0.0,0.0,0.0,0.0,0.0,0.0,0.0,0.0,0.0,0.0,0.0,0.0,0.0,0.0,0.0,0.0,0.0,0.0,0.0,0.0,0.0,0.0,0.0,0.0,0.0,0.0,0.0,0.0,0.0,0.0,0.0,0.0,0.0,0.0,0.0,0.0,0.0,0.0,0.0,0.0,0.0,0.0,0.0,0.0,0.0,0.0,0.0,0.0,0.0,4.2025,4.2176,4.2243,4.2115,4.2115,4.2108,4.0952,3.9681,3.8364,3.7576,0.0,0.0,0.0,0.0,0.0,0.0,0.0,0.0,0.0,0.0,0.0,0.0,0.0,0.0,0.0,0.0,0.0,0.0,0.0,3.8207,3.7912,3.9306,4.0485,4.1001,4.046,4.0383,4.1001,4.0485,4.0113,4.0113,4.0113,3.9825,3.9189,3.9189,3.9226,3.9292,4.1024,4.2597,4.3987,4.4049,4.3531,4.2422,3.9524,3.8785,3.9551,0.0,0.0,0.0,0.0,0.0,0.0,0.0,0.0,0.0,0.0,0.0,0.0,0.0,0.0,0.0,0.0,0.0,0.0,0.0,0.0,0.0,0.0,0.0,0.0,0.0,0.0,0.0,0.0,0.0,0.0,0.0,0.0,0.0,0.0,0.0,0.0,0.0,0.0,0.0,0.0,0.0,3.7554,3.7075,0.0,0.0,0.0,0.0,0.0,0.0,0.0,0.0,0.0,0.0,0.0,0.0,0.0,4.2433,4.2854,4.5372,4.678,4.7081,4.8562,4.9368,4.9552,4.8946,4.8573,4.8389,4.7747,0.0,4.1248,3.9877,0.0,0.0,0.0,0.0,0.0,0.0,0.0,0.0,0.0,0.0,0.0,0.0,0.0,0.0,0.0,0.0,0.0,0.0,0.0,0.0,0.0,4.0601,4.2432,4.2686,4.3946,4.415,4.2717,4.2683,4.1944,4.018,4.0113,4.0155,4.0299,4.0333,4.1,4.244,4.4981,4.633,4.6534,4.7296,4.699,4.5772,4.3895,4.2109,4.0413,3.9244,0.0,0.0,0.0,0.0,0.0,0.0,0.0,0.0,0.0,0.0,0.0,0.0,0.0,0.0,0.0,0.0,0.0,0.0,0.0,0.0,0.0,0.0,0.0,0.0,0.0,0.0,0.0,0.0,0.0,0.0,0.0,0.0,0.0,0.0,0.0,0.0,0.0,0.0,0.0,3.7674,3.914,3.8093,3.896,3.8691,0.0,0.0,0.0,0.0,0.0,0.0,0.0,0.0,0.0,4.4283,4.6404,4.7851,4.8466,5.0398,5.1411,5.1533,5.2251,5.2471,5.215,5.1865,5.1209,5.0329,5.0096,4.8891,4.6852,4.4236,4.2111,4.0384,0.0,0.0,0.0,0.0,3.727,3.8114,0.0,0.0,0.0,0.0,0.0,0.0,0.0,0.0,0.0,0.0,0.0,0.0,3.9289,4.2279,4.4536,4.5296,4.7067,4.7182,4.4967,4.4456,4.3151,4.0756,4.0316,4.0451,4.117,4.2151,4.3884,4.6452,4.8954,5.005,4.9876,5.0895,5.0643,4.9309,4.8778,4.6268,4.2227,4.1212,3.9739,3.7984,0.0,0.0,0.0,0.0,0.0,0.0,0.0,0.0,0.0,0.0,0.0,0.0,0.0,0.0,0.0,0.0,0.0,0.0,0.0,0.0,0.0,0.0,0.0,0.0,0.0,0.0,0.0,0.0,0.0,0.0,0.0,0.0,0.0,0.0,0.0,0.0,0.0,4.0127,4.1683,3.9649,4.1923,4.2248,0.0,0.0,0.0,0.0,0.0,0.0,4.5765,4.6963,4.8314,4.9974,5.1861,5.3085,5.3588,5.4527,5.5154,5.5407,5.4963,5.4611,5.4274,5.392,5.2925,5.1534,5.1541,5.1366,5.087,4.7842,4.5652,4.3932,4.1853,4.0512,3.9719,3.9652,4.0187,4.114,0.0,0.0,0.0,0.0,0.0,0.0,0.0,0.0,0.0,0.0,0.0,4.0373,4.2372,4.4094,4.6282,4.9081,4.8094,4.7523,4.7958,4.4661,4.2539,4.2211,4.0857,4.0451,4.117,4.4688,4.797,5.0882,5.2357,5.3754,5.5142,5.5049,5.4657,5.3937,5.3905,5.1423,4.7004,4.3156,4.1832,4.2017,3.8754,0.0,0.0,0.0,0.0,0.0,0.0,0.0,0.0,0.0,0.0,0.0,0.0,0.0,0.0,0.0,0.0,0.0,0.0,0.0,0.0,0.0,0.0,0.0,0.0,0.0,0.0,0.0,0.0,0.0,0.0,0.0,0.0,0.0,0.0,0.0,0.0,0.0,0.0,4.265,4.6681,0.0,0.0,0.0,0.0,4.7564,4.6872,4.8012,5.1677,5.1632,5.2578,5.4984,5.6475,5.7316,5.7349,5.7362,5.7804,5.8646,5.7045,5.676,5.7522,5.6134,5.4623,5.3182,5.3255,5.2458,5.0968,4.941,4.8382,4.7615,4.5471,4.3782,4.2583,4.2525,4.3065,4.3902,0.0,0.0,0.0,3.6284,3.6297,3.6448,3.6965,3.7175,3.7475,3.7978,4.027,4.2299,4.3632,4.7341,5.0336,5.1894,5.2857,5.2654,5.0784,4.7928,4.5806,4.4652,4.2637,4.276,4.5438,4.824,5.0879,5.3382,5.4828,5.5773,5.6216,5.6171,5.5705,5.4964,5.4964,5.3834,5.167,4.8461,4.5913,4.3839,4.1262,3.8808,0.0,0.0,0.0,0.0,0.0,0.0,0.0,0.0,0.0,0.0,0.0,0.0,0.0,0.0,0.0,0.0,0.0,0.0,0.0,0.0,0.0,0.0,0.0,0.0,0.0,0.0,0.0,0.0,0.0,0.0,0.0,0.0,0.0,0.0,0.0,0.0,0.0,4.8238,5.1724,0.0,4.9639,5.0113,5.1087,5.2108,5.2716,5.4049,5.6302,5.7278,5.8375,5.9726,6.0778,6.1037,6.0576,6.0534,6.0199,5.9595,5.9012,5.8386,5.7773,5.6746,5.5501,5.4048,5.3585,5.2821,5.1911,5.1385,5.0763,4.991,4.7737,4.6619,4.6028,4.5074,4.5263,4.6046,0.0,3.6146,0.0,3.6284,3.6284,3.6559,3.7374,3.7654,3.8148,3.9215,4.1753,4.4139,4.601,5.0045,5.3253,5.477,5.5839,5.5361,5.2929,4.9791,4.7392,4.596,4.4563,4.5359,4.8673,5.1114,5.3348,5.5344,5.6562,5.7153,5.7067,5.7067,5.6729,5.6192,5.6192,5.5928,5.5375,5.3239,5.0174,4.6468,4.4129,4.2201,4.0448,0.0,0.0,0.0,0.0,0.0,0.0,0.0,0.0,0.0,0.0,0.0,0.0,0.0,0.0,0.0,0.0,0.0,0.0,0.0,0.0,0.0,0.0,0.0,0.0,0.0,0.0,0.0,0.0,0.0,0.0,0.0,0.0,0.0,0.0,4.9202,5.2115,5.2044,5.562,5.6937,5.4154,5.5076,5.6188,5.6967,5.7816,5.897,6.0554,6.1513,6.2398,6.3239,6.3504,6.3216,6.2221,6.2221,6.145,5.9993,5.9761,5.9131,5.8138,5.6879,5.5653,5.4494,5.3732,5.3036,5.2409,5.2409,5.2111,5.1514,4.9756,4.8961,4.8597,4.7371,4.7233,4.7489,3.518,3.5801,3.6284,3.6284,3.6284,3.6559,3.7387,3.8134,3.9146,4.0722,4.2965,4.5803,4.9597,5.2114,5.4701,5.7633,5.6529,5.5292,5.4375,4.9962,4.6914,4.5994,4.6598,4.8094,5.0521,5.3246,5.5378,5.6867,5.7543,5.7915,5.7915,5.7915,5.7881,5.7881,5.7881,5.7881,5.7848,5.7171,5.44,5.02,4.7331,4.6581,4.6746,0.0,0.0,0.0,0.0,0.0,0.0,0.0,0.0,0.0,0.0,0.0,0.0,0.0,0.0,0.0,0.0,0.0,0.0,0.0,0.0,0.0,0.0,0.0,0.0,0.0,0.0,0.0,0.0,0.0,0.0,0.0,0.0,0.0,4.8419,5.3168,5.5953,5.3984,5.8342,6.0369,5.7377,5.9404,6.1294,6.2236,6.2003,6.2631,6.4321,6.4093,6.436,6.5381,6.473,6.367,6.2255,6.2221,6.1417,5.996,5.9231,5.8866,5.8734,5.6542,5.5152,5.439,5.3699,5.3003,5.2409,5.2409,5.2409,5.2343,5.1614,5.085,5.0121,4.9392,4.8827,4.8216,3.518,3.5801,3.6284,3.6284,3.6284,3.6745,3.7944,3.8412,3.9296,4.1302,4.4613,4.7596,4.9769,5.3529,5.6426,5.7771,5.7012,5.6085,5.513,5.0716,4.7938,4.7554,4.9263,5.1543,5.4397,5.5076,5.6393,5.8423,5.8051,5.8152,5.8693,5.8152,5.7881,5.7881,5.7881,5.7881,5.7915,5.8254,5.7358,5.5451,5.1486,4.9085,4.759,0.0,0.0,0.0,0.0,0.0,0.0,0.0,0.0,0.0,0.0,0.0,0.0,0.0,0.0,0.0,0.0,0.0,0.0,0.0,0.0,0.0,0.0,0.0,0.0,0.0,0.0,0.0,0.0,0.0,0.0,0.0,5.0847,5.3841,5.4528,5.7869,6.075,6.1939,6.4503,6.5548,6.3957,6.4967,6.5387,6.4597,6.4926,6.5189,6.516,6.5024,6.5123,6.5381,6.4697,6.3902,6.3017,6.2487,6.1185,5.9198,5.8999,5.8071,5.6443,5.5317,5.439,5.3665,5.297,5.2572,5.2409,5.2409,5.2409,5.2343,5.1614,5.085,5.0121,4.9392,4.8033,4.6433,3.4283,3.5352,3.6159,3.5807,3.6056,3.6758,3.8196,3.8527,3.9503,4.2049,4.5474,4.8473,5.0591,5.4098,5.6558,5.7265,5.6351,5.5124,5.3619,5.0583,4.9095,4.9653,5.2047,5.4329,5.6369,5.7141,5.8186,5.9471,5.9032,5.8896,5.8998,5.8558,5.8186,5.7881,5.7881,5.7881,5.7915,5.8355,5.8287,5.7712,5.5497,5.363,5.1912,4.926,4.82,4.7967,4.6256,4.5832,4.5897,4.4593,0.0,0.0,0.0,0.0,0.0,0.0,0.0,0.0,0.0,0.0,0.0,0.0,0.0,0.0,0.0,0.0,0.0,0.0,0.0,0.0,0.0,0.0,0.0,0.0,5.5692,5.9142,6.1219,6.2215,6.3677,6.6055,6.6834,6.7157,6.6949,6.6908,6.6576,6.5922,6.5989,6.5856,6.5425,6.5425,6.5425,6.5425,6.4697,6.3835,6.2851,6.208,6.0755,5.8899,5.8601,5.7773,5.6481,5.5123,5.4295,5.3831,5.2804,5.2409,5.2409,5.2409,5.2409,5.2343,0.0,0.0,0.0,0.0,4.7766,4.6396,3.3179,3.4663,3.5883,3.5263,3.5704,3.6676,3.8126,3.8548,3.9755,4.2704,4.5797,4.8742,5.1435,5.4012,5.58,5.6415,5.5143,5.346,5.1326,5.0459,5.0716,5.2261,5.4802,5.654,5.7352,5.9278,6.0287,6.025,6.025,5.9911,5.9268,5.9167,5.8795,5.8118,5.8051,5.8017,5.8017,5.8017,5.7983,5.7949,5.8795,5.8626,5.7476,5.3585,5.2539,5.2829,5.0059,4.8431,4.7504,4.7176,0.0,0.0,0.0,0.0,0.0,0.0,0.0,0.0,0.0,0.0,0.0,0.0,0.0,0.0,0.0,0.0,0.0,0.0,0.0,0.0,0.0,0.0,0.0,0.0,6.0583,6.4059,6.7392,6.6103,6.5588,6.7584,6.7035,6.6823,6.7658,6.6877,6.6312,6.6485,6.5989,6.5591,6.5425,6.5425,0.0,0.0,0.0,6.368,6.2354,6.1516,6.0357,5.8899,5.8237,5.7773,5.7475,5.5454,5.4423,5.4328,5.297,5.2409,5.2409,5.2409,5.231,5.2075,5.1448,5.0717,4.9889,4.8463,4.7625,4.7116,3.3923,3.4234,3.4835,3.5883,3.5676,3.5987,3.7742,3.8657,3.9992,4.2277,4.5703,4.8463,4.9908,5.3082,5.5426,5.6169,5.5306,5.4254,5.316,5.3089,5.4017,5.605,5.6878,5.8081,5.9735,6.0751,6.1253,6.1061,6.1061,6.0994,6.0858,6.0182,5.981,5.9641,5.9066,5.8795,5.8795,5.8795,5.8457,5.8017,5.9336,5.9099,5.7848,5.7611,5.7234,5.6723,5.5542,5.5741,5.6138,5.375,5.2567,5.1552,4.8928,4.6483,0.0,0.0,0.0,0.0,0.0,0.0,0.0,0.0,0.0,0.0,0.0,0.0,0.0,0.0,0.0,0.0,0.0,0.0,0.0,6.0811,6.3924,6.6762,6.9042,6.8702,6.8412,6.9064,6.893,6.8784,6.8798,6.8958,6.8321,6.6651,6.6904,6.6684,6.5492,6.5425,6.5425,6.5425,6.4167,6.3415,6.3116,6.1781,6.0357,5.8899,5.8767,0.0,5.5979,5.499,5.4195,5.3566,5.2738,5.2409,5.2409,5.2409,5.1678,5.0618,5.0485,4.9955,4.9061,4.7006,4.6175,4.5939,3.3377,3.4401,3.5297,3.5551,3.5669,3.6215,3.7575,3.8307,3.954,4.1956,4.4556,4.6799,4.8437,5.0645,5.2121,5.2373,5.207,5.2156,5.291,5.4641,5.6817,5.9444,6.0812,6.2054,6.3237,6.3218,6.3162,6.2969,6.2242,6.167,6.1298,6.0892,6.0486,6.008,5.9708,5.937,5.9032,5.9032,5.8592,5.7983,5.9099,5.9099,5.8524,5.9268,5.9099,5.8457,5.8457,5.8457,5.822,5.6731,5.554,5.4283,5.2068,4.9858,4.7629,0.0,0.0,0.0,0.0,0.0,0.0,0.0,0.0,0.0,0.0,0.0,0.0,0.0,0.0,5.301,5.5243,0.0,6.1231,6.4613,6.6745,6.8562,7.0288,7.0005,6.9748,6.9958,6.9099,6.8831,6.9741,6.899,6.8165,6.7297,6.7596,6.7119,6.5492,6.5757,6.579,6.5425,6.4034,6.3315,6.3315,6.145,5.9993,5.8899,5.8535,5.7574,5.615,5.5421,5.4659,5.393,5.3202,5.2705,5.2409,5.2409,5.1512,5.022,5.022,4.9525,4.8431,4.7305,4.6474,4.5806,3.2608,3.4507,3.5799,3.5069,3.553,3.636,3.7339,3.7851,3.905,4.1502,4.3322,4.5143,4.7108,4.8223,4.8742,4.8489,4.9518,5.0994,5.2986,5.6446,5.9688,6.2653,6.4607,6.5738,6.6074,6.5581,6.5038,6.4446,6.3363,6.2368,6.1501,6.1501,6.1163,6.0554,6.0385,6.0013,5.9438,5.9302,5.8795,5.8186,5.893,5.9066,5.8896,5.9776,5.9742,5.9268,5.9742,5.893,5.7679,5.7679,5.6697,5.531,5.4262,5.2976,5.1285,4.8308,4.7225,0.0,0.0,0.0,0.0,0.0,0.0,0.0,0.0,4.8511,4.9729,5.3315,5.5378,5.7476,6.0622,6.255,6.4715,6.7827,6.9011,6.9958,7.1142,7.0804,7.0434,7.0431,6.9009,6.8673,7.044,6.8908,6.7948,6.8281,6.8135,6.7378,6.5824,6.6145,6.6067,6.547,6.4078,6.3315,6.3315,6.1251,5.9761,5.8899,5.8303,5.7541,5.6647,5.5951,5.5185,5.4423,5.3599,5.2904,5.2409,5.2409,5.1512,5.022,5.022,4.9326,4.7968,4.7669,4.6904,4.5901,3.2593,3.3932,3.5035,3.4995,3.5021,3.5435,3.6539,3.7662,3.8978,4.0627,4.292,4.488,4.6131,4.7415,4.8145,4.799,5.2069,5.5067,5.5957,5.997,6.3358,6.5773,6.6164,6.6214,6.6021,6.66,6.5849,6.3617,6.411,6.3661,6.2279,6.2279,6.2212,6.211,6.1467,6.1129,6.0994,6.0283,5.9573,5.8964,5.9674,5.9201,5.8186,5.9573,6.0047,5.9911,5.9336,5.8186,5.6934,5.6934,5.5953,5.4803,5.531,5.4905,5.3619,5.0608,4.8815,4.7094,4.4085,4.3443,4.4559,4.8409,4.8443,4.9258,0.0,5.6562,5.6562,5.9674,6.2009,6.3802,6.4884,6.6846,6.8707,6.9755,7.0567,7.1109,7.1312,7.1244,7.0929,7.0276,6.9838,6.9906,7.0769,7.0452,6.9913,6.9377,6.8662,6.7881,6.7045,6.6301,6.5836,6.5736,6.4165,6.3315,6.3315,6.1748,6.0291,5.8899,5.8833,5.8038,5.6647,5.5951,5.5185,5.446,5.3069,5.244,5.2409,5.2409,5.1512,5.022,5.022,4.9326,4.7835,4.651,4.5978,4.5647,3.2528,3.3679,3.47,3.4819,3.5224,3.5749,3.6381,3.7165,3.8209,3.9523,4.0818,4.214,4.3555,4.4614,4.5161,4.5123,4.9591,5.2951,5.4196,5.9932,6.4383,6.6743,6.8222,6.911,6.9368,6.8808,6.7764,6.6173,6.5572,6.4526,6.3057,6.3057,6.2821,6.2381,6.2076,6.1704,6.1298,6.0926,6.0114,5.9032,5.9336,5.8829,5.7915,5.8118,5.7915,5.7577,5.7679,5.6765,0.0,5.5006,5.416,5.3416,5.4194,5.3315,5.1657,4.9965,4.8714,4.7703,4.6887,4.6684,4.7327,5.0067,5.0947,5.2334,5.6731,5.7915,5.9066,6.2516,6.4986,6.688,6.8098,6.9451,7.05,7.0804,7.1109,7.1312,7.1312,7.0939,7.0398,6.9654,6.9059,6.9184,7.04,6.9873,6.9334,6.9066,6.8596,6.7714,6.6456,6.6257,6.599,6.5559,6.4121,6.3315,6.3315,6.1848,6.0357,5.8899,5.8899,5.8138,5.668,5.6382,5.562,5.439,5.3003,5.2409,5.2376,5.2016,5.1288,5.0257,4.9825,4.9028,4.8032,4.7337,4.6573,4.5806,3.2394,3.3384,3.429,3.4592,3.5346,3.5975,3.6156,3.662,3.736,3.8595,3.9085,4.0,4.174,4.2596,4.3031,4.3031,4.7284,5.0744,5.2576,5.9306,6.4412,6.7101,6.942,7.0944,7.1463,7.035,6.9194,6.8078,6.7015,6.5648,6.4126,6.4126,6.3736,6.299,6.299,6.2584,6.1907,6.1907,6.0892,5.9302,5.9302,5.8626,5.7509,5.6799,5.5649,5.4532,5.531,5.4363,5.2672,5.2131,5.115,5.0371,5.1589,5.0811,4.939,4.8849,4.8037,4.7432,4.8206,4.868,4.9458,5.1386,5.3281,5.5243,5.7239,5.9032,6.1129,6.4275,6.6339,6.8064,6.9586,7.05,7.1007,7.1007,7.1176,7.1312,7.1312,7.05,6.962,6.8876,6.8098,6.7963,6.8842,6.8678,6.8614,6.9008,6.845,6.7636,6.6579,6.6379,6.6078,6.5514,6.4078,6.3216,6.3017,6.1516,6.0059,5.8601,5.8601,5.7906,5.668,5.6282,5.5521,5.439,5.3003,5.2409,5.2343,5.1755,5.1092,5.0326,4.9659,4.8925,4.826,4.8163,4.72,4.5903,3.2158,3.2916,3.366,3.437,3.5115,3.5622,3.5622,3.6006,3.6769,3.7953,3.8473,3.9478,4.1505,4.2411,4.2901,4.2901,4.6719,5.0162,5.2526,5.8685,6.3757,6.7064,6.9249,7.0477,7.0604,7.0482,6.963,6.8078,6.8038,6.7235,6.5738,6.5738,6.5275,6.4546,6.4546,6.414,6.3463,6.3463,6.2144,6.008,6.008,5.8761,5.6765,5.6021,5.3889,5.1454,5.2164,5.0574,4.8075,4.8075,4.6616,4.5196,4.7394,4.8007,4.7939,4.7939,4.6921,4.594,4.665,4.7902,4.9729,5.2706,5.5615,5.8152,5.9674,6.1738,6.3802,6.5358,6.6305,6.732,6.8842,6.9722,7.0229,7.0229,7.0838,7.1312,7.1312,7.006,6.8842,6.803,6.7286,6.6576,6.5899,6.7083,6.8451,6.9637,6.8425,6.7789,6.8194,6.6712,6.5813,6.578,6.4165,6.2984,6.2255,6.0755,5.9297,5.7806,5.7806,5.7442,5.6647,5.5222,5.4523,5.439,5.3003,5.2409,5.2343,5.1755,5.1092,5.0326,4.9824,4.9153,4.8483,4.8483,4.7358,4.5713,3.2983,3.4032,3.4923,3.5216,3.5893,3.6231,3.5667,3.6019,3.6623,3.7532,3.9141,0.0,0.0,0.0,0.0,0.0,4.5379,4.7847,5.0025,5.6139,6.0663,6.2867,6.67,6.9048,6.9652,7.0165,7.0177,6.9635,6.9093,6.7799,6.5811,6.5738,6.5069,6.3903,6.4377,6.4208,6.3497,6.299,6.2313,6.1434,5.9438,5.849,5.7915,5.4668,5.2198,5.0236,0.0,4.6955,4.5635,4.5094,4.4423,4.4045,4.5297,4.5331,4.4897,4.4897,4.5978,4.7327,4.8071,5.0439,5.3179,5.5209,5.7543,5.9641,6.0655,6.2245,6.3666,6.414,6.4038,6.4038,6.4546,6.5256,6.6068,6.7049,6.8673,7.0195,7.1176,7.0466,6.918,6.7387,6.6508,6.5595,6.4377,6.5561,6.6804,6.7732,6.6761,6.6397,6.7084,6.6397,6.5765,6.5263,6.4285,6.3108,6.1907,6.0398,5.8931,5.7463,5.635,5.5676,5.541,5.4266,5.3798,5.3699,5.2274,5.1715,5.1687,5.0693,5.0158,4.9921,4.9313,4.8908,4.8675,4.8547,4.7784,4.6755,0.0,3.4957,3.5701,3.5994,3.6468,0.0,0.0,0.0,0.0,0.0,0.0,0.0,0.0,0.0,0.0,0.0,0.0,4.6017,4.7932,5.2697,5.6391,5.8601,6.2186,6.4649,6.5736,6.6279,6.6686,6.6944,6.7047,6.6325,6.4881,6.5405,6.4893,6.3485,6.3961,6.36,6.2685,6.2212,6.1231,5.9844,5.7881,5.6427,5.5108,5.2232,4.9864,0.0,4.5669,4.4248,4.3301,4.2794,4.2455,4.2354,4.3132,4.3403,4.3511,4.4079,4.6148,4.8646,5.0202,5.2942,5.575,5.7239,5.8863,6.0317,6.1129,6.1603,6.1975,6.2245,6.1501,6.0791,6.0791,6.1603,6.2618,6.3531,6.5595,6.7726,6.9451,6.9045,6.8335,6.7692,6.6711,6.5628,6.441,6.5121,6.5857,6.6247,6.5986,6.5825,6.5975,6.5813,6.5392,6.4613,6.3651,6.2546,6.1341,5.96,5.7955,5.6482,5.5436,5.4895,5.4862,5.402,5.3449,5.3149,5.1988,5.1391,5.1127,4.9823,4.9483,4.9714,4.8832,4.8627,4.8863,4.8704,4.8068,4.7096,0.0,0.0,3.5926,0.0,0.0,0.0,0.0,0.0,0.0,0.0,0.0,0.0,0.0,0.0,0.0,0.0,0.0,0.0,4.6246,4.8583,5.1335,5.4508,5.6186,5.7815,5.9434,5.948,5.9914,6.0738,6.2195,6.2904,6.2897,6.4397,6.4349,6.2972,6.3007,6.2255,6.096,6.0926,5.8863,5.5546,5.548,5.2909,4.912,4.8951,4.709,4.4513,4.3673,4.2422,4.1204,4.1204,4.0798,4.0485,4.1204,4.2455,4.3916,4.5534,4.7564,4.9932,5.2875,5.531,5.7374,5.8727,5.9607,6.0351,6.1061,6.0047,5.9133,5.9742,5.8626,5.7509,5.7442,5.8693,5.981,5.9945,6.2042,6.441,6.6677,6.6406,6.6745,6.8842,6.7827,6.6609,6.5764,6.573,6.5613,6.5295,6.6036,6.6051,6.51,6.5024,6.4656,6.3852,6.2412,6.1314,6.0476,5.826,5.6452,5.5013,5.501,5.4977,5.4977,5.4207,5.3539,5.2803,5.2033,5.1296,5.0559,4.9213,4.9074,4.9577,4.8318,4.8274,4.8883,4.8883,4.8003,4.6786,0.0,0.0,0.0,0.0,0.0,0.0,0.0,0.0,0.0,0.0,0.0,0.0,0.0,0.0,0.0,0.0,0.0,0.0,4.4077,4.6434,4.8839,5.1212,5.3614,5.5821,5.7768,5.8007,5.8691,5.9905,5.9303,5.8738,5.821,5.823,5.773,5.688,5.7423,5.7147,5.6258,5.5716,5.4938,5.3923,5.2198,5.1183,5.0405,4.8206,4.621,4.4412,4.3064,4.1982,4.1204,4.1204,4.2185,4.3599,4.4316,4.5568,4.7128,4.9221,5.142,5.3585,5.5446,5.8017,6.0114,5.9877,6.0419,6.0892,6.0486,5.9235,5.7915,5.7036,5.4735,5.257,5.1488,5.3416,5.5919,5.8084,6.2212,6.6102,6.8944,6.9654,6.9688,6.918,6.8741,6.776,6.5865,6.6203,6.6026,6.487,6.5478,6.5816,6.553,6.553,6.4686,6.2864,6.1886,6.0502,5.8612,5.6385,5.4833,5.3888,5.3784,5.3682,5.3648,5.2771,5.2267,5.1999,5.0727,5.0123,4.9918,4.8471,4.806,4.8284,4.7398,4.7192,4.7361,4.7361,4.7124,4.6718,0.0,0.0,0.0,0.0,0.0,0.0,0.0,0.0,0.0,0.0,0.0,0.0,0.0,0.0,0.0,0.0,0.0,0.0,0.0,4.3811,4.5281,4.6798,4.8318,4.9815,5.1322,5.1836,5.2478,5.3222,5.3511,5.3441,5.3092,5.348,5.3294,5.2614,5.2992,5.283,5.2131,5.1691,5.098,0.0,0.0,4.7631,4.6684,4.5331,4.4113,4.2997,4.2117,4.1982,4.232,4.3335,4.4722,4.6244,4.7293,4.8883,5.0744,5.2605,5.4769,5.6799,5.7949,6.0216,6.2076,6.1298,6.0926,6.0486,5.937,5.7476,5.5446,5.3619,5.1386,4.9424,4.824,5.0473,5.3145,5.5108,5.981,6.4275,6.732,6.8944,6.9891,7.006,6.9789,6.8944,6.7354,6.7252,6.6677,6.5189,6.5459,6.5425,6.4783,6.441,6.3531,6.1975,6.0554,5.8727,5.6461,5.5209,5.4228,5.3518,5.3382,5.3348,5.3315,5.2438,5.1833,5.1463,5.0319,4.9676,4.9369,4.8222,4.7811,4.7804,4.709,4.6786,4.6786,4.6786,4.6583,4.6244,0.0,0.0,0.0,0.0,0.0,0.0,0.0,0.0,0.0,0.0,3.9665,4.0707,4.0707,4.1071,0.0,0.0,0.0,0.0,0.0,0.0,4.1911,4.2668,4.2635,4.3009,4.3886,4.4459,4.481,4.4953,4.691,4.7895,4.798,4.9327,4.9579,4.897,4.897,4.866,4.8105,4.8105,4.6955,4.5128,4.5229,4.3639,4.1305,0.0,4.1982,4.1373,4.1474,4.2252,4.3673,4.621,4.7733,4.8748,5.0236,5.2334,5.4532,5.6021,5.7881,5.9641,6.0486,6.2144,6.3463,6.2618,6.1231,5.9674,5.7983,5.531,5.257,5.027,4.8646,4.7394,4.6616,4.8849,5.1183,5.2401,5.6731,6.1129,6.4546,6.6779,6.8842,7.0906,7.0601,6.9857,6.9011,6.8301,6.7286,6.5797,6.5493,6.4816,6.3429,6.2753,6.1873,6.0757,5.8693,5.6596,5.4465,5.4431,5.4126,5.3518,5.3518,5.3518,5.3484,5.257,5.1826,5.1151,5.0304,4.9593,4.8951,4.8105,4.7736,4.7669,4.6819,4.6515,4.6515,4.6515,4.6109,4.5568,0.0,0.0,0.0,0.0,0.0,0.0,0.0,0.0,0.0,0.0,4.0018,4.0204,0.0,0.0,0.0,0.0,0.0,0.0,0.0,0.0,0.0,4.268,4.2288,4.2612,4.3851,4.36,4.367,4.412,4.4077,4.4064,4.4064,4.388,4.3761,4.3654,4.3654,4.3573,4.347,4.347,4.2895,4.2049,4.2625,4.2219,4.1373,4.2726,0.0,0.0,4.2828,4.2794,4.3132,4.7225,4.9965,5.186,5.3348,5.575,5.8355,5.9877,6.1028,6.211,6.3463,6.4106,6.4072,6.2719,6.1231,5.9404,5.6697,5.3788,5.098,4.8748,4.7124,4.5872,4.5122,4.6887,4.9729,5.3585,5.7002,6.1095,6.6576,6.8233,6.9248,7.0263,7.0263,6.9654,6.8233,6.7996,6.7286,6.5797,6.458,6.3497,6.2618,6.2448,6.0926,5.7679,5.663,5.531,5.3721,5.3687,5.3619,5.3518,5.3518,5.3518,5.345,5.2063,5.132,5.1117,4.9796,4.912,4.8917,4.7564,4.6989,4.6853,4.5529,4.4987,4.4987,4.4987,4.4919,4.4818,0.0,0.0,0.0,0.0,0.0,0.0,0.0,3.9208,4.0535,4.1572,4.1707,4.1463,4.0764,4.0663,4.0798,0.0,0.0,0.0,0.0,0.0,0.0,4.1354,4.1111,4.1258,4.1895,4.2037,4.2037,4.1919,0.0,4.1911,4.1535,4.1291,4.1162,4.1162,4.1162,4.1162,4.1162,4.1162,4.0959,4.0696,4.1441,4.1508,4.1339,0.0,0.0,0.0,4.2692,4.3098,4.3944,4.6853,4.9593,5.2232,5.4905,5.7509,5.9877,6.1434,6.2651,6.37,6.441,6.4884,6.4816,6.3328,6.1535,5.9133,5.5412,5.2536,4.9796,4.6786,4.5602,4.5026,4.4682,4.6413,4.8717,5.1285,5.4837,5.8964,6.3802,6.5797,6.7489,6.9383,6.891,6.8132,6.7421,6.6643,6.5561,6.4072,6.3328,6.2753,6.2415,6.0892,5.8863,5.6325,5.5513,5.46,5.3518,5.3518,5.3518,5.3518,5.3518,5.3518,5.345,5.1928,5.1185,5.115,4.9661,4.9018,4.8951,4.824,4.7496,4.6718,4.6007,4.5292,4.4615,4.4615,4.4615,4.4547,0.0,0.0,0.0,0.0,0.0,0.0,3.887,4.0257,4.176,4.3305,4.3345,4.2928,4.2023,4.1753,4.1625,0.0,0.0,0.0,0.0,0.0,0.0,0.0,0.0,0.0,4.0113,0.0,0.0,4.035,4.1068,0.0,0.0,0.0,0.0,0.0,4.0113,4.0113,4.0113,4.0113,4.0113,0.0,0.0,4.1204,4.1305,0.0,0.0,0.0,0.0,4.3464,4.4587,4.6244,4.824,5.0676,5.4228,5.734,5.9911,6.1467,6.3057,6.4444,6.4749,6.5358,6.5527,6.3937,6.1806,5.8896,5.4296,5.1488,4.8849,4.5326,4.4615,4.4615,4.4615,4.6007,4.7597,4.8815,5.2097,5.6055,6.0419,6.2821,6.5256,6.8267,6.7692,6.6914,6.6609,6.5358,6.4005,6.2516,6.1941,6.167,6.167,5.9099,5.707,5.575,5.4972,5.4262,5.3518,5.3518,5.3518,5.3518,5.3518,5.3518,5.345,5.1928,5.1185,5.115,4.9661,4.9018,4.8984,4.8849,4.8003,4.6786,4.6616,4.5737,4.4615,4.4615,4.4615,4.4513,0.0,0.0,0.0,0.0,0.0,0.0,3.887,4.0257,4.1982,4.4181,4.3849,4.3612,4.4215,4.3501,4.3014,0.0,0.0,0.0,0.0,0.0,0.0,0.0,0.0,0.0,0.0,0.0,0.0,4.1102,4.1847,0.0,0.0,0.0,0.0,0.0,0.0,4.0113,4.0113,4.0113,0.0,0.0,0.0,0.0,0.0,0.0,0.0,0.0,0.0,4.4012,4.3876,4.6041,4.6549,4.6718,4.9763,5.4093,5.8389,5.9877,6.1873,6.3903,6.5222,6.6136,6.6203,6.4072,6.1806,5.8761,5.3687,5.0744,4.824,4.5224,4.4615,4.4615,4.4615,4.4784,4.5771,4.8545,4.9898,5.2841,5.9302,6.1603,6.37,6.6677,6.7489,6.7252,6.5933,6.5053,6.4005,6.2516,6.0486,5.9336,5.9336,5.778,5.6528,5.575,5.4972,5.4262,5.3518,5.3518,5.3518,5.3518,5.3518,5.3518,5.345,5.1928,5.1185,5.115,4.9661,4.9018,4.8951,4.8277,4.753,4.6718,4.6075,4.5297,4.4615,4.4615,4.4615,4.4581,0.0,0.0,0.0,0.0,0.0,0.0,3.887,4.0257,4.2132,4.4749,4.4817,4.5029,4.6182,4.5644,4.4692,4.3428,4.3078,0.0,0.0,0.0,0.0,0.0,0.0,0.0,0.0,0.0,4.1407,4.1847,4.2151,0.0,0.0,0.0,0.0,0.0,0.0,4.0519,4.0113,4.0113,0.0,0.0,0.0,0.0,0.0,0.0,0.0,0.0,0.0,0.0,4.4181,4.4621,4.5196,4.5906,4.709,4.9492,5.2604,5.6359,5.9708,6.2516,6.3971,6.5561,6.6406,6.4613,6.1806,5.8321,5.4025,5.0608,4.7631,4.5122,4.4615,4.4615,4.4615,4.4615,4.5156,4.6752,4.7631,4.983,5.4769,5.6359,5.866,6.299,6.3328,6.3328,6.3666,6.3057,6.1975,6.0486,5.9099,5.8152,5.7712,5.6697,5.5818,5.5074,5.4329,5.3788,5.3518,5.3518,5.3518,5.3518,5.3518,5.3247,5.2739,5.1691,5.098,5.0473,4.9458,4.9018,4.8984,4.868,4.7868,4.6752,4.6481,4.5635,4.4615,4.4615,4.4615,4.4547,0.0,0.0,0.0,0.0,0.0,3.8227,3.9174,4.0561,4.2469,4.5125,4.5496,4.601,4.7399,4.6784,4.5756,4.4491,4.3781,0.0,0.0,0.0,0.0,0.0,0.0,0.0,0.0,0.0,4.2219,4.299,4.32,4.32,0.0,0.0,4.232,4.1204,0.0,0.0,0.0,0.0,0.0,0.0,0.0,0.0,0.0,0.0,0.0,0.0,0.0,0.0,0.0,0.0,0.0,4.5365,4.5365,4.6244,4.8176,5.2976,5.69,6.008,6.1975,6.414,6.5527,6.4275,6.1129,5.7442,5.3957,5.027,4.7022,4.5021,4.4615,4.4615,4.4615,4.4615,4.4784,4.5297,4.6177,4.7936,5.1283,5.2739,5.5108,5.9438,5.9674,5.9945,6.1264,6.0926,6.008,5.8795,5.8186,5.7476,5.6528,5.5987,5.5378,5.46,5.389,5.3518,5.3518,5.3518,5.3382,5.3145,5.3145,5.2739,5.1961,5.1217,5.0574,5.0067,4.9323,4.8883,4.868,4.868,4.78,4.6481,4.6481,4.5703,4.4615,4.4615,4.4615,4.4513,0.0,0.0,0.0,0.0,0.0,3.8396,3.9876,4.1365,4.3098,4.5399,4.5703,4.6278,4.7736,4.6616,4.6007,4.6684,4.4722,0.0,0.0,0.0,0.0,0.0,0.0,0.0,4.2286,4.3031,4.3775,4.4581,4.5297,4.5297,4.4581,4.4581,4.3369,4.1204,0.0,0.0,0.0,0.0,0.0,0.0,0.0,0.0,0.0,0.0,0.0,0.0,0.0,0.0,0.0,0.0,0.0,0.0,0.0,4.5128,4.6447,5.0168,5.3416,5.6427,5.9336,6.1806,6.3362,6.2618,5.9607,5.6021,5.301,4.9458,4.638,4.4919,4.4615,4.4615,4.4615,4.4615,4.4615,4.4615,4.5867,4.7564,4.9796,5.2063,5.4329,5.6596,5.7476,5.822,5.8964,5.9032,5.8727,5.7949,5.7881,5.7273,5.5818,5.5681,5.5378,5.46,5.389,5.3518,5.3518,5.3518,5.3112,5.23,5.23,5.1928,5.1217,5.0439,5.0101,5.0067,4.9323,4.8612,4.7906,4.7906,4.7056,4.5703,4.5703,4.5263,4.4615,4.4615,4.4615,4.4615,0.0,0.0,0.0,0.0,0.0,0.0,3.9276,4.018,4.1576,4.3842,4.4147,4.4925,4.6921,4.6718,4.6549,4.6786,4.4722,0.0,0.0,0.0,0.0,0.0,0.0,4.2557,4.3836,4.3572,4.4045,4.5365,4.5602,4.5838,4.6075,4.5602,4.4688,4.3504,4.2963,4.2016,0.0,0.0,0.0,0.0,0.0,0.0,4.4615,0.0,0.0,0.0,0.0,0.0,0.0,0.0,0.0,0.0,0.0,0.0,0.0,4.6955,5.027,5.3585,5.4532,5.6799,5.8626,5.7374,5.5006,5.2469,5.0507,4.797,4.5771,4.4818,4.4993,4.5196,4.4716,4.4993,4.5669,4.6684,4.7259,4.8139,4.9864,5.1589,5.3315,5.5074,5.7273,5.8761,5.8998,5.8558,5.8152,5.7915,5.7442,5.6731,5.5749,5.5243,5.46,5.3856,5.3619,5.3518,5.3518,5.2942,5.257,5.23,5.1792,5.1183,5.0439,5.0202,4.956,4.8578,4.8376,4.7834,4.7158,4.7158,4.6583,4.5703,4.5703,4.5229,4.4615,4.4615,4.4615,4.4615,0.0,0.0,0.0,0.0,0.0,0.0,3.9017,3.9499,4.05,4.2432,4.2699,4.3631,4.6129,4.5929,4.6021,4.7102,4.5153,0.0,0.0,0.0,0.0,0.0,4.2963,4.3301,4.4581,4.4384,4.4891,4.6109,4.6684,4.7056,4.7225,4.7022,4.6109,4.4581,4.4079,4.3031,0.0,0.0,0.0,0.0,0.0,0.0,4.4615,0.0,0.0,0.0,0.0,0.0,0.0,0.0,0.0,0.0,0.0,0.0,0.0,0.0,4.7428,5.0067,5.1183,5.3247,5.4871,5.3957,5.2029,5.0067,4.8883,4.6887,4.5128,4.4716,4.4987,4.5128,4.4682,4.4959,4.5602,4.6515,4.7124,4.7902,4.9086,5.1014,5.2875,5.4397,5.6697,5.8084,5.7814,5.7848,5.778,5.7509,5.707,5.6359,5.5344,5.4837,5.4126,5.3078,5.3044,5.2909,5.2638,5.2131,5.1758,5.1454,5.1014,5.0405,4.9661,4.9661,4.9052,4.7906,4.7906,4.7327,0.0,4.638,4.594,4.5263,4.5263,4.4993,4.4615,4.4615,4.4615,4.4615,0.0,0.0,0.0,0.0,0.0,0.0,0.0,3.9368,3.9943,4.1309,4.1536,4.261,4.5309,4.4529,4.4885,4.7602,4.6029,0.0,0.0,0.0,0.0,4.3578,4.3511,4.3876,4.4682,4.5365,4.6075,4.6887,4.824,4.8612,4.7973,4.8646,4.7428,4.475,4.4716,4.3809,0.0,0.0,0.0,0.0,4.4282,4.4615,0.0,0.0,0.0,0.0,0.0,0.0,0.0,0.0,0.0,0.0,0.0,0.0,0.0,0.0,0.0,0.0,0.0,5.0744,5.1826,5.1758,5.0202,4.8511,4.7834,4.6075,0.0,4.4615,4.4649,4.4682,4.4682,4.4682,4.4716,4.4818,4.6007,4.7192,4.7939,5.0608,5.3044,5.4566,5.6021,5.6596,5.5852,5.7036,5.7543,5.6867,5.6697,5.6055,5.4668,5.4499,5.3754,5.2266,5.2164,5.186,5.1217,5.1151,5.0777,5.0101,5.0033,4.9661,4.9018,4.8951,4.8545,4.7804,4.777,4.6955,4.5635,4.5635,4.5196,4.4615,4.4615,4.4615,4.4615,4.4615,4.4581,4.4513,0.0,0.0,0.0,0.0,0.0,0.0,0.0,0.0,0.0,0.0,4.1747,4.2585,4.3829,4.5232,4.6297,0.0,0.0,0.0,0.0,0.0,0.0,4.5133,4.4621,4.4654,4.5432,4.5602,4.6346,4.7635,4.8003,4.8376,4.8748,4.8342,4.7496,4.6244,4.5669,4.4587,0.0,0.0,0.0,0.0,4.4282,4.4615,0.0,0.0,0.0,0.0,4.4615,4.4615,0.0,0.0,0.0,0.0,0.0,0.0,0.0,0.0,4.4716,4.5021,4.5698,0.0,4.7124,4.6549,4.6036,4.5568,0.0,4.4987,4.4615,4.4615,4.5026,4.5432,4.5432,4.5432,4.5805,4.6955,4.7902,4.8748,4.9492,5.2164,5.46,5.6122,5.707,5.734,5.663,5.6867,5.7002,5.6799,5.575,5.4972,5.46,5.3484,5.2435,5.1488,5.0913,5.0811,5.1185,5.0642,5.027,5.0067,4.9526,4.9187,4.8984,4.8443,4.7767,4.7022,4.6481,4.5703,4.4886,4.4886,4.4784,4.4615,4.4615,4.4615,4.4615,4.4615,4.4215,4.3673,0.0,0.0,0.0,0.0,0.0,0.0,0.0,0.0,0.0,0.0,4.0967,4.1797,4.2829,4.4683,4.6098,0.0,0.0,0.0,0.0,4.6655,4.5629,4.5708,4.5331,4.5297,4.5703,4.6041,4.6752,4.7906,4.8578,4.8951,4.9018,4.8951,4.8139,4.6752,4.5669,4.4722,0.0,0.0,0.0,0.0,4.4445,0.0,0.0,0.0,0.0,0.0,4.4615,4.4615,0.0,4.4993,4.5094,4.5094,0.0,0.0,0.0,0.0,4.4615,4.4615,4.4615,4.5128,4.5602,4.5196,4.5094,4.5094,4.5094,4.4852,4.4615,4.4615,4.4919,4.5196,4.5196,4.5466,4.5974,4.6786,4.8105,4.9729,5.186,5.3856,5.5649,5.7137,5.7645,5.7611,5.6867,5.6799,5.6528,5.5852,5.504,5.4431,5.4093,5.3315,5.2334,5.1219,5.0811,5.0473,5.0202,4.9796,4.9593,4.9593,4.8849,4.8511,4.8477,4.7733,4.6989,4.6278,4.5872,4.5263,4.4615,4.4615,4.4615,4.4615,4.4615,4.4615,4.4581,4.4181,4.3775,4.3341,0.0,0.0,0.0,0.0,0.0,0.0,0.0,0.0,0.0,0.0,0.0,0.0,0.0,0.0,0.0,0.0,0.0,0.0,0.0,4.7849,4.6786,4.608,4.5838,4.5805,4.6041,4.6413,4.709,4.8041,4.9424,4.9763,4.9187,4.9932,4.9018,4.6718,4.5393,4.4716,4.4615,0.0,0.0,4.4615,4.4615,0.0,0.0,0.0,0.0,0.0,0.0,0.0,0.0,4.5331,4.5534,4.5534,4.5534,0.0,0.0,0.0,0.0,0.0,4.475,4.5399,4.5974,4.5635,4.5635,4.5669,4.5568,4.5026,4.4615,4.4615,4.4615,4.4682,4.4886,4.5432,4.594,4.6177,4.8071,5.0777,5.4431,5.548,5.6292,5.7408,5.7645,5.7408,5.6562,5.6461,5.5953,5.4668,5.4499,5.4093,5.3382,5.3213,5.2503,5.1082,5.0947,5.027,4.9018,4.9018,4.9018,4.8984,4.8274,4.7906,4.7872,4.7022,4.6278,4.5703,4.5568,4.5162,4.4615,4.4615,4.4615,4.4615,4.4615,4.4615,4.4513,4.3707,4.3308,4.3132,0.0,0.0,0.0,0.0,0.0,0.0,0.0,0.0,0.0,0.0,0.0,0.0,0.0,0.0,0.0,0.0,0.0,0.0,0.0,4.879,4.8321,4.7567,4.638,4.6278,4.7564,4.6447,4.6853,4.8849,4.9661,5.0033,4.9932,5.071,4.9526,4.6752,4.5906,4.5162,4.4615,4.4615,4.4615,4.4615,4.4615,0.0,0.0,0.0,0.0,0.0,0.0,0.0,0.0,4.475,4.4784,4.4784,4.4784,0.0,0.0,0.0,0.0,0.0,4.5365,4.6549,4.7124,4.5229,4.5229,4.5534,4.4891,4.4682,4.4615,4.4615,4.4615,4.4987,4.621,4.6549,4.7022,4.8308,5.0338,5.2875,5.6021,5.6562,5.6494,5.6089,5.6596,5.6427,5.5074,5.4938,5.4837,5.46,5.4025,5.3315,5.2536,5.1894,5.1183,5.0304,4.9661,4.9221,4.9018,4.9018,4.9018,4.8984,4.8274,4.7906,4.7838,4.6515,4.5805,4.5669,4.5026,4.4716,4.4615,4.4615,4.4615,4.4615,4.4615,4.4615,4.4513,4.3707,4.2997,4.2252,0.0,0.0,0.0,0.0,0.0,0.0,0.0,0.0,0.0,0.0,0.0,0.0,0.0,0.0,0.0,0.0,0.0,0.0,4.8376,4.8781,4.8849,4.8511,4.7462,4.7225,4.7872,4.7229,4.797,5.0202,5.0947,5.1522,5.1928,5.1014,4.9458,4.7361,4.621,4.55,4.5162,4.4784,4.4852,4.5162,0.0,0.0,0.0,0.0,0.0,0.0,0.0,0.0,0.0,0.0,4.5196,4.5196,4.5196,0.0,0.0,0.0,0.0,0.0,4.4993,4.5906,4.6583,4.594,4.665,4.7293,4.6549,4.6075,4.5799,4.5799,4.5799,4.6003,4.6684,4.7428,4.8748,5.1048,5.2942,5.4634,5.6021,5.5852,5.5615,5.5716,5.5649,5.5344,5.4668,5.46,5.4431,5.4025,5.3687,5.3145,5.2334,5.1995,5.1285,5.0135,4.9763,4.939,4.9018,4.8612,4.8409,4.8409,4.7259,4.6718,4.6655,4.5602,4.5094,4.5094,4.475,4.4615,4.4615,4.4615,4.4615,4.4615,4.4615,4.4316,4.3809,4.2658,4.1745,4.1027,0.0,0.0,0.0,0.0,0.0,0.0,0.0,0.0,0.0,0.0,0.0,0.0,0.0,0.0,0.0,0.0,0.0,0.0,4.7872,4.8443,4.8815,4.8984,4.8308,4.8041,4.8409,4.8274,4.9255,5.1488,5.2401,5.3145,5.3721,5.1589,4.9729,4.8075,4.6819,4.6109,4.5906,4.5162,4.5263,4.5872,0.0,0.0,0.0,0.0,0.0,0.0,0.0,0.0,0.0,0.0,0.0,0.0,0.0,0.0,0.0,4.4784,4.4615,4.4649,4.4818,4.5399,4.6075,4.665,4.753,4.8308,4.8582,4.797,4.7462,4.797,4.7936,4.7767,4.7597,4.8781,5.071,5.3551,5.5108,5.5987,5.5987,5.548,5.5209,5.5446,5.4938,5.4532,5.4363,5.4329,5.4093,5.3551,5.3348,5.2875,5.2097,5.1894,5.1183,4.9864,4.983,4.956,4.9018,4.8105,4.7733,4.7872,4.6413,4.5703,4.5669,4.4953,4.4615,4.4615,4.4615,4.4615,4.4615,4.4615,4.4513,4.4316,4.4316,4.3741,4.276,4.1644,4.073,4.0113,0.0,0.0,0.0,0.0,0.0,0.0,0.0,0.0,0.0,0.0,0.0,0.0,0.0,0.0,0.0,0.0,0.0,0.0,4.7804,4.7939,4.8277,4.8984,4.8308,4.8545,4.9898,4.9255,4.9999,5.2232,5.3721,5.4465,5.4465,5.2875,5.098,4.8883,4.8075,4.7361,4.665,4.594,4.6041,4.6583,4.519,0.0,0.0,0.0,0.0,0.0,0.0,0.0,0.0,0.0,0.0,0.0,0.0,0.0,4.4682,4.4615,4.4615,4.475,4.5432,4.6143,4.6718,4.6786,4.638,4.6819,5.0171,4.9864,4.9424,5.1488,5.1352,5.0676,4.9965,5.1082,5.2841,5.5175,5.6224,5.6731,5.6731,5.6697,5.6156,5.4837,5.4634,5.4329,5.3653,5.3585,5.3551,5.3518,5.2807,5.2063,5.1319,5.0642,4.9898,4.912,4.9086,4.9052,4.9018,4.7597,4.7225,4.7872,4.6413,4.5703,4.5669,4.4953,4.4615,4.4615,4.4615,4.4615,4.4615,4.4615,4.4147,4.3504,4.3504,4.2625,4.1373,4.1238,4.073,4.0113,0.0,0.0,0.0,0.0,0.0,0.0,0.0,0.0,0.0,0.0,0.0,0.0,0.0,0.0,0.0,0.0,0.0,4.5229,4.5805,4.6718,4.7564,4.8277,4.7631,4.7902,4.939,5.0033,5.1488,5.3721,5.5243,5.548,5.4566,5.3044,5.1386,4.9627,4.8443,4.7496,4.6786,4.6481,4.6549,4.6718,4.5669,4.5737,0.0,0.0,0.0,0.0,0.0,0.0,0.0,0.0,4.3842,4.3944,4.4445,4.4615,4.4615,4.4615,4.4248,4.4012,4.479,4.5534,4.6244,4.6684,4.6955,4.777,5.0574,5.115,5.1454,5.2773,5.3923,5.4329,5.3112,5.3348,5.416,5.5513,5.6697,5.7306,5.6867,5.6427,5.575,5.4702,5.4194,5.3822,5.3518,5.3518,5.3281,5.2807,5.2469,5.1792,5.0574,5.0236,4.9763,4.9018,4.9018,4.8781,4.8342,4.7293,4.6718,4.6515,4.55,4.4993,4.4993,4.475,4.4615,4.4615,4.4615,4.4615,4.4615,4.4615,4.4445,4.4079,4.3606,4.2496,4.1204,4.1204,4.073,4.0113,0.0,0.0,0.0,0.0,0.0,0.0,0.0,0.0,0.0,0.0,0.0,0.0,0.0,0.0,0.0,0.0,4.475,4.4716,4.4925,4.5872,4.6786,4.753,4.7056,4.7394,4.8646,5.0101,5.1961,5.4262,5.5953,5.5919,5.4228,5.3213,5.1928,5.0371,4.8917,4.797,4.7428,4.6752,4.6718,4.7056,4.6109,4.6143,0.0,0.0,0.0,0.0,0.0,0.0,0.0,0.0,4.347,4.3234,4.4248,4.4445,4.4215,4.4215,4.4012,4.3842,4.4147,4.4756,4.5602,4.6549,4.7361,4.8649,5.1623,5.2706,5.3619,5.5581,5.6427,5.6427,5.5175,5.4769,5.4837,5.5581,5.6731,5.7306,5.6562,5.5818,5.5074,5.4329,5.3822,5.3518,5.3518,5.3518,5.3179,5.2367,5.2097,5.142,5.0168,4.9864,4.9526,4.9018,4.8781,4.8409,4.7906,4.6955,4.621,4.5703,4.4688,4.435,4.4615,4.4615,4.4615,4.4615,4.4615,4.4615,4.4615,4.4615,4.431,4.3802,4.3031,4.1948,4.0865,4.1102,4.073,4.0113,0.0,0.0,0.0,0.0,0.0,0.0,0.0,0.0,4.4857,4.5602,4.5703,0.0,0.0,0.0,0.0,0.0,4.4993,4.4886,4.5635,4.5669,4.6007,4.6752,4.6752,4.7124,4.7872,4.9357,5.1217,5.3518,5.5683,5.5649,5.3484,5.3484,5.2672,5.1117,4.9661,4.9018,4.8849,4.665,4.6583,4.7736,4.6312,4.6143,4.6718,0.0,0.0,0.0,0.0,0.0,0.0,0.0,4.3565,4.2557,4.4107,4.4045,4.3409,4.3375,4.3944,4.4384,4.3639,4.3978,4.4953,4.6413,4.7361,4.912,5.3585,5.46,5.5886,6.0385,5.8896,5.6596,5.5886,5.5108,5.4837,5.5581,5.6325,5.6528,5.5818,5.5074,5.4329,5.3585,5.3484,5.3484,5.3484,5.3484,5.3145,5.2334,5.1623,5.0879,5.0135,4.939,4.9018,4.8984,4.8277,4.7872,4.7872,4.6447,4.5703,4.5669,4.4119,4.3809,4.4581,4.4581,4.4581,4.4581,4.4615,4.4615,4.4615,4.4615,4.3701,4.2219,4.1508,4.0764,4.018,4.0933,4.073,4.0113,0.0,0.0,0.0,0.0,0.0,0.0,0.0,0.0,4.4682,4.4919,4.5365,0.0,0.0,0.0,0.0,0.0,0.0,4.3091,4.3267,4.3301,4.3876,4.5224,4.4722,4.5263,4.709,4.9086,5.1217,5.3518,5.416,5.3856,5.2638,5.2131,5.1352,5.0405,4.9965,4.8917,4.7428,4.7327,4.6921,4.638,4.6447,4.6278,4.6007,0.0,0.0,0.0,0.0,0.0,0.0,0.0,0.0,0.0,4.3301,4.3978,4.4113,4.3572,4.3572,4.3707,4.3443,4.3978,4.4953,4.6413,4.8511,5.1014,5.3923,5.5006,5.6494,6.0486,5.8896,5.707,5.7881,5.6156,5.4837,5.5581,5.5446,5.5175,5.4938,5.4735,5.4126,5.2807,5.2672,5.2469,5.1928,5.1894,5.1589,5.0811,5.0541,5.0101,4.9357,4.912,4.8781,4.821,4.8007,4.7398,4.638,4.5399,4.4654,4.4051,4.3098,4.3031,4.3775,4.3775,4.3775,4.3809,4.435,4.4615,4.4581,4.3978,4.2895,4.161,4.2455,4.1644,4.0248,4.1508,4.117,4.0113,0.0,0.0,0.0,0.0,0.0,0.0,0.0,0.0,4.4615,4.4615,4.4993,4.5365,0.0,0.0,0.0,0.0,4.3639,4.2726,4.2726,4.2455,4.2828,4.4079,4.3673,4.4485,4.6752,4.868,5.0338,5.1725,5.2604,5.2469,5.142,5.1589,5.1082,5.0101,5.0101,4.9018,4.7225,4.709,4.6684,4.6143,4.6312,4.6278,4.6109,0.0,0.0,0.0,0.0,0.0,0.0,0.0,0.0,0.0,4.2936,4.3335,4.32,4.3031,4.3166,4.3375,4.3375,4.4418,4.5901,4.7665,5.0135,5.2706,5.4972,5.6765,5.8592,6.0825,5.937,5.7881,5.8457,5.6867,5.5513,5.5683,5.5344,5.4938,5.4634,5.4329,5.3822,5.2875,5.2503,5.2131,5.1691,5.1386,5.0913,5.0135,5.0101,4.9627,4.8612,4.8578,4.824,4.7496,4.7192,4.6616,4.5703,4.4987,4.4181,4.3375,4.2658,4.2388,4.253,4.3105,4.3375,4.3409,4.391,4.4113,4.4045,4.2963,4.2016,4.1339,4.2489,4.1779,4.0282,4.1745,4.1365,4.0113,0.0,0.0,4.3375,4.3375,0.0,0.0,0.0,0.0,4.4513,4.4615,4.4615,4.4886,0.0,0.0,0.0,0.0,0.0,0.0,4.3172,4.2557,4.2523,4.3274,4.3544,4.4722,4.6853,4.8274,4.9018,4.9018,5.1082,5.1386,5.0033,5.142,5.1352,4.9999,4.9999,4.9187,4.7733,4.6312,4.6041,4.6549,4.594,4.6075,4.6515,4.594,0.0,0.0,0.0,0.0,0.0,0.0,0.0,0.0,4.2868,4.2448,4.156,4.2076,4.2787,4.3491,4.3586,4.5145,4.7378,4.9788,5.2195,5.4533,5.6533,5.9109,6.1037,6.0994,5.9945,5.8795,5.8118,5.734,5.6562,5.5817,5.5649,5.5344,5.46,5.3923,5.345,5.3315,5.2638,5.2164,5.1995,5.1386,5.0744,5.0033,4.9999,4.939,4.7973,4.7906,4.753,4.6718,4.6041,4.5669,4.5602,4.4818,4.4012,4.3274,4.2489,4.1745,4.117,4.2658,4.3341,4.3375,4.3308,4.324,4.3105,4.1745,4.117,4.117,4.1914,4.1339,4.0282,4.1677,4.1331,4.0113,0.0,0.0,4.3375,4.3375,0.0,0.0,0.0,0.0,0.0,4.4513,0.0,0.0,0.0,0.0,0.0,0.0,0.0,0.0,4.1711,4.1542,4.1779,4.2489,4.479,4.6583,4.7635,4.8545,4.9018,4.9018,5.0067,5.0101,4.9255,5.0135,5.0101,4.9255,4.9255,4.8409,4.6989,4.6075,4.5466,4.5122,4.5534,4.5432,4.5122,4.5534,4.5229,0.0,0.0,0.0,0.0,0.0,0.0,0.0,4.2422,4.2985,4.3186,4.1842,4.2644,4.4112,4.4862,4.5818,4.7617,5.1588,5.5197,5.7878,5.8325,5.8943,5.9247,5.8739,5.8829,5.8964,5.8795,5.7679,5.6562,5.5817,5.5209,5.4566,5.3856,5.3585,5.3044,5.186,5.1555,5.098,4.983,4.956,4.9424,4.9255,4.9255,4.8849,4.7939,4.7906,4.7327,4.5974,4.5805,4.5432,4.4852,4.3498,4.2692,4.2523,4.1196,4.0485,4.0383,4.1847,4.2861,4.3375,4.2794,4.2219,4.1644,4.1339,4.0865,4.0417,4.1136,4.0865,4.0214,4.1102,4.0865,4.0113,0.0,0.0,0.0,0.0,0.0,0.0,0.0,0.0,0.0,0.0,0.0,0.0,0.0,0.0,0.0,0.0,0.0,0.0,4.1238,4.1204,4.1847,4.3362,4.5568,4.6989,4.7361,4.8443,4.8849,4.8477,4.9221,4.939,4.9018,5.0135,5.0236,4.9526,4.9526,4.8714,4.7259,4.6177,4.5466,4.5128,4.5162,4.5128,4.5128,4.5162,4.4925,4.4615,4.4615,0.0,0.0,0.0,0.0,0.0,0.0,0.0,4.2383,4.1731,4.2483,4.3828,4.4918,4.6443,4.8797,5.326,5.6115,5.7872,5.8203,5.8005,5.7705,5.7363,5.7353,5.7645,5.8355,5.7273,5.6156,5.5784,5.5074,5.4329,5.3619,5.3518,5.3078,5.1894,5.1388,5.0777,4.9627,4.9221,4.9018,4.9018,4.868,4.8173,4.7428,4.7056,4.6177,4.4654,4.4621,4.4418,4.4045,4.2861,4.2286,4.2286,4.1136,4.0629,4.0629,4.1407,4.2185,4.2828,4.2083,4.1542,4.117,4.0832,4.0451,4.0206,4.1146,4.0925,4.0206,4.1205,4.0925,4.0113,0.0,0.0,0.0,0.0,0.0,0.0,0.0,0.0,0.0,0.0,0.0,0.0,0.0,0.0,0.0,0.0,0.0,0.0,0.0,4.1238,4.2354,4.4513,4.5872,4.665,4.6786,4.8003,4.8376,4.7906,4.8376,4.8883,4.9424,5.0507,5.0676,5.0067,4.9965,4.9086,4.7601,4.6278,4.5635,4.5466,4.4852,4.4857,4.5229,4.4621,4.431,4.4209,4.4209,4.4276,4.4384,4.4384,0.0,0.0,0.0,0.0,4.1285,4.1767,4.2378,4.3217,4.4574,4.7175,5.0478,5.4322,5.607,5.6891,5.7324,5.7007,5.6524,5.6427,5.6031,5.6089,5.7306,5.6528,5.5683,5.5547,5.5006,5.4329,5.3619,5.3518,5.3145,5.2232,5.1589,5.0879,4.9999,4.9357,4.9018,4.9018,4.8342,4.7597,4.6819,4.6109,4.4993,4.3443,4.3375,4.3341,4.3206,4.2489,4.2117,4.2083,4.1373,4.1001,4.1001,4.1001,4.1407,4.2049,4.1339,4.1001,4.0967,4.035,4.0113,4.0197,4.1199,4.1013,4.0322,4.1322,4.1087,4.0204,0.0,0.0,0.0,0.0,0.0,0.0,0.0,0.0,0.0,0.0,4.5128,4.4716,0.0,0.0,0.0,0.0,0.0,0.0,4.0282,0.0,0.0,4.4547,4.5399,4.6143,4.6786,4.6989,4.7361,4.7906,4.7361,4.8409,5.0913,5.0439,5.0168,5.0067,4.9424,4.8342,4.6887,4.6041,4.5331,4.475,4.4649,4.4248,4.368,4.3606,4.3166,4.2591,4.2591,4.3031,4.3572,4.3572,4.3876,0.0,0.0,0.0,4.258,4.2053,4.2263,4.2999,4.4636,4.8344,5.2205,5.4005,5.6014,5.7381,5.6806,5.6571,5.6357,5.5764,5.5689,5.5784,5.5987,5.5852,5.5513,5.4837,5.4668,5.4329,5.3619,5.3518,5.2976,5.1522,5.1285,5.0676,4.9289,4.9052,4.9018,4.9018,4.8342,4.7597,4.6819,4.6109,4.4993,4.3443,4.3375,4.3098,4.2455,4.1711,4.1339,4.1339,4.062,4.0248,4.0248,4.0248,4.0629,4.1305,4.0587,4.0248,4.0248,4.0146,4.0113,4.0113,4.029,4.047,4.0741,4.0881,4.0823,4.0707,0.0,0.0,0.0,0.0,0.0,0.0,0.0,0.0,0.0,0.0,0.0,4.506,0.0,0.0,0.0,4.1305,4.0832,4.0595,4.0696,4.1305,4.2557,4.4513,4.4891,4.5432,4.6177,4.6177,4.6346,4.6684,4.5906,4.7496,5.1185,5.0879,5.1183,5.1961,5.1217,4.983,4.7936,4.638,4.5263,4.4615,4.4615,4.4113,4.3443,4.391,4.3335,4.2354,4.276,4.2861,4.2861,4.324,4.3369,4.3234,4.2895,0.0,0.0,0.0,4.1704,4.277,4.5354,4.781,5.0305,5.3053,5.4504,5.5423,5.6239,5.6123,5.5799,5.5501,5.5184,5.5143,5.5617,5.504,5.4499,5.4566,5.3856,5.3213,5.2875,5.2841,5.2266,5.0777,5.0947,5.0642,4.9154,4.9018,4.9018,4.9018,4.7936,4.7158,4.6819,4.5297,4.391,4.2828,4.2388,4.2016,4.1677,4.0933,4.0561,4.0561,4.0248,4.0113,4.0113,4.0113,4.0282,4.0561,4.0248,4.0113,4.0113,4.0113,4.0113,4.0138,4.0402,4.0611,4.0825,4.1094,4.1185,4.1255,0.0,0.0,0.0,0.0,0.0,0.0,0.0,0.0,0.0,0.0,0.0,0.0,0.0,0.0,0.0,0.0,4.0553,4.035,4.0865,4.1102,4.2049,4.3938,4.4209,4.4654,4.5399,4.5432,4.55,4.5703,4.5128,4.7124,5.1455,5.1691,5.2706,5.4296,5.3551,5.1657,4.8883,4.7259,4.6007,4.5122,4.4519,4.3809,4.3166,4.3572,4.2922,4.1813,4.2354,4.232,4.2083,4.2658,4.2591,4.2286,4.2286,4.2031,0.0,0.0,0.0,4.2186,4.4852,4.6274,4.7713,5.0626,5.2179,5.3385,5.5079,5.5292,5.5145,5.529,5.47,5.4267,5.4702,5.4093,5.3619,5.3957,5.3044,5.23,5.23,5.2131,5.1623,5.0507,5.071,5.0405,4.912,4.9018,4.8917,4.8748,4.753,4.6718,4.6515,4.4722,4.3267,4.232,4.1779,4.1305,4.0933,4.0383,4.0113,4.0113,4.0113,4.0113,4.0113,4.0113,4.0113,4.0113,4.0113,4.0113,4.0113,4.0113,4.0113,4.0104,4.05,4.0778,4.1001,4.1388,4.1587,4.1766,0.0,0.0,0.0,0.0,0.0,0.0,0.0,0.0,0.0,0.0,0.0,0.0,4.4615,4.3227,4.1982,4.1271,4.0553,4.0113,4.0146,4.0798,4.1576,4.2388,4.3098,0.0,4.4649,4.4682,4.4993,4.5703,4.5669,4.7902,5.2266,5.301,5.4532,5.6596,5.5886,5.3112,4.8984,4.8883,4.8003,4.6481,4.435,4.3031,4.2286,4.1644,4.0865,4.0214,4.0282,4.0696,4.1271,4.1305,4.1745,4.2286,4.2286,4.1805,4.1299,0.0,0.0,0.0,4.1926,4.3742,4.5532,4.6005,4.9073,5.2187,5.3064,5.3774,5.4415,5.498,5.4192,5.3149,5.2402,5.2961,5.3281,5.2536,5.2367,5.23,5.23,5.1725,5.1251,5.1151,5.0574,4.983,4.9086,4.9018,4.8714,4.8007,4.7259,4.6481,4.5805,4.4959,4.387,4.2354,4.2252,4.1568,4.018,4.0113,4.0113,4.0113,4.0113,4.0113,4.0113,4.0113,4.0113,4.0113,4.0113,4.0113,4.0113,4.0113,4.0113,4.0113,4.0138,4.0683,4.1477,4.1499,4.1782,4.2175,0.0,0.0,0.0,0.0,0.0,0.0,0.0,0.0,0.0,0.0,0.0,0.0,0.0,4.3227,4.2185,4.1914,4.1238,4.1001,4.1474,4.1745,4.2252,4.2963,4.324,4.3775,4.4581,4.4079,4.4215,4.4993,4.3978,4.5805,5.0202,5.0947,5.2232,5.3957,5.4668,5.3281,5.0304,4.8376,4.7022,4.594,4.4147,4.2963,4.2252,4.2016,4.1136,4.018,4.0629,4.0967,4.1271,4.1745,4.2083,4.2286,4.2286,4.1779,4.1128,4.0848,4.0557,4.0626,4.1827,4.2432,4.3344,4.624,4.7797,4.9292,5.1759,5.2909,5.3493,5.3689,5.3725,5.3366,5.2304,5.2072,5.1928,5.1657,5.1183,5.1048,5.1522,5.098,5.0473,5.0473,5.0236,4.9796,4.9086,4.9018,4.8714,4.7939,4.7225,4.6481,4.5737,4.4519,4.3369,4.232,4.1847,4.1102,4.0113,4.0113,4.0113,4.0113,4.0113,4.0113,4.0113,4.0113,4.0113,4.0113,4.0113,4.0113,4.0113,4.0113,4.0113,4.0138,4.0427,4.0932,4.1543,4.1846,4.2257,4.2707,0.0,0.0,0.0,5.1928,0.0,4.7804,4.7597,4.6278,4.5258,4.4993,0.0,0.0,0.0,0.0,4.2861,4.2354,4.2083,4.2049,4.2286,4.2286,4.2625,4.3375,4.3673,4.4045,4.4581,4.4316,4.4316,4.4615,4.3809,4.5229,4.8646,4.9627,5.0879,5.2334,5.2841,5.2401,5.1116,4.9357,4.7936,4.665,4.4621,4.3673,4.3403,4.3166,4.2482,4.167,4.2151,4.2016,4.161,4.1847,4.1745,4.1568,4.1568,4.1204,4.073,4.0248,4.0113,4.0316,4.1297,4.1528,4.2219,4.5384,4.5883,4.648,5.0049,5.1053,5.1417,5.2109,5.2619,5.2649,5.1573,5.0878,5.0541,5.0811,5.0405,5.0338,5.1116,5.0574,5.0168,5.0439,5.0236,4.9796,4.9086,4.9018,4.8612,4.7597,4.709,4.638,4.5365,4.4113,4.2963,4.1948,4.1204,4.0595,4.0113,4.0113,4.0113,4.0113,4.0113,4.0113,4.0113,4.0113,4.0113,4.0113,4.0113,4.0113,4.0113,4.0113,4.0113,4.0163,4.0611,4.1071,4.1565,4.2015,4.2498,4.2973,5.2164,5.1725,5.1251,5.1252,4.9393,4.7733,4.7022,4.6853,4.6583,4.5872,0.0,0.0,0.0,0.0,0.0,4.2557,4.3098,4.32,4.2455,4.2388,4.2726,4.3443,4.4215,4.4649,4.4682,4.5331,4.5365,4.4649,4.5331,4.6413,4.7872,4.9323,5.0777,5.2097,5.071,5.0473,5.1151,5.1826,5.0879,4.8714,4.5766,4.5026,4.5602,4.4852,4.4581,4.4615,4.4581,4.3606,4.2286,4.1542,4.0798,4.0214,4.0146,4.0113,4.0113,4.0113,4.0113,4.0113,0.0,0.0,0.0,4.3124,4.321,4.4035,4.7817,4.8121,4.8216,5.0258,5.0843,5.0788,5.0005,4.9406,4.9252,4.9932,5.0067,5.0338,5.1082,5.0541,5.0371,5.105,5.0541,4.9796,4.9086,4.9018,4.8376,4.6921,4.6786,4.6143,4.4682,4.3809,4.2699,4.1271,4.0485,4.0113,4.0113,4.0113,4.0113,4.0113,4.0113,4.0113,4.0113,4.0113,4.0113,4.0113,4.0113,4.0113,4.0113,4.0113,4.0113,4.0163,4.0611,4.1071,4.1565,4.2015,4.2498,4.2901,5.2266,5.2131,5.2198,5.2773,5.0574,4.8984,4.9864,4.8646,4.753,0.0,0.0,0.0,4.6921,4.6413,4.6007,4.5568,4.5737,4.5534,4.4823,4.4756,4.4857,4.506,4.5297,4.5635,4.6177,4.5872,4.5602,4.5399,4.506,4.5399,4.6346,4.7259,4.8206,4.9154,4.9796,4.9627,4.8751,4.7902,4.78,4.797,4.4959,4.4519,4.55,4.3639,4.3633,4.4513,4.3944,4.4181,4.4654,4.391,4.3532,4.3091,4.1407,4.0553,4.0113,4.0113,4.0113,4.0113,4.0113,0.0,0.0,0.0,0.0,0.0,4.4923,4.5779,4.635,4.7453,4.8529,4.9183,4.9124,4.9383,4.9564,4.9317,4.9289,4.956,5.0304,5.0236,5.0168,5.0371,5.0202,4.9796,4.9086,4.9018,4.8376,4.6921,4.6786,4.6143,4.4682,4.3335,4.2185,4.1238,4.0485,4.0113,4.0113,4.0113,4.0113,4.0113,4.0113,4.0113,4.0113,4.0113,4.0113,4.0113,4.0113,4.0113,4.0113,4.0113,4.0113,4.0163,4.0611,4.1071,4.1565,4.2015,4.2498,4.2973,5.2232,5.23,5.2469,5.2909,5.1285,5.0101,5.0676,4.9932,4.9187,0.0,0.0,0.0,4.8308,4.8714,4.8612,4.7361,4.7259,4.6819,4.5771,4.5703,4.5568,4.5263,4.5838,4.621,4.6346,4.6515,4.6312,4.5703,4.5263,4.5128,4.5263,4.6007,4.6583,4.7022,4.7868,4.797,4.7327,4.5534,4.5805,4.7259,4.5196,4.5263,4.6447,4.479,4.4925,4.5872,4.5094,4.5196,4.5534,4.4451,4.3876,4.3335,4.1711,4.0899,4.0519,4.018,4.0113,4.0113,4.0113,3.9808,3.9883,4.1672,0.0,0.0,4.3321,4.3768,4.3931,4.5001,4.5818,4.6608,4.7386,4.7603,4.787,4.847,4.8545,4.8917,4.9932,5.0101,5.0101,5.0101,5.0371,5.0168,4.912,4.9289,4.8714,4.6921,4.6786,4.5872,4.3768,4.2794,4.1813,4.0764,4.0316,4.0113,4.0113,4.0113,4.0113,4.0113,4.0113,4.0113,4.0113,4.0113,4.0113,4.0113,4.0113,4.0113,4.0113,4.0113,4.0113,4.0163,4.0611,4.1071,4.1565,4.2015,4.2498,4.3046,0.0,5.2367,5.2435,5.2435,5.1826,5.1183,5.0676,5.1014,5.1116,0.0,5.098,5.115,5.0642,5.1691,5.1386,4.8751,4.8345,4.7631,4.6041,4.5872,4.55,4.475,4.6041,4.6481,4.5838,4.7162,4.7192,4.5703,4.5703,4.5331,4.4615,4.5263,4.5534,4.5466,4.5466,4.5771,4.6177,4.4248,4.4587,4.638,4.5703,4.638,4.7669,4.6853,4.7056,4.7699,4.6955,4.6312,4.5602,4.4147,4.3166,4.2422,4.1677,4.1339,4.1068,4.0417,4.018,4.0113,4.0113,4.0113,4.0417,4.1737,4.0561,0.0,4.2455,4.2016,4.1474,4.2868,4.3206,4.3707,4.5094,4.4993,4.5297,4.7124,4.7601,4.8308,4.9763,4.9965,4.9965,4.9965,5.0574,5.0405,4.9018,4.9526,4.9052,4.6819,4.6583,4.5297,4.2455,4.2286,4.161,4.0146,4.0113,4.0113,4.0113,4.0113,4.0113,4.0113,4.0113,4.0113,4.0113,4.0113,4.0113,4.0113,4.0113,4.0113,4.0113,4.0113,4.0113,4.0163,4.0538,4.1001,4.1499,4.1952,4.249,4.3078,5.2266,5.2807,5.3281,5.3281,5.2604,5.2469,5.3551,5.2773,5.2266,5.2773,5.2401,5.2503,5.3585,5.345,5.3044,5.2469,5.1285,4.9664,4.7631,4.6921,4.6244,4.5534,4.6312,4.6718,4.6583,4.7462,4.7192,4.5703,4.5703,4.5331,4.4615,4.475,4.4451,4.3849,4.3849,4.3606,4.32,4.3335,4.3646,4.4045,4.3882,4.5128,4.6853,4.5534,4.5838,4.6921,4.6177,4.621,4.6447,4.5568,4.4756,4.4012,4.3234,4.2185,4.117,4.1035,4.0561,4.0113,4.0113,4.0113,4.018,4.0451,4.0214,0.0,4.062,4.0519,4.0561,4.1441,4.2117,4.2591,4.2895,4.435,4.5229,4.439,4.5838,4.753,4.9018,4.9221,4.9221,4.9221,4.9357,4.9086,4.8206,4.8781,4.8308,4.6075,4.5365,4.4242,4.2388,4.2286,4.161,4.0146,4.0113,4.0113,4.0113,4.0113,4.0113,4.0113,4.0113,4.0113,4.0113,4.0113,4.0113,4.0113,4.0113,4.0113,4.0113,4.0113,4.0113,4.0113,4.0179,4.0514,4.0978,4.1477,4.2321,4.3473,5.2807,5.3213,5.3619,5.3991,5.3416,5.3416,5.4938,5.4194,5.3856,5.5006,5.5446,5.5378,5.4668,5.46,5.416,5.301,5.1522,5.0033,4.8545,4.7394,4.6481,4.5737,4.6041,4.6413,4.6786,4.7158,4.6989,4.6244,4.5872,4.5331,4.4615,4.4615,4.4181,4.3375,4.3375,4.2997,4.232,4.2692,4.3064,4.3443,4.3842,4.4891,4.6143,4.4993,4.5263,4.6143,4.5399,4.5635,4.6177,4.5838,4.5466,4.4925,4.3775,4.2868,4.2151,4.1441,4.0933,4.0561,4.0214,4.0113,4.0113,4.0113,4.0113,0.0,0.0,4.0113,4.0214,4.0561,4.0629,4.0764,4.1128,4.2117,4.3031,4.3341,4.4384,4.5771,4.7631,4.7902,4.7902,4.7902,4.824,4.8173,4.7428,4.8342,4.824,4.638,4.5196,4.3938,4.2388,4.1948,4.1238,4.0146,4.0113,4.0113,4.0113,4.0113,4.0113,4.0113,4.0113,4.0113,4.0113,4.0113,4.0113,4.0113,4.0113,4.0113,4.0113,4.0113,4.0113,4.0113,4.0113,4.0402,4.0873,4.1343,4.2298,4.3584,5.3315,5.3518,5.3687,5.4262,5.4025,5.4126,5.531,5.4972,5.5074,5.6427,5.7746,5.7712,5.548,5.5513,5.5074,5.3518,5.1488,5.0101,4.9695,4.8003,4.6616,4.5737,4.5838,4.6075,4.6346,4.665,4.665,4.638,4.5906,4.5229,4.435,4.4547,4.4079,4.3172,4.3341,4.3064,4.2489,4.2489,4.2929,4.3707,4.4316,4.4959,4.5432,4.4852,4.4959,4.5399,4.479,4.5162,4.5872,4.5568,4.5669,4.5635,4.4113,4.3511,4.3172,4.1982,4.1542,4.1271,4.0688,4.0417,4.0316,4.0316,4.0214,4.0113,0.0,0.0,0.0,4.0113,3.9639,3.9368,3.9808,4.0113,4.0798,4.232,4.3003,4.3944,4.55,4.5974,4.6312,4.6752,4.6955,4.6921,4.6616,4.753,4.7665,4.6447,4.5128,4.3673,4.2151,4.1508,4.0865,4.0113,4.0113,4.0113,4.0113,4.0113,4.0113,4.0113,4.0113,4.0113,4.0113,4.0113,4.0113,4.0113,4.0113,4.0113,4.0113,4.0113,4.0113,4.0113,4.0113,4.0402,4.0907,4.1518,4.2532,4.3835,5.3213,5.3518,5.3518,5.3619,5.4093,5.4532,5.4702,5.4634,5.4871,5.5716,5.6562,5.7171,5.7476,5.6427,5.6122,5.7171,5.3484,5.1352,5.1994,4.9357,4.7128,4.5771,4.6312,4.6075,4.4886,4.6109,4.6143,4.4852,4.5432,4.4959,4.3544,4.4248,4.3836,4.2455,4.3132,4.3341,4.3274,4.3274,4.3741,4.4479,4.4581,4.4649,4.4716,4.4649,4.4649,4.4716,4.4649,4.5495,4.6481,4.519,4.5568,4.6413,4.4925,4.3978,4.3375,4.3172,4.2692,4.2151,4.2049,4.1576,4.1068,4.1068,4.0561,4.0113,4.0113,0.0,4.0113,4.0113,0.0,3.9808,3.9208,0.0,0.0,3.9681,4.1711,4.3003,4.1982,4.2963,4.4553,4.6549,4.5094,4.4423,4.5703,4.5365,4.5021,4.4886,4.4045,4.2895,4.1407,4.1238,4.0865,4.0113,4.0113,4.0113,4.0113,4.0113,4.0113,4.0113,4.0113,4.0113,4.0113,4.0113,4.0113,4.0113,4.0113,4.0113,4.0113,4.0113,4.0113,4.0113,4.0113,4.0402,4.0942,4.2135,4.3346,4.4657,5.1961,5.2503,5.2942,5.3416,5.3754,5.4262,5.5108,5.6325,5.7103,5.7002,5.7983,5.8829,5.9133,5.7848,5.7239,5.7848,5.5006,5.2942,5.2367,4.9965,4.8071,4.7022,4.6853,4.6515,4.5901,4.6041,4.5872,4.5229,4.5128,4.4485,4.3409,4.3741,4.3335,4.2286,4.2625,4.276,4.2828,4.3707,4.4012,4.3978,4.4891,4.4959,4.4615,4.4615,4.4615,4.4682,4.506,4.5906,4.6684,4.6075,4.6278,4.6616,4.5568,4.4688,4.4012,4.3511,4.32,4.2861,4.2422,4.2049,4.1745,4.1305,4.0967,4.0629,4.0214,4.0113,4.0113,4.0113,0.0,0.0,0.0,0.0,0.0,0.0,4.0663,4.1576,4.1813,4.1271,4.1677,4.391,4.3335,4.32,4.4282,4.4519,4.4242,4.3328,4.3775,4.3064,4.0696,4.0967,4.0865,4.0113,4.0113,4.0113,4.0113,4.0113,4.0113,4.0113,4.0113,4.0113,4.0113,4.0113,4.0113,4.0113,4.0113,4.0113,4.0113,4.0113,4.0113,4.0138,4.0402,4.0611,4.0942,4.224,4.3488,4.4764,5.0811,5.1657,5.2469,5.3078,5.3518,5.4228,5.5513,5.707,5.8118,5.8186,5.9133,6.0114,6.096,5.9708,5.9066,5.9674,5.734,5.5243,5.3923,5.1386,4.939,4.8274,4.7496,4.6921,4.6515,4.5974,4.5602,4.5399,4.4857,4.4282,4.3741,4.3741,4.3436,4.2929,4.3335,4.3403,4.3301,4.4649,4.4756,4.4085,4.5026,4.506,4.4615,4.4615,4.4615,4.4682,4.5196,4.6007,4.6718,4.6312,4.6447,4.6616,4.5703,4.5026,4.4445,4.3639,4.3572,4.3572,4.2794,4.2591,4.2422,4.1677,4.1339,4.1001,4.0282,4.0282,4.0417,4.0417,4.0553,0.0,0.0,0.0,4.0654,4.0451,0.0,4.0959,4.1576,4.0493,4.0257,4.2083,4.2489,4.2828,4.3341,4.3944,4.3639,4.2117,4.2828,4.232,3.9952,4.0324,4.0426,4.0113,4.0113,4.0113,4.0113,4.0113,4.0113,4.0113,4.0113,4.0113,4.0113,4.0113,4.0113,4.0113,4.0113,4.0113,4.0113,4.0113,4.0188,4.0328,4.0659,4.0966,4.137,4.2735,4.3898,4.5006,5.0135,5.1285,5.23,5.2334,5.3551,5.4803,5.5546,5.5784,5.6596,5.8693,5.9032,6.0148,6.3091,6.2076,6.2042,6.4208,6.0994,5.8524,5.7746,5.4262,5.1217,4.9052,4.8274,4.7225,4.5771,4.5703,4.5365,4.4649,4.4615,4.4581,4.4581,4.4581,4.4547,4.4615,4.6007,4.6244,4.5635,4.6413,4.6312,4.5568,4.4919,4.4615,4.4615,4.4615,4.4615,4.4615,4.4649,4.5596,4.6583,4.5156,4.563,4.6549,4.5089,4.4615,4.4445,4.3639,4.3944,4.4412,4.3606,4.3341,4.3172,4.2455,4.1745,4.1001,4.0282,4.0629,4.117,4.117,4.1745,4.2219,4.2185,4.2185,4.1982,4.1271,4.1745,0.0,0.0,4.073,4.1407,4.2185,4.2929,4.3375,4.3375,4.3409,4.2801,4.1339,4.0629,3.9893,3.9073,3.9039,3.9402,4.0079,4.0113,4.0113,4.0113,4.0113,4.0113,4.0113,4.0113,4.0113,4.0113,4.0113,4.0113,4.0113,4.0113,4.0113,4.0113,4.0113,4.0377,4.0778,4.0802,4.1343,4.2353,4.3943,4.4848,4.5506,5.0913,5.2063,5.2942,5.2401,5.3179,5.4296,5.5478,5.5681,5.7239,6.1434,6.1569,6.2753,6.6779,6.5865,6.5256,6.6,6.3565,6.1028,5.8795,5.6528,5.4296,5.2063,5.1758,5.0676,4.8646,4.8612,4.7767,4.6041,4.5568,4.5331,4.5297,4.4282,4.4079,4.4615,4.5122,4.5224,4.5026,4.6278,4.6075,4.4925,4.4716,4.519,4.594,4.4987,4.4919,4.5399,4.5872,4.6684,4.753,4.753,4.7192,4.6616,4.5635,4.4621,4.3775,4.3477,4.3267,4.3234,4.3978,4.3809,4.3341,4.3098,4.2861,4.2354,4.1102,4.1407,4.1779,4.1305,4.1779,4.2286,4.2286,4.2286,4.2219,4.1982,4.1745,4.1407,0.0,4.0595,4.0561,4.0823,4.1508,4.1948,4.1948,4.2388,4.1644,3.9208,4.0595,4.0595,3.8396,3.9648,4.0358,4.0113,4.0113,4.0113,4.0113,4.0113,4.0113,4.0113,4.0113,4.0113,4.0113,4.0113,4.0113,4.0113,4.0113,4.0113,4.0113,4.0113,4.0377,4.0825,4.1139,4.1652,4.2394,4.4021,4.4905,4.5526,5.2164,5.2841,5.3247,5.2435,5.3179,5.4296,5.5478,5.6833,5.9099,6.299,6.4005,6.5764,6.9485,6.8774,6.8132,6.8402,6.6643,6.4005,6.0452,5.9336,5.7442,5.4431,5.4296,5.3213,5.0913,5.0608,4.939,4.7192,4.6718,4.6481,4.6447,4.4959,4.4621,4.5393,4.5393,4.5089,4.4716,4.6143,4.594,4.4615,4.4615,4.519,4.5906,4.4953,4.5196,4.6075,4.6041,4.665,4.7564,4.7767,4.753,4.7022,4.6007,4.5026,4.4079,4.3267,4.2861,4.2794,4.3267,4.32,4.2963,4.2692,4.2801,4.2692,4.1474,4.1982,4.2557,4.2083,4.2591,4.3031,4.2726,4.2929,4.2828,4.2049,4.1745,4.1407,0.0,4.0155,3.991,4.0451,4.1136,4.1508,4.1238,4.1644,4.0899,3.8464,3.958,3.9749,3.8362,3.9411,4.0054,4.0113,4.0113,4.0113,4.0113,4.0113,4.0113,4.0113,4.0113,4.0113,4.0113,4.0113,4.0113,4.0113,4.0113,4.0113,4.0113,4.0163,4.0451,4.0919,4.1432,4.2087,4.2931,4.4339,4.5389,4.6287,5.3721,5.3585,5.3382,5.2604,5.3619,5.4837,5.5683,5.8863,6.1806,6.3497,6.6237,6.8876,7.121,7.0838,7.0669,7.1345,7.006,6.7354,6.3024,6.2618,6.0622,5.6292,5.6021,5.4938,5.2638,5.1826,5.0371,4.8108,4.8007,4.7939,4.7906,4.6413,4.6075,4.6752,4.6786,4.5974,4.4716,4.621,4.6007,4.4716,4.4682,4.4716,4.475,4.4649,4.5529,4.6616,4.519,4.5596,4.6684,4.6007,4.6684,4.7534,4.6109,4.5602,4.5128,4.2929,4.276,4.2936,4.161,4.1745,4.2083,4.1407,4.1779,4.2117,4.1407,4.2388,4.3375,4.3375,4.4045,4.4378,4.3606,4.4079,4.3904,4.1677,4.1847,4.1711,4.0316,3.9503,3.958,4.1035,4.1813,4.1982,4.1271,4.1204,4.0595,3.9106,3.7743,3.7574,3.8937,3.8362,3.8633,4.0079,4.0113,4.0113,4.0113,4.0113,4.0113,4.0113,4.0113,4.0113,4.0113,4.0113,4.0113,4.0113,4.0113,4.0113,4.0138,4.0238,4.0573,4.1082,4.1701,4.2766,4.4057,4.5032,4.6359,4.7699,5.4566,5.4769,5.5074,5.4871,5.4262,5.46,5.6968,5.8626,6.1332,6.6136,6.8436,7.0669,7.3477,7.3578,7.3341,7.2969,7.1582,6.9789,6.7523,6.5797,6.3835,6.1603,6.0452,5.8795,5.6494,5.5209,5.345,5.1183,4.9526,4.8714,4.868,4.665,4.5805,4.6007,4.6549,4.5974,4.475,4.6752,4.709,4.6177,4.5635,4.6075,4.6887,4.5258,4.5529,4.6684,4.5737,4.6007,4.6752,4.6583,4.6413,4.6109,4.5162,4.4079,4.3064,4.2455,4.1644,4.1102,4.1813,4.1745,4.1576,4.1914,4.2151,4.2252,4.2049,4.2726,4.3375,4.3375,4.4045,4.4547,4.4316,4.4479,4.4215,4.3031,4.2083,4.117,4.0248,3.9943,4.0155,4.1102,4.1373,4.1407,4.1238,4.1204,4.0595,3.9106,3.9165,3.9199,3.9005,3.9343,3.9706,4.0079,4.0113,4.0113,4.0113,4.0113,4.0113,4.0113,4.0113,4.0113,4.0113,4.0113,4.0113,4.0113,4.0213,4.0238,4.0263,4.0387,4.0717,4.1244,4.2344,4.4098,4.6048,4.6263,4.6928,4.7699,5.619,5.663,5.707,5.6731,5.707,5.7848,5.9167,6.0013,6.2042,6.6373,6.9113,7.1176,7.2529,7.3849,7.4424,7.4018,7.2935,7.1379,6.9248,6.8504,6.6914,6.4106,6.3193,6.1535,5.8896,5.7103,5.5074,5.2841,5.0913,4.9796,4.9424,4.7225,4.6177,4.6177,4.6278,4.5872,4.5162,4.6752,4.7192,4.6752,4.6346,4.6481,0.0,4.5568,4.5399,4.5771,4.5365,4.5669,4.6312,4.6312,4.6244,4.6041,4.5297,4.4485,4.3572,4.2591,4.1737,4.1094,4.1297,4.1035,4.0798,4.1204,4.1576,4.1813,4.1813,4.2658,4.3375,4.3375,4.4045,4.4513,4.4147,4.435,4.4242,4.3098,4.1677,4.0696,4.0595,4.0045,4.0121,4.1508,4.1407,4.1204,4.1204,4.0933,4.0257,3.9073,3.9377,3.9605,3.9503,3.9876,4.0248,4.0561,4.0561,4.0561,4.0561,4.0561,4.0417,4.0113,4.0163,4.0188,4.0188,4.0263,4.0238,4.0188,4.0337,4.0337,4.0347,4.0852,4.1233,4.1671,4.3504,4.5165,4.6626,4.7166,4.7547,4.7845,5.7915,5.866,5.9066,5.8186,6.0622,6.2618,6.2347,6.2956,6.414,6.617,6.962,7.165,7.0973,7.3206,7.4762,7.4762,7.4052,7.2496,6.9857,7.0703,6.9485,6.5358,6.4986,6.3531,6.0622,5.8287,5.6021,5.3788,5.2063,5.0744,4.9763,4.7733,4.6684,4.6481,4.594,4.5805,4.6041,4.6684,4.6989,4.709,4.6989,4.6549,4.5974,4.5771,4.5297,4.475,4.4649,4.4993,4.5568,4.5568,4.5974,4.638,4.5771,4.55,4.5026,4.3031,4.2286,4.188,4.0587,4.018,4.0113,4.0113,4.0561,4.1068,4.117,4.2286,4.3274,4.3375,4.4045,4.4412,4.3707,4.4045,4.4005,4.2658,4.1305,4.0603,4.1271,4.0282,4.0146,4.211,4.1771,0.0,4.123,4.0629,3.9952,3.9174,3.914,3.9436,4.0079,4.0113,4.0451,4.117,4.1204,4.1264,4.1365,4.1271,4.0891,4.0299,4.0272,4.0288,4.0313,4.0436,4.0436,4.0337,4.0461,4.0529,4.0567,4.1464,4.199,4.2437,4.4716,4.5925,4.6545,4.7676,4.8088,4.8012,5.8118,5.9505,6.0452,5.9066,6.1806,6.5019,6.7387,6.8368,6.918,7.0195,7.3003,7.4864,7.4762,7.5202,7.5506,7.5506,7.483,7.3916,7.28,7.1819,7.0432,6.8402,6.7117,6.5324,6.299,6.0114,5.7543,5.531,5.2537,5.0171,4.8244,4.7259,4.6143,4.5021,4.55,4.638,4.75,4.7635,4.8071,4.8545,4.797,4.7601,4.7365,4.6177,4.5635,4.5432,4.4818,4.4682,4.4818,4.4818,4.4886,4.4987,4.4852,4.435,4.3713,4.3308,4.2354,4.1339,4.1068,4.0561,4.0113,4.0113,4.0214,4.0451,4.1068,4.188,4.2658,4.3274,4.4045,4.4581,4.4445,4.3944,4.3511,4.3267,4.2489,4.1948,4.2083,4.1985,4.203,4.2411,4.237,4.203,4.1418,4.1154,4.0696,3.9977,3.991,3.9977,4.0079,4.0213,4.0552,4.117,4.1307,4.1656,4.2268,4.156,4.1265,4.1323,4.0644,4.0362,4.0461,4.0485,4.0485,4.0485,4.0607,4.1008,4.1557,4.1842,4.2944,4.4469,4.4941,4.606,4.7388,4.7548,4.7891,4.8229,6.0926,6.1704,6.2584,6.299,6.5527,6.8368,7.0973,7.3003,7.3544,7.1582,7.3206,7.4119,7.2969,7.4931,7.6149,7.5743,7.5371,7.4864,7.4119,7.3037,7.1785,7.0331,6.8402,6.6339,6.414,6.0757,5.8118,5.6292,5.2875,5.0473,4.9018,4.7496,4.621,4.5196,4.594,4.6887,4.7906,4.8308,4.868,4.8984,4.8612,4.821,4.7804,4.7124,4.6616,4.6177,4.5432,4.5162,4.5094,4.475,4.4615,4.4615,4.4615,4.4316,4.3944,4.3511,4.2902,4.2158,4.1407,4.0933,4.0561,4.0214,4.0113,4.0282,4.1035,4.1779,4.2489,4.3267,4.4045,4.4615,4.4615,4.4282,4.3876,4.3443,4.3098,4.2861,4.2861,4.2656,4.2634,4.3015,4.2788,4.2296,4.158,4.1384,4.0976,4.0146,4.0502,4.062,4.0222,4.0687,4.1282,4.1954,4.2031,4.2227,4.2602,0.0,4.1657,4.1022,4.0656,4.0534,4.0607,4.068,4.0861,4.119,4.1312,4.1783,4.2455,4.2959,4.4014,4.5246,4.5509,4.613,4.6936,4.7392,4.771,4.7955,6.441,6.458,6.529,6.7184,6.9654,7.1954,7.368,7.6521,7.7096,7.324,7.3747,7.3713,7.1819,7.4762,7.6589,7.5777,7.5709,7.5405,7.4661,7.3916,7.2834,7.1379,6.9282,6.7184,6.5121,6.14,5.8626,5.6799,5.3382,5.098,4.9593,4.8003,4.6786,4.5974,4.6684,4.7361,4.7939,4.8714,4.9018,4.9018,4.9018,4.8646,4.8108,4.7939,4.7564,4.6921,4.621,4.594,4.5838,4.5263,4.4852,4.4615,4.4615,4.4615,4.4479,4.3842,4.3511,4.3139,4.1982,4.1441,4.1068,4.0485,4.0214,4.0248,4.0832,4.1542,4.2286,4.3031,4.391,4.4615,4.4615,4.4615,4.4412,4.3802,4.3673,4.3673,4.3722,4.3321,4.3155,4.3428,4.3192,4.2561,4.1501,4.1435,4.1138,4.0485,4.0849,4.0875,4.0322,4.1128,4.1954,4.268,4.2732,4.2903,4.3236,0.0,4.198,4.1087,4.0827,4.0807,4.0968,4.1088,4.1478,4.2102,4.2226,4.2649,4.3331,4.4191,4.4872,4.545,4.5879,4.6105,4.6291,4.7049,4.7442,4.7632,6.7354,6.8098,6.8842,6.9722,7.28,7.5236,7.5473,7.8044,7.9363,7.7604,7.7468,7.7232,7.6352,7.6657,7.6589,7.5777,7.5709,7.5405,7.4661,7.3916,7.2834,7.1379,6.9823,6.8233,6.6643,6.299,5.9674,5.6799,5.4431,5.1522,4.8108,4.8578,4.8037,4.6718,4.7496,4.7838,4.7939,4.8714,4.9018,4.9018,4.9018,4.8951,4.8815,4.8142,4.7838,4.7699,4.6955,4.6684,4.6684,4.6616,4.5732,4.4615,4.4615,4.4615,4.4581,4.4513,4.3978,4.3375,4.3206,4.2219,4.117,4.1102,4.0595,4.0113,4.018,4.0764,4.1508,4.2252,4.3565,4.4615,4.4615,4.4615,4.4609,4.4646,4.4563,4.4563,4.4838,4.4824,4.4331,4.31,4.3572,4.3151,4.0998,4.1287,4.1553,4.1451,4.0705,4.0231,4.0288,4.1153,4.192,4.268,4.2834,4.3537,4.4971,4.2792,4.2115,4.294,4.1439,4.113,4.1871,4.1871,4.2319,4.3078,4.3069,4.3517,4.4251,4.501,4.5328,4.5397,4.545,4.5778,4.6193,4.6291,4.6868,4.7611,7.1109,7.0804,7.1244,7.3781,7.4695,7.5811,7.8044,7.9431,7.9972,7.9397,7.8923,7.8213,7.7029,7.6893,7.6589,7.5777,7.5709,7.5574,7.527,7.4153,7.324,7.2631,7.0364,6.8605,6.7489,6.3835,6.0689,5.8118,5.5446,5.2706,4.9866,4.9289,4.8206,4.6853,4.8037,4.8578,4.8612,4.9357,4.9932,5.0304,4.983,4.9661,4.9627,4.9323,4.8951,4.8477,4.7733,4.7462,4.7394,4.6955,4.6109,4.5263,4.5263,4.4959,4.4716,4.5128,4.4722,4.4113,4.4113,4.3335,4.2422,4.1982,4.1644,4.1433,4.1433,4.1982,4.2598,4.2895,4.3809,4.4615,4.4615,4.4671,4.472,4.4776,4.4831,4.4886,4.4995,4.5042,4.4574,4.3083,4.3296,4.2856,4.1006,4.0988,4.1258,4.1669,4.133,4.1339,4.1902,4.1856,4.2412,4.3615,4.3287,4.3588,4.4647,4.3262,4.253,4.2482,4.134,4.1202,4.1999,4.1999,4.2689,4.3897,4.432,4.4699,4.4975,4.5259,4.5397,4.5397,4.5397,4.5554,4.5822,4.657,4.7015,4.737,7.4255,7.3477,7.3713,7.7266,7.6961,7.713,7.9803,8.0209,8.0107,7.9904,7.9228,7.8382,7.7333,7.7029,7.6589,7.5777,7.5709,7.5709,7.5709,7.4322,7.3477,7.3477,7.0669,6.8842,6.8267,6.4613,6.1603,5.9336,5.6596,5.3957,5.1522,5.0236,4.9086,4.8139,4.9187,4.9661,4.9695,5.0202,5.0744,5.1151,5.0642,5.027,5.0101,5.0101,4.9627,4.8951,4.8409,4.821,4.8142,4.7631,4.6955,4.6312,4.6109,4.55,4.5026,4.5534,4.5162,4.4615,4.4615,4.4181,4.3572,4.2828,4.2625,4.2557,4.2354,4.2692,4.3132,4.3423,4.4128,4.4699,4.4692,4.4776,4.4886,4.4913,4.4968,4.5049,4.513,4.515,4.4722,4.3443,4.3441,4.293,4.1378,4.1144,4.1278,4.1793,4.1886,4.2102,4.2627,4.2634,4.3053,4.3966,0.0,0.0,4.4596,4.369,4.3034,4.2689,4.193,4.1964,4.2689,4.2906,4.3595,4.4665,4.5423,4.5604,4.5432,4.5638,4.5604,4.5397,4.5397,4.5397,4.5553,4.6699,4.7174,4.7472,7.642,7.6183,7.6589,7.9634,8.0141,8.0141,8.0175,8.0209,7.9938,7.9228,7.8483,7.801,7.7976,7.7333,7.6589,7.5777,7.5709,7.5709,7.5709,7.4322,7.3477,7.3477,7.0669,6.9113,6.9079,6.5425,6.2381,6.008,5.7848,5.5243,5.2266,5.1522,5.1151,5.1151,5.1183,5.1183,5.1183,5.1151,5.1217,5.1185,5.1217,5.0744,5.0101,5.0101,4.9627,4.9018,4.8984,4.8984,4.8984,4.8984,4.8477,4.7767,4.7022,4.6278,4.5703,4.5703,4.5162,4.4615,4.4615,4.4615,4.4384,4.3606,4.3375,4.32,4.2455,4.2286,4.2577,4.3491,4.4293,4.4831,4.4968,4.5022,4.5049,4.5177,4.5103,4.5103,4.5371,4.5291,4.4981,4.4354,4.4276,4.369,4.2137,4.1974,4.1974,4.1999,4.1999,4.1926,4.1812,4.3245,4.3812,4.3241,4.3897,0.0,4.5363,4.3906,4.3552,4.4276,4.3517,4.3552,4.4311,4.5044,4.5363,4.5432,4.6224,4.6121,4.5466,4.6259,4.6121,4.5397,4.5397,4.5397,4.55,4.632,4.7226,4.8186,7.8822,7.8957,7.9058,8.004,8.0209,8.004,7.9532,7.9464,7.9025,7.7773,7.7401,7.686,7.5811,7.5912,7.598,7.5709,7.5709,7.5473,7.4999,7.4018,7.3274,7.2766,7.0398,6.9113,6.9113,6.6406,6.3903,6.167,5.9911,5.7002,5.3112,5.2875,5.2232,5.1219,5.1725,5.1961,5.1961,5.1961,5.2266,5.2739,5.2164,5.1522,5.0845,5.0845,5.0101,4.9018,4.9018,4.9018,4.9018,4.9018,4.8849,4.8612,4.8376,4.7462,4.6549,4.7056,4.6684,4.6075,4.6075,4.5737,4.5162,4.4418,4.4215,4.4039,4.3403,4.326,4.3491,4.4402,4.4688,4.4831,4.4995,4.5069,4.515,4.5177,4.5264,4.5318,4.5397,4.5371,4.5095,4.438,4.4311,4.3897,4.2896,4.2344,4.2447,4.3483,4.3103,4.2802,4.2752,4.32,4.3639,0.0,4.4173,0.0,4.5397,4.4423,4.4069,4.4311,4.3552,4.3586,4.4345,4.5079,4.5707,4.6224,4.6493,4.6769,4.6983,4.7224,4.7189,4.6948,4.6948,4.6948,4.7052,4.781,4.8426,4.9055,7.96,7.9803,7.987,8.0141,7.9972,7.9634,7.9194,7.8653,7.7942,7.7029,7.6657,7.6082,7.5134,7.5439,7.5574,7.5303,7.5303,7.4965,7.4255,7.3477,7.2631,7.1616,6.9992,6.8977,6.8673,6.644,6.4613,6.3226,6.0858,5.7712,5.3923,5.3923,5.3247,5.2097,5.257,5.2739,5.2739,5.2739,5.3044,5.345,5.2942,5.23,5.1623,5.1623,5.071,4.9424,4.9424,4.9255,4.9018,4.9018,4.9018,4.9018,4.9046,4.8636,4.8128,4.8026,4.745,4.6874,4.6874,4.6796,4.6452,4.5377,4.5281,4.5241,4.4334,4.415,4.4367,4.4974,4.5022,4.4995,4.513,4.5478,4.5704,4.5704,4.5818,4.5845,4.5845,4.5604,4.5225,4.4768,4.4699,4.4423,4.369,4.3172,4.3034,4.3414,4.3276,4.3069,4.2758,4.3586,4.4138,4.4311,4.4561,4.4941,4.5397,4.4941,4.4699,4.4699,4.4527,4.4699,4.5182,4.5941,4.6535,4.7044,4.7293,4.7534,4.7707,4.7982,4.7948,4.7672,4.7672,4.7672,4.7775,4.8534,4.9161,4.9852,7.9126,7.916,7.9397,8.0073,7.9634,7.9126,7.8991,7.7841,7.6893,7.669,7.6082,7.5676,7.5574,7.5574,7.5337,7.4593,7.4593,7.4255,7.3375,7.2699,7.165,7.0195,6.9417,6.8673,6.7929,6.5831,6.4681,6.4512,6.0892,5.7611,5.4803,5.4769,5.4363,5.3653,5.3619,5.3585,5.3585,5.3518,5.3518,5.3518,5.3518,5.301,5.23,5.23,5.142,5.0168,5.0168,4.9729,4.9154,4.9154,4.9154,4.9185,4.9338,4.9841,5.011,4.8647,4.7763,4.7223,4.7151,4.7715,4.8007,4.6397,4.6504,4.6606,4.5307,4.5043,4.5145,4.528,4.5341,4.5402,4.5474,4.6121,4.6665,4.6631,4.6596,4.6596,4.6527,4.588,4.5397,4.5397,4.5397,4.5121,4.4449,4.4345,4.3724,4.2319,4.2896,4.2965,4.225,0.0,4.5079,4.4311,4.5044,4.5397,4.5397,4.5397,4.5432,4.55,4.6293,4.67,4.67,4.7389,4.7707,4.781,4.8499,4.843,4.7913,4.8603,4.8465,4.7872,4.7872,4.7872,4.7913,4.8603,4.9546,5.0566,7.9126,7.9566,8.0006,8.0175,8.0073,7.9363,7.7671,7.7604,7.6893,7.4593,7.51,7.527,7.4119,7.4525,7.4559,7.3815,7.4289,7.3815,7.1954,7.1684,7.0906,6.9417,6.8605,6.8098,6.7895,6.6846,6.5459,6.3768,6.1129,5.8896,5.7103,5.6528,5.5886,5.5175,5.46,5.4329,5.4296,5.3754,5.3518,5.3518,5.3518,5.301,5.23,5.23,5.1725,5.0947,5.0947,5.0845,5.071,5.071,5.0805,5.0932,5.0963,5.0751,5.0397,4.9441,4.9441,4.9509,4.8353,4.8211,4.8172,4.7216,4.6725,4.6535,4.6781,4.6426,4.6035,4.6239,4.6632,4.6845,4.6397,4.6914,4.7286,4.67,4.6596,4.6389,4.5776,4.55,4.5397,4.5397,4.5397,4.5328,4.5156,4.463,4.4354,4.457,4.4251,4.4207,4.457,4.5121,4.5079,4.4311,4.5044,4.5397,4.5397,4.5397,4.5707,4.632,4.7052,4.7431,4.7458,4.7603,4.8017,4.8534,4.8706,4.9051,4.9493,4.9666,4.9631,4.9459,4.9459,4.9459,4.9493,4.9666,5.0387,5.1351,7.96,7.9938,8.0209,8.0209,7.9938,7.9194,7.7638,7.686,7.598,7.4661,7.4627,7.4627,7.4525,7.4864,7.4661,7.3578,7.3544,7.2935,7.1413,7.0973,7.0128,6.8605,6.8132,6.7726,6.7421,6.6677,6.5392,6.3531,6.2279,6.0723,5.8863,5.7814,5.69,5.619,5.5446,5.5108,5.504,5.4329,5.3991,5.3957,5.3653,5.3247,5.2841,5.2841,5.2434,5.1822,5.1822,5.1619,5.1346,5.1346,5.141,5.1505,5.1568,5.1657,5.1607,5.0948,5.0472,5.0001,4.9213,4.9066,4.8924,4.8112,4.7408,4.7045,4.7408,4.7223,4.6969,4.7086,4.7341,4.7485,4.7155,4.7734,4.7948,4.7217,4.7113,4.6837,4.6052,4.5638,4.5397,4.5397,4.5397,4.5397,4.5397,4.5044,4.4837,4.4906,4.4837,4.4837,4.4906,4.5225,4.5225,4.4803,4.519,4.5569,4.5914,4.6259,4.6672,4.7113,4.7844,4.8189,4.8224,4.8596,4.8976,4.9355,4.9355,4.9597,5.0011,5.0011,5.0011,5.0011,5.0011,5.0011,5.0011,5.0011,5.0667,5.1601,8.004,8.0107,8.0209,8.0209,7.96,7.8822,7.7942,7.6082,7.4965,7.5473,7.4424,7.4187,7.554,7.5608,7.4965,7.3612,7.2834,7.2056,7.121,7.0432,6.9383,6.7963,6.7793,6.7455,6.6812,6.5967,6.4918,6.3666,6.3362,6.211,6.008,5.8693,5.7679,5.6934,5.6224,5.5886,5.5818,5.5074,5.4769,5.4702,5.3957,5.3687,5.3653,5.3585,5.3211,5.2765,5.2798,5.2458,5.2047,5.1911,5.1945,5.2111,5.207,5.2566,5.3032,5.2536,5.127,5.0047,4.9943,4.9928,4.9809,4.9011,4.8311,4.7851,4.7876,4.7864,4.7844,4.7844,4.7948,4.801,4.7879,4.8465,4.8741,4.7982,4.7775,4.7431,4.67,4.5914,4.5397,4.5397,4.5397,4.5397,4.5397,4.5397,4.5147,4.4492,4.5044,4.5121,4.4492,4.5079,4.5397,4.5397,4.55,4.5949,4.6769,4.75,4.7844,4.7879,4.8603,4.8982,4.8982,4.97,5.0011,5.0011,5.0011,5.0011,5.0011,5.0011,5.0011,5.0011,5.0011,5.0011,5.0011,5.0011,5.0647,5.1475,7.9295,7.9769,8.0209,8.0209,7.96,7.8653,7.7266,7.6183,7.5337,7.4864,7.4593,7.4762,7.5608,7.5134,7.4424,7.3544,7.2834,7.1819,7.0466,6.9688,6.8876,6.7929,6.732,6.6914,6.6812,6.5459,6.4647,6.4444,6.255,6.1129,6.008,5.9235,5.8457,5.7679,5.6968,5.663,5.6596,5.5852,5.5547,5.548,5.4735,5.4431,5.4397,5.3855,5.3616,5.3547,5.3712,5.4118,5.4426,5.3811,5.4148,5.4689,5.4038,5.3616,5.3325,5.3253,5.2532,5.1675,5.1055,5.0464,4.9976,4.9809,4.9189,4.881,4.9465,4.9085,4.8637,4.8637,4.9154,4.9459,4.8741,4.9258,4.9562,4.8741,4.8086,4.7431,4.67,4.5914,4.5397,4.5397,4.5397,4.5397,4.5397,4.5397,4.5363,4.5225,4.5328,4.5363,4.5225,4.5328,4.5397,4.5397,4.6052,4.6769,4.7527,4.8258,4.8637,4.8637,4.9424,4.9804,4.9838,4.9942,5.0011,5.0011,5.0011,5.0011,5.0011,5.0011,5.0011,5.0011,5.0011,5.0011,5.0011,5.0011,5.0369,5.0991,7.9025,7.9397,7.9735,8.0141,7.96,7.8619,7.713,7.5879,7.4999,7.4661,7.3916,7.3849,7.4999,7.4458,7.3713,7.2969,7.2597,7.1954,7.0872,6.9722,6.8944,6.8571,6.7421,6.6812,6.6812,6.6136,6.5595,6.5189,6.3768,6.2685,6.1907,6.0351,5.9404,5.9032,5.7881,5.7446,5.745,5.6225,5.5786,5.5755,5.4499,5.4025,5.3991,5.3787,5.4022,5.4462,5.4661,5.5206,5.5788,5.5446,5.5649,5.5956,5.5578,5.5058,5.4598,5.4598,5.346,5.2119,5.1774,5.1149,5.0597,5.0597,5.0011,4.9562,4.9942,4.9735,4.9459,4.9459,4.9735,4.9907,4.9499,4.9769,4.9735,4.8913,4.8155,4.7431,4.67,4.5914,4.5569,4.5983,4.6052,4.6052,4.6052,4.6052,4.6052,4.6052,4.6052,4.6224,4.6603,4.6638,4.6638,4.6638,4.6983,4.7534,4.8293,4.9051,4.9459,4.943,4.9838,5.0011,5.0011,5.0011,5.0011,5.0011,5.0011,5.0011,5.0011,5.0011,5.0011,5.0011,5.0011,5.0011,5.0011,5.0011,5.0348,5.0884,7.8653,7.872,7.8788,7.9329,7.8957,7.8111,7.6589,7.5236,7.4356,7.4356,7.3341,7.3071,7.4221,7.3984,7.3375,7.2462,7.2394,7.209,7.1379,6.9925,6.9113,6.9113,6.7624,6.6812,6.6812,6.6643,6.617,6.5425,6.4715,6.3903,6.2956,6.1197,6.0283,6.0047,5.8727,5.8262,5.8375,5.6908,5.6263,5.6131,5.4669,5.4059,5.3991,5.382,5.4325,5.5107,5.5168,5.5678,5.6229,5.6092,5.6297,5.6537,5.6366,5.6088,5.5908,5.5908,5.4667,5.3084,5.2394,5.1804,5.1356,5.1356,5.0804,5.0252,5.0252,5.0114,5.0011,5.0011,5.0011,5.0011,5.0011,5.0011,4.9804,4.9154,4.843,4.7741,4.7217,4.6431,4.6155,4.6803,4.6872,4.6872,4.6872,4.6872,4.6872,4.6872,4.6872,4.7113,4.7672,4.7672,4.7775,4.7948,4.7948,4.8293,4.9051,4.97,5.0011,5.0011,5.0011,5.0011,5.0011,5.0011,5.0011,5.0011,5.0011,5.0011,5.0011,5.0011,5.0011,5.0011,5.0011,5.0011,5.0011,5.0011,5.0263,5.0667,7.7773,7.7536,7.7096,7.713,7.7096,7.6555,7.4999,7.4086,7.3578,7.3578,7.3477,7.3443,7.3544,7.4153,7.395,7.2529,7.2394,7.209,7.1379,6.9925,6.9113,6.9113,6.7624,6.6812,6.6812,6.6136,6.5425,6.4681,6.3937,6.2854,6.1467,6.1298,6.0825,6.008,5.9268,5.9041,5.9154,5.8375,5.7627,5.6947,5.6131,5.5721,5.5447,5.4395,5.4459,5.5073,5.4679,5.5049,5.5566,5.4876,5.56,5.6634,5.591,5.6152,5.6702,5.6702,5.6598,5.5839,5.2977,5.2153,5.2119,5.2119,5.1563,5.1045,5.1045,5.0493,5.0011,5.0011,5.0011,5.0011,5.0011,5.0011,4.9976,4.9942,4.9223,4.8706,4.8637,4.7982,4.7534,4.7603,4.7603,4.7603,4.7603,4.7603,4.7603,4.7603,4.7603,4.7638,4.7672,4.7672,4.8017,4.8706,4.8706,4.9085,4.9907,4.9976,5.0011,5.0011,5.0011,5.0011,5.0011,5.0011,5.0011,5.0011,5.0011,5.0011,5.0011,5.0011,5.0011,5.0011,5.0011,5.0011,5.0011,5.0011,5.004,5.012,7.5676,7.5676,7.5608,7.6082,7.5777,7.5303,7.4695,7.3578,7.2969,7.3443,7.3105,7.28,7.28,7.3071,7.2834,7.1819,7.1718,7.1616,7.1345,7.0804,6.9654,6.776,6.7117,6.6812,6.6812,6.6542,6.6034,6.5256,6.4546,6.3666,6.2651,6.1738,6.1129,6.0791,5.9573,5.9143,5.9188,5.8035,5.7426,5.7224,5.6336,5.5961,5.579,5.5007,5.5449,5.6474,5.6088,5.6391,5.6978,5.6702,5.6702,5.6736,5.646,5.6219,5.6081,5.6081,5.6081,5.5908,5.5253,5.4701,5.429,5.429,5.3425,5.2528,5.2528,5.1942,5.1356,5.1356,5.1356,5.1188,5.0769,5.07,5.0528,5.008,4.9292,4.881,4.881,4.8155,4.7844,4.8327,4.8361,4.8361,4.8361,4.8361,4.8361,4.8361,4.8361,4.8603,4.9114,4.9148,4.9252,4.9562,4.9562,4.97,5.0011,5.0011,5.0011,5.0011,5.0011,5.0011,5.0011,5.0011,5.0011,5.0011,5.0011,5.0011,5.0011,5.0011,5.0011,5.0011,5.0011,5.0011,5.0011,5.0011,5.0011,5.0097,7.4728,7.439,7.4153,7.4864,7.4593,7.4119,7.3646,7.3105,7.2834,7.3105,7.2902,7.2665,7.2428,7.2394,7.209,7.1379,7.1312,7.1312,7.1312,7.1075,6.9925,6.7624,6.7286,6.7049,6.6812,6.6812,6.644,6.5696,6.5189,6.4444,6.3497,6.2482,6.1873,6.1603,6.0359,5.9794,5.9672,5.845,5.7772,5.7432,5.6713,5.6404,5.6302,5.5962,5.6474,5.7329,5.7189,5.746,5.7874,5.7633,5.7702,5.7736,5.7012,5.6598,5.6391,5.6598,5.6702,5.6805,5.7357,5.7116,5.6564,5.6115,5.5046,5.4046,5.3804,5.3149,5.2528,5.2257,5.2188,5.205,5.1563,5.1287,5.0942,5.0424,4.97,4.9154,4.9154,4.8741,4.8631,4.912,4.9154,4.9154,4.9154,4.9154,4.9154,4.9154,4.9154,4.9424,4.9976,5.0011,5.0011,5.0011,5.0011,5.0011,5.0011,5.0011,5.0011,5.0011,5.0011,5.0011,5.0011,5.0011,5.0011,5.0011,5.0011,5.0011,5.0011,5.0011,5.0011,5.0011,5.0011,5.0011,5.0011,5.0011,5.0011,5.0068,7.5236,7.3883,7.2631,7.3341,7.3477,7.2969,7.1548,7.2563,7.3206,7.2496,7.3037,7.3206,7.2462,7.2394,7.209,7.1379,7.1312,7.1312,7.1312,7.0601,6.9857,6.9147,6.8335,6.7557,6.6846,6.6812,6.644,6.5696,6.5696,6.4952,6.3531,6.3531,6.3125,6.2347,6.1834,6.1276,6.0677,6.0141,5.9045,5.7707,5.75,5.7292,5.7152,5.7327,5.7363,5.7363,5.7774,5.7909,5.7805,5.7081,5.8323,5.9806,5.7529,5.7322,5.8047,5.8771,5.9012,5.9012,5.9012,5.9012,5.8668,5.7185,5.6219,5.5426,5.4701,5.3942,5.3184,5.236,5.2222,5.2222,5.2188,5.1602,5.1114,5.1114,5.0493,5.0011,5.0011,5.0011,5.0011,5.0011,5.0011,5.0011,5.0011,5.0011,5.0011,5.0011,5.0011,5.0011,5.0011,5.0011,5.0011,5.0011,5.0011,5.0011,5.0011,5.0011,5.0011,5.0011,5.0011,5.0011,5.0011,5.0011,5.0011,5.0011,5.0011,5.0011,5.0011,5.0011,5.0011,5.0011,5.0011,5.0011,5.0011,5.0011,5.0011,5.0011,7.2496,7.209,7.1718,7.1921,7.1954,7.1988,7.2056,7.2022,7.2056,7.236,7.2597,7.2462,7.1718,7.209,7.209,7.1379,7.1312,7.1312,7.1312,7.1109,7.0635,6.9891,6.8605,6.7557,6.6846,6.6812,6.6711,6.6474,6.5933,6.5459,6.5019,6.4005,6.3396,6.3125,6.1917,6.1393,6.131,6.0711,5.9967,5.9251,5.9005,5.8591,5.8044,5.7499,5.7978,5.8867,5.8737,5.9047,5.9461,5.9254,5.9254,5.9081,5.7357,5.7667,5.853,5.7702,5.8185,5.8909,5.8392,5.8633,5.8909,5.8461,5.7771,5.7012,5.6288,5.5529,5.4736,5.3977,5.3839,5.3667,5.3149,5.2873,5.2356,5.1287,5.1326,5.1183,5.0149,5.0459,5.0597,5.008,5.0011,5.0011,5.0011,5.0011,5.0011,5.0011,5.0011,5.0011,5.0011,5.0011,5.0011,5.0011,5.0011,5.0011,5.0011,5.0011,5.0252,5.0769,5.0252,5.0287,5.0769,5.0252,5.0011,5.0011,5.0011,5.0011,5.0011,5.0011,5.0011,5.004,5.0397,5.0313,5.0068,5.0425,5.0313,5.0068,7.2056,7.1718,7.1413,7.1684,7.1515,7.1447,7.1921,7.1853,7.1887,7.2326,7.2394,7.2225,7.1785,7.1887,7.1785,7.1345,7.1312,7.1312,7.1312,7.1312,7.0973,7.0229,6.9316,6.8335,6.7252,6.6948,6.6948,6.7252,6.6508,6.6136,6.6102,6.4918,6.4072,6.3463,6.2662,6.2033,6.1537,6.1394,6.0928,6.028,5.9792,5.9515,5.9276,5.8524,5.8798,5.9585,5.9494,5.9806,6.0151,5.984,5.9392,5.8944,5.8668,5.8978,5.9357,5.8771,5.9219,5.9771,5.9012,5.915,5.9392,5.9081,5.8668,5.815,5.7391,5.6874,5.6219,5.515,5.4943,5.4701,5.3977,5.3598,5.308,5.2183,5.2119,5.1877,5.1011,5.1252,5.1287,5.0528,5.0459,5.0321,5.0045,5.0011,5.0011,5.0011,5.0011,5.0011,5.0011,5.0011,5.0011,5.0011,5.0011,5.0149,5.0424,5.0149,5.0218,5.0666,5.0528,5.0666,5.108,5.0666,5.0459,5.0424,5.0149,5.0011,5.0011,5.0011,5.0011,5.0068,5.0592,5.0481,5.0034,5.062,5.0453,5.0097,7.3037,7.2225,7.1515,7.2191,7.1751,7.1312,7.1312,7.1887,7.2293,7.2293,7.2293,7.2293,7.2293,7.1718,7.1312,7.1312,7.1312,7.1312,7.1312,7.1312,7.1007,7.0331,7.0229,6.9519,6.8132,6.7387,6.7354,6.7996,6.7252,6.6914,6.688,6.6068,6.4986,6.37,6.3764,6.2994,6.1741,6.2084,6.1824,6.1035,6.017,6.02,6.0642,6.0064,5.9893,5.9997,6.0423,6.0565,6.0358,5.9495,5.9219,5.9461,6.0771,6.084,6.0496,6.1047,6.1289,6.122,6.0323,6.0151,5.9978,5.9116,5.8944,5.8806,5.8081,5.7909,5.7495,5.6012,5.5736,5.5495,5.4736,5.4046,5.3563,5.3425,5.2839,5.236,5.2222,5.2257,5.2046,5.1287,5.1218,5.0907,5.0183,5.0114,5.0114,5.0114,5.0183,5.0183,5.0114,5.0183,5.0218,5.0218,5.0218,5.0528,5.1218,5.0528,5.0218,5.0218,5.0769,5.1045,5.1114,5.1045,5.1011,5.0976,5.0287,5.0011,5.0011,5.0011,5.004,5.012,5.064,5.0592,5.0206,5.0667,5.0537,5.0149,7.1718,7.1548,7.1379,7.1515,7.1413,7.1312,7.1312,7.1447,7.1548,7.1548,7.1548,7.1548,7.1548,7.1413,7.1312,7.1312,7.1312,7.1312,7.1312,7.1312,7.1244,7.1075,7.05,7.0026,6.9688,6.8977,6.8673,6.8842,6.8064,6.7658,6.7624,6.6305,6.5527,6.5155,6.4045,6.3487,6.3271,6.2962,6.2467,6.1929,6.1721,6.1343,6.0964,6.1481,6.1995,6.2616,6.3422,6.3358,6.2634,6.1254,6.0806,6.0771,6.053,6.1151,6.1772,6.0737,6.1289,6.1806,5.9806,5.9737,5.9875,5.8495,5.8599,5.8806,5.8081,5.7909,5.7633,5.6736,5.6529,5.6322,5.5529,5.5253,5.4736,5.3598,5.3736,5.3598,5.236,5.2735,5.2873,5.205,5.1946,5.1671,5.0942,5.0873,5.0873,5.0873,5.1425,5.1494,5.0907,5.1425,5.1705,5.1705,5.1705,5.1774,5.1946,5.1774,5.1705,5.1735,5.0735,5.0562,5.108,5.0493,5.0252,5.0252,5.008,5.0011,5.0011,5.0011,5.0263,5.0667,5.1228,5.1347,5.1244,5.1373,5.1096,5.0694,7.1312,7.1312,7.1312,7.1312,7.1312,7.1312,7.1312,7.1312,7.1312,7.1312,7.1312,7.1312,7.1312,7.1312,7.1312,7.1312,7.1312,7.1312,7.1312,7.1312,7.1356,7.1457,7.0984,7.0747,7.088,7.0375,6.9823,6.9113,6.7963,6.7557,6.7895,6.6745,6.6034,6.5662,6.4884,6.4214,6.3623,6.3528,6.3346,6.3049,6.2407,6.2378,6.2581,6.2309,6.2447,6.2859,6.3422,6.291,6.191,6.1461,6.1289,6.122,6.084,6.1772,6.2841,6.2048,6.2393,6.2668,6.1082,6.0978,6.0909,5.9392,5.9288,5.9288,5.815,5.8185,5.8116,5.7012,5.7081,5.7081,5.6322,5.5874,5.5357,5.4563,5.4494,5.4218,5.3425,5.3667,5.3632,5.2873,5.277,5.2494,5.1671,5.1602,5.1602,5.1602,5.1981,5.2015,5.1636,5.1981,5.2188,5.2188,5.2188,5.236,5.277,5.2394,5.2394,5.277,5.2011,5.1839,5.2183,5.1804,5.1632,5.1597,5.1218,5.1045,5.1045,5.0666,5.0841,5.1322,5.1515,5.1601,5.1601,5.1601,5.1398,5.1244,7.1312,7.1312,7.1312,7.1312,7.1312,7.1312,7.1312,7.1312,7.1312,7.1312,7.1312,7.1312,7.1312,7.1312,7.1312,7.1312,7.1312,7.1312,7.1312,7.1312,7.1367,7.1512,7.1367,7.1401,7.1556,7.1266,7.0567,6.9485,6.8064,6.7624,6.8098,6.7354,6.6609,6.5865,6.5764,6.5019,6.3869,6.4171,6.423,6.4029,6.3162,6.348,6.4336,6.334,6.2996,6.3068,6.3282,6.2356,6.0978,6.1082,6.1185,6.1289,6.1151,6.2151,6.3393,6.3393,6.3496,6.3427,6.2703,6.2496,6.2151,6.0737,6.0392,6.0013,5.8599,5.8668,5.8668,5.7426,5.7667,5.7874,5.7116,5.646,5.5908,5.5667,5.5115,5.4667,5.4529,5.4494,5.4287,5.3667,5.3494,5.3184,5.2666,5.2494,5.2425,5.2425,5.2498,5.2532,5.2394,5.2498,5.2567,5.2567,5.2567,5.2912,5.3598,5.2942,5.2942,5.3598,5.3598,5.346,5.3184,5.3184,5.3184,5.3149,5.2494,5.2188,5.2153,5.1563,5.1593,5.2021,5.2003,5.1951,5.1848,5.175,5.1676,5.1676,7.1312,7.1312,7.1312,7.1312,7.1312,7.1312,7.1312,7.1312,7.1312,7.1312,7.1312,7.1312,7.1312,7.1312,7.1312,7.1312,7.1312,7.1312,7.1312,7.1312,7.1312,7.1356,7.1312,7.1312,7.1356,7.0669,7.0567,7.1007,7.0161,6.9451,6.891,6.8132,6.7354,6.6643,6.5967,6.5561,6.5399,6.5159,6.4669,6.4161,6.5031,6.5079,6.4731,6.5748,6.62,6.6424,6.6922,6.5791,6.3703,6.1185,6.0771,6.1185,6.0565,6.1392,6.2634,6.2634,6.3082,6.3427,6.2703,6.2496,6.2255,6.1392,6.1151,6.0944,6.0082,5.9426,5.8944,5.8737,5.8806,5.8633,5.7909,5.7667,5.715,5.5839,5.5529,5.5253,5.4598,5.4494,5.446,5.4356,5.3804,5.3632,5.4149,5.3632,5.3253,5.3253,5.3839,5.3908,5.3287,5.3839,5.4184,5.4184,5.4184,5.4253,5.4356,5.4253,5.4253,5.4356,5.4356,5.3667,5.236,5.236,5.236,5.236,5.2222,5.2188,5.2188,5.2084,5.2241,5.2659,5.3333,5.3327,5.2952,5.2454,5.1994,5.1676,7.1312,7.1312,7.1312,7.1312,7.1312,7.1312,7.1312,7.1312,7.1312,7.1312,7.1312,7.1312,7.1312,7.1312,7.1312,7.1312,7.1312,7.1312,7.1312,7.1312,7.1356,7.1457,7.1356,7.1356,7.1457,7.1063,7.0973,7.1312,7.0161,6.918,6.8402,6.8064,6.7523,6.6812,6.6474,6.6151,6.5834,6.5369,6.5089,6.4937,6.4694,6.491,6.5428,6.5852,6.6165,6.6428,6.6661,6.5868,6.4496,6.3151,6.2944,6.3151,6.2806,6.3186,6.3738,6.3738,6.3669,6.3531,6.3186,6.3117,6.291,6.2151,6.1979,6.1772,6.0978,6.053,6.0185,5.9771,5.9668,5.9564,5.9254,5.8495,5.7667,5.7012,5.6564,5.6012,5.5219,5.5115,5.4977,5.4563,5.4218,5.4149,5.4494,5.4218,5.4011,5.4011,5.4322,5.4356,5.4046,5.4322,5.4494,5.4494,5.4494,5.4494,5.4494,5.4494,5.4494,5.4494,5.4494,5.4149,5.3494,5.3494,5.3494,5.3494,5.3494,5.3494,5.346,5.3046,5.3311,5.4001,5.3431,5.305,5.2761,5.2806,5.279,5.2726]}]]